[[{"header":{"parameterUnit":"m.s-1","parameterCategory":1,"la1":30.6,"la2":29.2853,"lo1":-89.7004,"lo2":-87.6739,"dy":0.0162,"dx":0.0183,"nx":112,"ny":82,"refTime":"2024-05-21T12:00:00:Z","depth":0,"parameterNumber":2,"parameterNumberName":"U-component_of_WINDS"},"data":[0.0,0.0,0.0,0.0,0.0,0.0,0.0,0.0,0.0,0.0,0.0,0.0,0.0,0.0,0.0,0.0,0.0,0.0,0.0,0.0,0.0,0.0,0.0,0.0,0.0,0.0,0.0,0.0,0.0,0.0,0.0,0.0,0.0,0.0,0.0,0.0,0.0,0.0,0.0,0.0,0.0,0.0,0.0,0.0,0.0,0.0,0.0,0.0,0.0,0.0,0.0,0.0,0.0,0.0,0.0,0.0,0.0,0.0,0.0,0.0,0.0,0.0,0.0,0.0,0.0,0.0,0.0,0.0,0.0,0.0,0.0,0.0,0.0,0.0,0.0,0.0,0.0,0.0,0.0,0.0,0.0,0.0,0.0,0.0,0.0,0.0,0.0,0.0,0.0,0.0,-6.0202,-6.1447,-6.3416,-6.46,-6.46,-6.4113,-6.2285,-5.8637,0.0,0.0,0.0,0.0,0.0,0.0,0.0,0.0,0.0,0.0,0.0,0.0,0.0,0.0,0.0,0.0,0.0,0.0,0.0,0.0,0.0,0.0,0.0,0.0,0.0,0.0,0.0,0.0,0.0,0.0,0.0,0.0,0.0,0.0,0.0,0.0,0.0,0.0,0.0,0.0,0.0,0.0,0.0,0.0,0.0,0.0,0.0,0.0,0.0,0.0,0.0,0.0,0.0,0.0,0.0,0.0,0.0,0.0,0.0,0.0,0.0,0.0,0.0,0.0,0.0,0.0,0.0,0.0,0.0,0.0,0.0,0.0,0.0,0.0,0.0,0.0,0.0,0.0,0.0,0.0,0.0,0.0,0.0,0.0,0.0,0.0,0.0,0.0,0.0,0.0,0.0,0.0,0.0,0.0,0.0,0.0,0.0,0.0,0.0,0.0,0.0,0.0,0.0,0.0,-5.9998,-6.2933,-6.3565,-6.3788,-6.3788,-6.3283,-6.1654,-5.86,0.0,0.0,0.0,0.0,0.0,0.0,0.0,0.0,0.0,0.0,0.0,0.0,0.0,0.0,0.0,0.0,0.0,0.0,0.0,0.0,0.0,0.0,0.0,0.0,0.0,0.0,0.0,0.0,0.0,0.0,0.0,0.0,0.0,0.0,0.0,0.0,0.0,0.0,0.0,0.0,0.0,0.0,0.0,0.0,0.0,0.0,0.0,0.0,0.0,0.0,0.0,0.0,0.0,0.0,0.0,0.0,0.0,0.0,0.0,0.0,0.0,0.0,0.0,0.0,0.0,0.0,0.0,0.0,0.0,0.0,0.0,0.0,0.0,0.0,0.0,0.0,0.0,0.0,0.0,0.0,0.0,0.0,0.0,0.0,0.0,0.0,0.0,0.0,0.0,0.0,0.0,0.0,0.0,0.0,0.0,0.0,0.0,0.0,0.0,0.0,0.0,0.0,0.0,-5.8676,-6.0114,-6.3249,-6.3602,-6.3602,-6.3602,-6.2712,-6.109,-5.8563,-5.6328,0.0,0.0,0.0,0.0,0.0,0.0,0.0,0.0,0.0,0.0,0.0,0.0,0.0,0.0,0.0,0.0,0.0,0.0,0.0,0.0,0.0,0.0,0.0,0.0,0.0,0.0,0.0,0.0,0.0,0.0,0.0,0.0,0.0,0.0,0.0,0.0,0.0,0.0,0.0,0.0,0.0,0.0,0.0,0.0,0.0,0.0,0.0,0.0,0.0,0.0,0.0,0.0,0.0,0.0,0.0,0.0,0.0,0.0,0.0,0.0,0.0,0.0,0.0,0.0,0.0,0.0,0.0,0.0,0.0,0.0,0.0,0.0,0.0,0.0,0.0,0.0,0.0,0.0,0.0,0.0,0.0,0.0,0.0,0.0,0.0,0.0,0.0,0.0,0.0,0.0,0.0,0.0,0.0,0.0,0.0,0.0,0.0,0.0,0.0,0.0,0.0,0.0,-6.0224,-6.0954,-6.3485,-6.3669,-6.3602,-6.3602,-6.2016,-6.0189,-5.8249,-5.5155,0.0,0.0,0.0,0.0,0.0,0.0,0.0,0.0,0.0,0.0,0.0,0.0,0.0,0.0,0.0,0.0,0.0,0.0,0.0,0.0,0.0,0.0,0.0,0.0,0.0,0.0,0.0,0.0,0.0,0.0,0.0,0.0,0.0,0.0,0.0,0.0,0.0,0.0,0.0,0.0,0.0,0.0,0.0,0.0,0.0,0.0,0.0,0.0,0.0,0.0,0.0,0.0,0.0,0.0,0.0,0.0,0.0,0.0,0.0,0.0,0.0,0.0,0.0,0.0,0.0,0.0,0.0,0.0,0.0,0.0,0.0,0.0,0.0,0.0,0.0,0.0,0.0,0.0,0.0,0.0,0.0,0.0,0.0,0.0,0.0,0.0,0.0,0.0,0.0,0.0,0.0,0.0,0.0,0.0,0.0,0.0,0.0,0.0,0.0,0.0,0.0,0.0,-6.0998,-6.3024,-6.4056,-6.383,-6.3602,-6.3602,-6.1006,-5.8759,-5.738,-5.3799,0.0,0.0,0.0,0.0,0.0,0.0,0.0,0.0,0.0,0.0,0.0,0.0,0.0,0.0,0.0,0.0,0.0,0.0,0.0,0.0,0.0,0.0,0.0,0.0,0.0,0.0,0.0,0.0,0.0,0.0,0.0,0.0,0.0,0.0,0.0,0.0,0.0,0.0,0.0,0.0,0.0,0.0,0.0,0.0,0.0,0.0,0.0,0.0,0.0,0.0,0.0,0.0,0.0,0.0,0.0,0.0,0.0,0.0,0.0,0.0,0.0,0.0,0.0,0.0,0.0,0.0,0.0,0.0,0.0,0.0,0.0,0.0,0.0,0.0,0.0,0.0,0.0,0.0,0.0,0.0,0.0,0.0,0.0,0.0,0.0,0.0,0.0,0.0,0.0,0.0,0.0,0.0,0.0,0.0,0.0,0.0,0.0,0.0,0.0,0.0,0.0,0.0,-6.0088,-6.1979,-6.4006,-6.358,-6.307,-6.2881,-6.027,-5.7969,-5.6427,0.0,0.0,0.0,0.0,0.0,0.0,0.0,0.0,0.0,0.0,0.0,0.0,0.0,0.0,0.0,0.0,0.0,0.0,0.0,0.0,0.0,0.0,0.0,0.0,0.0,0.0,0.0,0.0,0.0,0.0,0.0,0.0,0.0,0.0,0.0,0.0,0.0,0.0,0.0,0.0,0.0,0.0,0.0,0.0,0.0,0.0,0.0,0.0,0.0,0.0,0.0,0.0,0.0,0.0,0.0,0.0,0.0,0.0,0.0,0.0,0.0,0.0,0.0,0.0,0.0,0.0,0.0,0.0,0.0,0.0,0.0,0.0,0.0,0.0,0.0,0.0,0.0,0.0,0.0,0.0,0.0,0.0,0.0,0.0,0.0,0.0,0.0,0.0,0.0,0.0,0.0,0.0,0.0,0.0,0.0,0.0,0.0,0.0,0.0,0.0,0.0,0.0,-5.7644,-5.9545,-6.1374,-6.3333,-6.2935,-6.2266,-6.1655,-5.9137,-5.686,-5.5233,0.0,0.0,0.0,0.0,0.0,0.0,0.0,0.0,0.0,0.0,0.0,0.0,0.0,0.0,0.0,0.0,0.0,0.0,0.0,0.0,0.0,0.0,0.0,0.0,0.0,0.0,0.0,0.0,0.0,0.0,0.0,0.0,0.0,0.0,0.0,0.0,0.0,0.0,0.0,0.0,0.0,0.0,0.0,0.0,0.0,0.0,0.0,0.0,0.0,0.0,0.0,0.0,0.0,0.0,0.0,0.0,0.0,0.0,0.0,0.0,0.0,0.0,0.0,0.0,0.0,0.0,0.0,0.0,0.0,0.0,0.0,0.0,0.0,0.0,0.0,0.0,0.0,0.0,0.0,0.0,0.0,0.0,0.0,0.0,0.0,0.0,0.0,0.0,0.0,0.0,0.0,0.0,0.0,0.0,0.0,0.0,0.0,0.0,0.0,0.0,0.0,0.0,-5.6854,-5.9632,-6.169,-6.2172,-6.1901,-6.1217,-6.0003,-5.7492,-5.5318,0.0,0.0,0.0,0.0,0.0,0.0,0.0,0.0,0.0,0.0,0.0,0.0,0.0,0.0,0.0,0.0,0.0,0.0,0.0,0.0,0.0,0.0,0.0,0.0,0.0,0.0,0.0,0.0,0.0,0.0,0.0,0.0,0.0,0.0,0.0,0.0,0.0,0.0,0.0,0.0,0.0,0.0,0.0,0.0,0.0,0.0,0.0,0.0,0.0,0.0,0.0,0.0,0.0,0.0,0.0,0.0,0.0,0.0,0.0,0.0,0.0,0.0,0.0,0.0,0.0,0.0,0.0,0.0,0.0,0.0,0.0,0.0,0.0,0.0,0.0,0.0,0.0,0.0,0.0,0.0,0.0,0.0,0.0,0.0,0.0,0.0,0.0,0.0,0.0,0.0,0.0,0.0,0.0,0.0,0.0,0.0,0.0,0.0,0.0,0.0,0.0,0.0,0.0,-5.6731,-5.9345,-6.1421,-6.2506,-6.1771,-6.0712,-5.9514,-5.6867,-5.4568,-5.2821,0.0,0.0,0.0,0.0,0.0,0.0,0.0,0.0,0.0,0.0,0.0,0.0,0.0,0.0,0.0,0.0,0.0,0.0,0.0,0.0,0.0,0.0,0.0,0.0,0.0,0.0,0.0,0.0,0.0,0.0,0.0,0.0,0.0,0.0,0.0,0.0,0.0,0.0,0.0,0.0,0.0,0.0,0.0,0.0,0.0,0.0,0.0,0.0,0.0,0.0,0.0,0.0,0.0,0.0,0.0,0.0,0.0,0.0,0.0,0.0,0.0,0.0,0.0,0.0,0.0,0.0,0.0,0.0,0.0,0.0,0.0,0.0,0.0,0.0,0.0,0.0,0.0,0.0,0.0,0.0,0.0,0.0,0.0,0.0,0.0,0.0,0.0,0.0,0.0,0.0,0.0,0.0,0.0,0.0,0.0,0.0,0.0,0.0,0.0,0.0,0.0,0.0,-5.5761,-5.8511,-6.0416,-6.0728,-6.0425,-5.9522,-5.7862,-5.6182,-5.4261,-5.2084,0.0,0.0,0.0,0.0,0.0,0.0,0.0,0.0,0.0,0.0,0.0,0.0,0.0,0.0,0.0,0.0,0.0,0.0,0.0,0.0,0.0,0.0,0.0,0.0,0.0,0.0,0.0,0.0,0.0,0.0,0.0,0.0,0.0,0.0,0.0,0.0,0.0,0.0,0.0,0.0,0.0,0.0,0.0,0.0,0.0,0.0,0.0,0.0,0.0,0.0,0.0,0.0,0.0,0.0,0.0,0.0,0.0,0.0,0.0,0.0,0.0,0.0,0.0,0.0,0.0,0.0,0.0,0.0,0.0,0.0,0.0,0.0,0.0,0.0,0.0,0.0,0.0,0.0,0.0,0.0,0.0,0.0,0.0,0.0,0.0,0.0,0.0,0.0,0.0,0.0,0.0,0.0,0.0,0.0,0.0,0.0,0.0,0.0,0.0,0.0,0.0,0.0,-5.4376,-5.728,-5.888,-5.785,-5.844,-5.7972,-5.5751,-5.5441,-5.4235,-5.1565,0.0,0.0,0.0,0.0,0.0,0.0,0.0,0.0,0.0,0.0,0.0,0.0,0.0,0.0,0.0,0.0,0.0,0.0,0.0,0.0,0.0,0.0,0.0,0.0,0.0,0.0,0.0,0.0,0.0,0.0,0.0,0.0,0.0,0.0,0.0,0.0,0.0,0.0,0.0,0.0,0.0,0.0,0.0,0.0,0.0,0.0,0.0,0.0,0.0,0.0,0.0,0.0,0.0,0.0,0.0,0.0,0.0,0.0,0.0,0.0,-5.8012,-5.683,0.0,0.0,0.0,0.0,0.0,0.0,0.0,0.0,0.0,0.0,0.0,0.0,0.0,0.0,0.0,0.0,0.0,0.0,0.0,0.0,0.0,0.0,0.0,0.0,0.0,0.0,0.0,0.0,0.0,0.0,0.0,0.0,0.0,0.0,0.0,0.0,0.0,0.0,0.0,0.0,-5.4299,-5.628,-5.7712,-5.8123,-5.8062,-5.7396,-5.6015,-5.5084,-5.3654,-5.1527,-4.9541,0.0,0.0,0.0,0.0,0.0,0.0,0.0,0.0,0.0,0.0,0.0,0.0,0.0,0.0,0.0,0.0,0.0,0.0,0.0,0.0,0.0,0.0,0.0,0.0,0.0,0.0,0.0,0.0,0.0,0.0,0.0,0.0,0.0,0.0,0.0,0.0,0.0,0.0,0.0,0.0,0.0,0.0,0.0,0.0,0.0,0.0,0.0,0.0,0.0,0.0,0.0,0.0,0.0,0.0,0.0,0.0,0.0,0.0,0.0,-5.9997,-5.883,0.0,0.0,0.0,0.0,0.0,0.0,0.0,0.0,0.0,0.0,0.0,0.0,0.0,0.0,0.0,0.0,0.0,0.0,0.0,0.0,0.0,0.0,0.0,0.0,0.0,0.0,0.0,0.0,0.0,0.0,0.0,0.0,0.0,0.0,0.0,0.0,0.0,0.0,0.0,0.0,-5.3664,-5.5338,-5.6549,-5.6992,-5.7243,-5.6894,-5.5769,-5.4747,-5.3443,-5.1753,-4.9683,0.0,0.0,0.0,0.0,0.0,0.0,0.0,0.0,0.0,0.0,0.0,0.0,0.0,0.0,0.0,0.0,0.0,0.0,0.0,0.0,0.0,0.0,0.0,0.0,0.0,0.0,0.0,0.0,0.0,0.0,0.0,0.0,0.0,0.0,0.0,0.0,0.0,0.0,0.0,0.0,0.0,0.0,0.0,0.0,0.0,0.0,0.0,0.0,0.0,0.0,0.0,0.0,0.0,-6.4582,-6.4595,-6.4459,-6.3708,-6.3595,-6.3942,-6.2384,-6.1451,-6.0916,-5.9377,0.0,0.0,0.0,0.0,0.0,0.0,0.0,0.0,0.0,0.0,0.0,0.0,0.0,0.0,0.0,0.0,0.0,0.0,0.0,0.0,0.0,0.0,-5.5722,-5.4895,-5.5876,-5.6156,-5.3029,0.0,0.0,0.0,0.0,0.0,0.0,0.0,0.0,0.0,0.0,0.0,-5.301,-5.4549,-5.553,-5.5684,-5.6233,-5.6153,-5.5161,-5.4276,-5.3177,-5.1829,-5.0315,-4.8689,0.0,0.0,0.0,0.0,0.0,0.0,0.0,0.0,0.0,0.0,0.0,0.0,0.0,0.0,0.0,0.0,0.0,0.0,0.0,0.0,0.0,0.0,0.0,0.0,0.0,0.0,0.0,0.0,0.0,0.0,0.0,0.0,-6.1152,-6.1484,0.0,0.0,0.0,0.0,0.0,0.0,0.0,0.0,0.0,0.0,0.0,0.0,0.0,-6.4295,-6.4309,-6.5047,-6.5394,-6.5345,-6.6089,-6.645,-6.6421,-6.6124,-6.603,-6.6074,-6.5606,0.0,-6.1851,-6.0858,0.0,0.0,0.0,0.0,0.0,0.0,0.0,0.0,0.0,0.0,0.0,0.0,0.0,0.0,0.0,0.0,0.0,0.0,0.0,0.0,0.0,0.0,-5.6618,-5.5742,-5.6291,-5.6483,-5.4568,-5.4241,-5.3587,-5.102,-5.1183,-5.1221,0.0,0.0,0.0,0.0,0.0,0.0,-5.3068,-5.4049,-5.4934,-5.5626,-5.5184,-5.4644,-5.4205,-5.3365,-5.238,-5.1187,-5.0246,-4.9319,-4.8359,-4.682,0.0,0.0,0.0,0.0,0.0,0.0,0.0,0.0,0.0,0.0,0.0,0.0,0.0,0.0,0.0,0.0,0.0,0.0,0.0,0.0,0.0,0.0,0.0,0.0,0.0,0.0,0.0,0.0,0.0,-6.0449,-6.1875,-6.2363,-6.3203,-6.3359,0.0,0.0,0.0,0.0,0.0,0.0,0.0,0.0,0.0,-6.5019,-6.5039,-6.5273,-6.576,-6.6131,-6.6304,-6.6234,-6.6612,-6.6809,-6.6808,-6.6702,-6.661,-6.649,-6.6384,-6.5577,-6.4243,-6.281,-6.1704,-6.0781,0.0,0.0,0.0,0.0,-5.6934,-5.6742,-5.7569,-5.7607,-5.7203,-5.6607,0.0,0.0,0.0,0.0,0.0,0.0,0.0,-5.401,-5.4395,-5.5742,-5.6907,-5.6522,-5.7088,-5.7396,-5.6165,-5.5906,-5.5145,-5.2606,-5.2395,-5.2231,-5.1029,-5.0741,0.0,0.0,0.0,-5.1529,-5.2346,-5.2799,-5.3356,-5.4203,-5.3972,-5.3719,-5.3552,-5.2754,-5.1963,-5.1326,-5.0495,-4.9803,-4.9299,-4.8137,-4.6834,0.0,0.0,0.0,0.0,0.0,0.0,0.0,0.0,0.0,0.0,0.0,0.0,0.0,0.0,0.0,0.0,0.0,0.0,0.0,0.0,0.0,0.0,0.0,0.0,0.0,0.0,0.0,0.0,-6.1523,-6.2695,-6.3555,-6.4238,-6.4121,0.0,0.0,0.0,0.0,0.0,0.0,-6.5293,-6.5508,-6.5918,-6.6543,-6.6582,-6.6797,-6.7226,-6.7226,-6.7109,-6.683,-6.6807,-6.6809,-6.6798,-6.6806,-6.6712,-6.6549,-6.6503,-6.6367,-6.6019,-6.4378,-6.331,-6.257,-6.0839,-6.0165,-6.0069,-5.9242,-5.8934,-5.9031,-5.9627,-5.9685,-5.9338,-5.83,-5.7541,-5.6656,-5.4741,0.0,0.0,0.0,0.0,-5.4549,-5.4741,-5.5906,-5.6945,-5.6714,-5.7319,-5.7723,-5.6868,-5.6676,-5.606,-5.3933,-5.353,-5.3183,-5.2096,-5.1395,0.0,-5.0731,-5.0712,-5.0991,-5.1788,-5.1904,-5.2231,-5.3106,-5.301,-5.2876,-5.2876,-5.2087,-5.1516,-5.1315,-5.068,-5.0237,-5.0025,-4.9466,-4.8414,-4.6858,0.0,0.0,0.0,0.0,0.0,0.0,0.0,0.0,0.0,0.0,0.0,0.0,0.0,0.0,0.0,0.0,0.0,0.0,0.0,0.0,0.0,0.0,0.0,0.0,0.0,0.0,0.0,0.0,0.0,-6.5371,-6.5508,0.0,0.0,0.0,0.0,-6.541,-6.6289,-6.7129,-6.7969,-6.8789,-6.9238,-6.9219,-6.9277,-6.8926,-6.8144,-6.8125,-6.7715,-6.6894,-6.6831,-6.6797,-6.6792,-6.6801,-6.6759,-6.6677,-6.6556,-6.6423,-6.6203,-6.5159,-6.464,-6.4301,-6.2627,-6.1966,-6.187,-6.0993,-6.0666,-6.0685,-6.0723,-6.0185,-5.9627,-6.0358,-5.8984,-5.6983,-5.6849,-5.5126,0.0,0.0,-5.4472,-5.4684,-5.5434,-5.6329,-5.6791,-5.5953,-5.6426,-5.683,-5.5953,-5.5761,-5.5491,-5.4607,-5.4434,-5.3895,-5.2192,0.0,-5.1587,-5.0827,-5.0712,-5.0991,-5.1788,-5.1904,-5.2231,-5.3106,-5.2462,-5.1962,-5.1962,-5.1221,-5.0741,-5.0731,-5.0692,-5.0673,-5.0663,-5.0625,-5.0054,-4.888,-4.7256,0.0,0.0,0.0,0.0,0.0,0.0,0.0,0.0,0.0,0.0,0.0,0.0,0.0,0.0,0.0,0.0,0.0,0.0,0.0,0.0,0.0,0.0,0.0,0.0,0.0,0.0,0.0,0.0,-6.5508,-6.6094,0.0,-6.4863,-6.5996,-6.6719,-6.6465,-6.7754,-6.8691,-6.8965,-6.8789,-6.8887,-6.9375,-6.8926,-6.8515,-6.8203,-6.8203,-6.7754,-6.6894,-6.6874,-6.6831,-6.6797,-6.6792,-6.6782,-6.6755,-6.6677,-6.6489,-6.626,-6.5915,-6.5638,-6.532,-6.4166,-6.3705,-6.3608,-6.2724,-6.207,-6.1639,-6.1639,-6.1069,-6.03,-6.0031,-5.8992,-5.7838,-5.7838,-5.6799,-5.5703,-5.6022,-5.5703,-5.5338,-5.5626,-5.5934,-5.6088,-5.5761,-5.5934,-5.6069,-5.5761,-5.5703,-5.5607,-5.5318,-5.4857,-5.4299,-5.3683,-5.2635,-5.1788,-5.1529,-5.1029,-5.0808,-5.1087,-5.1125,-5.1241,-5.1548,-5.1298,-5.1125,-5.1125,-5.0856,-5.0712,-5.0712,-5.0712,-5.0712,-5.0712,-5.0712,-5.025,-4.9277,-4.8125,-4.6319,0.0,0.0,0.0,0.0,0.0,0.0,0.0,0.0,0.0,0.0,0.0,0.0,0.0,0.0,0.0,0.0,0.0,0.0,0.0,0.0,0.0,0.0,0.0,0.0,0.0,-6.4004,-6.5058,-6.5937,-6.6816,-6.6875,-6.5723,-6.7441,-6.8398,-6.7793,-6.9082,-6.9883,-6.9844,-6.9609,-6.9726,-7.0254,-6.9765,-6.9219,-6.8633,-6.8613,-6.8027,-6.6894,-6.6894,-6.6854,-6.6805,-6.6795,-6.6809,-6.6803,-6.675,-6.6593,-6.6353,-6.6314,-6.6167,-6.5905,-6.5281,-6.5032,-6.4936,-6.407,-6.3224,-6.2416,-6.187,-6.1293,-6.0704,-6.0127,-5.9377,-5.8704,-5.8704,-5.7915,-5.7003,-5.7003,-5.6368,-5.5703,-5.5703,-5.5703,-5.5703,-5.5703,-5.5703,-5.5703,-5.5703,-5.5703,-5.5703,-5.5703,-5.5261,-5.4818,-5.4549,-5.3299,-5.2231,-5.1942,-5.1221,-5.0712,-5.0712,-5.0712,-5.0712,-5.0712,-5.0712,-5.0712,-5.0712,-5.0712,-5.0712,-5.0712,-5.0712,-5.0712,-5.0712,-5.0423,-4.999,-4.9413,-4.8279,-4.68,-4.4969,0.0,0.0,0.0,0.0,0.0,0.0,0.0,0.0,0.0,0.0,0.0,0.0,0.0,0.0,0.0,0.0,0.0,0.0,0.0,0.0,0.0,0.0,0.0,-6.2969,-6.4531,-6.5918,-6.6797,-6.7676,-6.8183,-6.8164,-6.9004,-6.9492,-6.9414,-7.0234,-7.0742,-7.0742,-7.1523,-7.1972,-7.1992,-7.1972,-7.1172,-6.9512,-6.9433,-6.8555,-6.6894,-6.6894,-6.6873,-6.6806,-6.6806,-6.6805,-6.6806,-6.6803,-6.6693,-6.6497,-6.6356,-6.6225,-6.6088,-6.5938,-6.5897,-6.5782,-6.4916,-6.4032,-6.3031,-6.1377,-6.08,-6.08,-6.08,-6.0223,-5.955,-5.9511,-5.8338,-5.7041,-5.7003,-5.6368,-5.5703,-5.5703,-5.5703,-5.5703,-5.5703,-5.5703,-5.5703,-5.5703,-5.5703,-5.5703,-5.5703,-5.5703,-5.5453,-5.4664,-5.3799,-5.2914,-5.2077,-5.1221,0.0,-5.0712,-5.0712,-5.0712,-5.0712,-5.0712,-5.0712,-5.0712,-5.0712,-5.0712,-5.0712,-5.0712,-5.0712,-5.0712,-4.9894,-4.9433,-4.9433,-4.7798,-4.6942,-4.6942,0.0,0.0,0.0,0.0,0.0,0.0,0.0,0.0,0.0,0.0,0.0,0.0,0.0,0.0,0.0,0.0,0.0,0.0,0.0,0.0,0.0,-6.2461,-6.3887,-6.4765,-6.5293,-6.5918,-6.6797,-6.7676,-6.7949,-6.7324,-6.914,-7.0097,-6.9453,-7.0781,-7.164,-7.164,-7.1269,-7.1347,-7.1972,-7.1387,-7.0566,-6.9512,-6.9433,-6.8555,-6.6894,-6.6894,-6.6894,-6.6874,-6.6829,-6.6793,-6.6801,-6.6794,-6.6693,-6.6497,-6.6356,-6.6225,-6.6088,-6.5938,-6.5897,-6.5782,-6.4916,-6.3685,-6.2262,-6.1185,-6.08,-6.08,-6.08,-6.0646,-6.0319,-5.9685,-5.8781,-5.7819,-5.7176,-5.6368,-5.5703,-5.5703,-5.5703,-5.5703,-5.5703,-5.5703,-5.5703,-5.5703,-5.5703,-5.5703,-5.5703,-5.5703,-5.5626,-5.5415,-5.4164,-5.3126,-5.2876,-5.1625,-5.0712,-5.0712,-5.0712,-5.0712,-5.0712,-5.0712,-5.0712,-5.0712,-5.0712,-5.0712,-5.0712,-5.0712,-5.0712,-5.0712,-5.0481,-5.0346,-5.0346,-4.8644,-4.7778,0.0,0.0,0.0,0.0,0.0,0.0,0.0,0.0,0.0,0.0,0.0,0.0,0.0,0.0,0.0,0.0,0.0,0.0,0.0,0.0,0.0,0.0,-6.3945,-6.5156,-6.6015,-6.6133,-6.6328,-6.6836,-6.7676,-6.8144,-6.8008,-6.9629,-7.0644,-7.0508,-7.1426,-7.1992,-7.1992,-7.1523,-7.1484,-7.1972,-7.1504,-7.084,-7.0019,-6.9609,-6.873,-6.7441,-6.707,-6.6894,-6.6894,-6.6853,-6.6827,-6.6809,-6.6804,-6.6725,-6.6605,-6.6384,-6.6251,0.0,0.0,0.0,0.0,0.0,-6.3224,-6.1985,-6.1089,-6.08,-6.08,-6.08,-6.055,-6.0165,-5.9646,-5.8684,-5.7646,-5.7137,-5.6368,-5.5703,-5.5703,-5.5703,-5.5703,-5.5703,-5.5703,-5.5703,-5.5703,-5.5703,-5.5703,-5.5703,-5.5434,0.0,-5.5203,-5.4087,-5.3087,-5.2712,-5.1529,-5.0712,-5.0712,-5.0712,-5.0712,-5.0712,-5.0712,-5.0712,-5.0712,-5.0712,0.0,0.0,0.0,-5.0539,-5.0164,-5.0173,0.0,0.0,0.0,0.0,0.0,0.0,0.0,0.0,-4.8086,-4.824,0.0,0.0,0.0,0.0,0.0,0.0,0.0,0.0,0.0,0.0,0.0,0.0,0.0,0.0,0.0,0.0,-6.5176,-6.6015,-6.6797,-6.6894,-6.6894,-6.6894,-6.7754,-6.8613,-6.9297,-7.0254,-7.1133,-7.1797,-7.1933,-7.1992,-7.1992,-7.1992,0.0,0.0,0.0,-7.1523,-7.0566,-6.9785,-6.8945,-6.8047,-6.7265,-6.6894,-6.6894,-6.6894,-6.6854,-6.6805,-6.6807,-6.6798,-6.6765,-6.6443,-6.6276,-6.6226,-6.5886,-6.5686,-6.5416,-6.3782,-6.2647,-6.1851,-6.1069,0.0,0.0,-6.08,-6.0204,-5.9473,-5.9396,-5.8261,-5.6983,-5.6887,-5.631,-5.5703,-5.5703,-5.5703,-5.5703,-5.5703,-5.5703,-5.5703,-5.5703,-5.5703,-5.5665,-5.5568,-5.4991,-5.4434,-5.4241,-5.3568,-5.2799,-5.2019,-5.1221,-5.0712,-5.0712,-5.0712,-5.0712,-5.0712,0.0,0.0,-5.0712,-5.0721,-5.0721,-5.0721,-5.0721,-5.0375,-4.9605,-4.9566,-4.9566,-4.9566,-4.9566,-4.9951,-5.0721,-5.0721,-5.0721,-5.0664,-4.8393,-4.8143,0.0,0.0,0.0,0.0,0.0,0.0,0.0,0.0,0.0,0.0,0.0,0.0,0.0,0.0,0.0,-6.5156,-6.6074,-6.6719,-6.6875,-6.6894,-6.6894,-6.6894,-6.8281,-6.9043,-6.8496,-7.0449,-7.1523,-7.0996,-7.1601,-7.1992,-7.1992,-7.1992,-7.1992,-7.1992,-7.1992,-7.123,-6.9668,-6.9472,-6.8633,-6.7148,-6.6972,0.0,-6.6894,-6.6894,-6.6854,-6.6805,-6.6797,-6.6807,-6.6768,-6.6451,-6.6167,-6.5909,-6.5146,-6.4416,-6.3685,-6.2704,-6.1793,-6.1031,-6.0858,-6.08,-6.08,-6.08,-6.0204,-5.9377,-5.8723,-5.78,0.0,-5.6156,-5.5818,-5.5703,-5.5703,-5.5703,-5.5703,-5.5703,-5.5703,-5.5703,-5.5703,-5.5703,-5.5511,-5.4857,-5.4607,-5.4049,-5.2654,-5.225,-5.2096,-5.1923,-5.1221,-5.0712,-5.0712,-5.0712,-5.0712,-5.0712,-5.074,-5.0775,-5.0775,-5.0836,-5.085,-5.085,-5.085,-5.0792,-5.0618,-5.0599,-5.0599,-5.0599,-5.0599,-5.0695,-5.085,-5.085,-5.085,-5.085,-5.03,-5.0216,0.0,0.0,0.0,0.0,0.0,0.0,0.0,0.0,0.0,0.0,0.0,-6.1973,-6.2832,0.0,-6.5234,-6.6113,-6.6621,-6.6894,-6.6894,-6.6894,-6.6894,-6.6894,-6.8047,-6.8847,-6.8808,-7.0351,-7.1347,-7.1347,-7.1758,-7.1992,-7.1992,-7.1992,-7.1992,-7.1992,-7.1582,-7.0937,-7.0058,-6.9219,-6.8379,-6.7558,-6.7109,-6.6894,-6.6894,-6.6894,-6.6874,-6.6852,-6.6806,-6.6818,-6.6826,-6.6555,-6.6037,-6.5361,-6.4456,-6.3766,-6.3192,-6.2397,-6.155,-6.08,-6.08,-6.08,-6.08,-6.08,-5.9953,-5.8871,-5.8437,-5.7431,-5.6346,-5.585,-5.5703,-5.5703,-5.5703,-5.5703,-5.5703,-5.5703,-5.5703,-5.5703,-5.5703,-5.5376,-5.4972,-5.4587,-5.3799,-5.2933,-5.2038,-5.1568,-5.1298,-5.1298,-5.0981,-5.0749,-5.0749,-5.0785,-5.0793,-5.0793,-5.0836,-5.0841,-5.0841,-5.0874,-5.0898,-5.0898,-5.0898,-5.0898,-5.0898,-5.0898,-5.0898,-5.0898,-5.0898,-5.0898,-5.0898,-5.0898,-5.0898,-5.0898,-5.0906,-5.0882,0.0,0.0,0.0,0.0,0.0,0.0,0.0,-6.1289,-6.1445,-6.25,-6.3262,-6.3965,-6.4687,-6.5527,-6.6348,-6.7031,-6.7285,-6.7344,-6.7187,-6.7148,-6.7148,-6.7148,-6.791,-6.875,-6.957,-7.0449,-7.123,-7.1953,-7.1992,-7.1992,-7.1992,-7.1992,-7.1992,-7.1992,-7.1152,-7.0625,-7.0469,-6.8965,-6.8125,-6.7949,-6.7246,-6.6894,-6.6894,-6.6894,-6.6894,-6.6894,-6.6831,-6.6823,-6.6828,-6.667,-6.5959,-6.4896,-6.3813,-6.3293,-6.3041,-6.2163,-6.1412,-6.0831,-6.0831,-6.0827,-6.0823,-6.0856,-5.9754,-5.8404,-5.8382,-5.7111,-5.5659,-5.5557,-5.5528,-5.5538,-5.5538,-5.5653,-5.5779,-5.5779,-5.5758,-5.5689,-5.5545,-5.4984,-5.4395,-5.4068,-5.2886,-5.1895,-5.1732,-5.1154,-5.0721,-5.0721,-5.0767,-5.0801,-5.0819,-5.0858,-5.0898,-5.0898,-5.0914,-5.0929,-5.0963,-5.0971,-5.0971,-5.0971,-5.0971,-5.0971,-5.0971,-5.0971,-5.0944,-5.0937,-5.0944,-5.0944,-5.0937,-5.0937,-5.0937,-5.0937,-5.0995,-5.0988,-5.543,-5.5234,-5.6055,-5.9199,-5.9512,-6.0098,0.0,-6.4414,-6.4336,-6.5976,-6.6406,-6.6484,-6.6582,-6.7324,-6.7949,-6.8047,-6.8691,-6.8945,-6.8164,-6.8047,-6.8047,-6.8047,-6.8769,-6.9609,-7.0469,-7.1347,-7.1894,-7.1992,-7.1992,-7.1992,-7.1992,-7.1992,-7.1992,-7.1992,-7.1152,-7.0351,-6.9648,-6.8672,-6.7812,-6.7031,-6.6953,-6.6894,-6.6894,-6.6894,-6.6894,-6.6894,-6.6893,-6.6791,-6.6631,-6.6614,-6.5964,-6.4846,-6.3259,-6.2614,-6.2454,-6.134,-6.0955,-6.0983,-6.0983,-6.0901,-6.0842,-6.1079,-5.991,-5.8433,-5.859,-5.6912,-5.4922,-5.4888,-5.4948,-5.4989,-5.4989,-5.552,-5.607,-5.607,-5.5959,-5.5687,-5.4961,-5.4651,-5.4049,-5.2481,-5.2136,-5.1835,-5.1054,-5.0902,-5.0869,-5.0793,-5.0793,-5.0827,-5.0874,-5.0898,-5.0898,-5.0898,-5.0947,-5.103,-5.1153,-5.1178,-5.1178,-5.1178,-5.1178,-5.1178,-5.1178,-5.1178,-5.1146,-5.1082,-5.1146,-5.1146,-5.1082,-5.1082,-5.1082,-5.1076,-5.1088,-5.1055,-5.7539,-5.7578,-5.8144,-6.0566,-6.1289,-6.2148,-6.4961,-6.5312,-6.541,-6.664,-6.6894,-6.6894,-6.6894,-6.7617,-6.8203,-6.8203,-6.8926,-6.9375,-6.9004,-6.8515,-6.8379,-6.8847,-6.8789,-6.9238,-7.0566,-7.1484,-7.1992,-7.1992,-7.1992,-7.1992,-7.1992,-7.1992,-7.1777,-7.1269,-7.039,-6.9551,-6.875,-6.7871,-6.7265,-6.6894,-6.6894,-6.6894,-6.6894,-6.6894,-6.6894,-6.6894,-6.6893,-6.6845,-6.6763,-6.6729,-6.5574,-6.377,-6.2978,-6.2107,-6.1197,-6.0577,-6.0666,-6.1128,-6.1128,-6.1079,-6.1044,-6.117,-6.0039,-5.8644,-5.8685,-5.6932,-5.4911,-5.4874,-5.4887,-5.49,-5.49,-5.5508,-5.6097,-5.6097,-5.607,-5.5787,-5.4951,-5.4343,-5.3591,-5.2318,-5.1752,-5.1331,-5.0935,-5.0882,-5.0906,-5.0902,-5.0929,-5.0937,-5.0947,-5.1029,-5.1075,-5.1075,-5.1102,-5.1133,-5.1196,-5.1165,-5.1165,-5.1196,-5.1166,-5.116,-5.1196,-5.1165,-5.1159,-5.1165,-5.1159,-5.1127,-5.1095,-5.1095,-5.1101,-5.1101,-5.1107,-5.1081,-5.9023,-5.9199,-5.9668,-6.1582,-6.2539,-6.3515,-6.5508,-6.5957,-6.6133,-6.6777,-6.6894,-6.6894,-6.6894,-6.7812,-6.8555,-6.8535,-6.9453,-7.0117,-6.9863,-6.9082,-6.875,-6.9336,-6.8691,-6.8769,-7.0234,-7.0937,-7.1504,-7.1972,-7.1777,-7.1758,-7.1992,-7.1992,-7.1601,-7.0722,-6.9844,-6.9004,-6.8203,-6.7344,-6.6894,-6.6894,-6.6894,-6.6894,-6.6894,-6.6894,-6.6894,-6.6894,-6.6894,-6.6892,-6.6891,-6.6844,-6.5327,-6.2986,-6.2886,-6.1852,-6.0383,-6.0181,-6.061,-6.1285,-6.1285,-6.124,-6.122,-6.1316,-6.0186,-5.8793,-5.8813,-5.7044,-5.4996,-5.4727,-5.4824,-5.4946,-5.4713,-5.5438,-5.6241,-5.6241,-5.6195,-5.5849,-5.4769,-5.405,-5.3255,-5.209,-5.1425,-5.1036,-5.0977,-5.0977,-5.0998,-5.105,-5.1069,-5.1069,-5.1069,-5.1133,-5.1196,-5.1171,-5.1171,-5.1165,-5.1172,-5.1121,-5.1127,-5.1165,-5.1134,-5.1153,-5.1196,-5.1139,-5.1133,-5.1171,-5.1127,-5.1095,-5.1102,-5.1081,-5.1067,-5.106,-5.1053,-5.1046,-5.9199,-5.9199,-5.9805,-6.2324,-6.2988,-6.3672,-6.6269,-6.6855,-6.6875,-6.6894,-6.6894,-6.6894,-6.6894,-6.8301,-6.9433,-6.9375,-7.0801,-7.1621,-7.0781,-6.9902,-6.9375,-6.9394,-6.8691,-6.8555,-6.9453,-6.9551,-7.0254,-7.1875,-7.1211,-7.1113,-7.1953,-7.1992,-7.1601,-7.0722,-6.9844,-6.9004,-6.8203,-6.7344,-6.6894,-6.6894,-6.6894,-6.6894,-6.6894,-6.6894,-6.6894,-6.6894,-6.6894,-6.6894,-6.6892,-6.6891,-6.5358,-6.3011,-6.3002,-6.1939,-6.0394,-6.0386,-6.0857,-6.1486,-6.1486,-6.1359,-6.1253,-6.1576,-6.0379,-5.884,-5.9033,-5.7255,-5.5022,-5.4254,-5.464,-5.5099,-5.4259,-5.5294,-5.6582,-5.6582,-5.6439,-5.5831,-5.4197,-5.372,-5.3089,-5.1378,-5.1111,-5.1172,-5.1118,-5.1146,-5.1185,-5.1194,-5.1196,-5.1196,-5.1196,-5.1196,-5.119,-5.1101,-5.1101,-5.1102,-5.1107,-5.1095,-5.1095,-5.1101,-5.1165,-5.1196,-5.1202,-5.1202,-5.1165,-5.1101,-5.1095,-5.1102,-5.1101,-5.1027,-5.1005,-5.1005,-5.0941,-5.0906,-5.9199,-6.0019,-6.1348,-6.3359,-6.4297,-6.5117,-6.6562,-6.6894,-6.6894,-6.6894,-6.6894,-6.6894,-6.6894,-6.7851,-6.8808,-6.9316,-7.0371,-7.123,-7.1523,-7.0801,-7.0058,-6.9531,-6.8711,-6.832,-6.8613,-6.916,-6.9726,-7.0234,-7.0547,-7.0586,-7.0293,-7.082,-7.0488,-6.9082,-6.8769,-6.8203,-6.7344,-6.7051,-6.6894,-6.6894,-6.6894,-6.6894,-6.6894,-6.6894,-6.6894,-6.6894,-6.6894,-6.6894,-6.6855,-6.6287,-6.4839,-6.2939,-6.2366,-6.142,-6.0397,-6.0395,-6.0927,-6.1631,-6.1631,-6.1595,-6.1463,-6.0993,-6.0006,-5.8909,-5.8393,-5.6818,-5.516,-5.4938,-5.5062,-5.522,-5.4947,-5.5728,-5.6606,-5.6606,-5.6553,-5.6032,-5.429,-5.39,-5.3348,-5.1551,-5.1236,-5.1261,-5.1189,-5.1186,-5.1208,-5.1208,-5.1202,-5.1202,-5.1202,-5.1202,-5.1171,-5.1101,-5.1095,-5.1102,-5.1101,-5.1088,-5.1108,-5.1095,-5.1121,-5.1153,-5.1196,-5.1165,-5.1139,-5.1165,-5.1121,-5.1095,-5.1101,-5.0998,-5.0921,-5.0921,-5.0906,-5.0898,-6.0019,-6.1113,-6.2519,-6.3945,-6.4961,-6.582,-6.6699,-6.666,-6.6445,-6.6445,-6.6445,-6.6445,-6.6445,-6.7402,-6.8476,-6.9297,-7.0156,-7.0996,-7.1875,-7.125,-7.0508,-6.998,-6.918,-6.8652,-6.8652,-6.8887,-6.914,-6.9375,-6.9922,-6.998,-6.9433,-6.9922,-6.9609,-6.8242,-6.8203,-6.7773,-6.6914,-6.6894,-6.6894,-6.6894,-6.6894,-6.6894,-6.6894,-6.6894,-6.6894,-6.6894,-6.6894,-6.6719,-6.6387,-6.5839,-6.4393,-6.2517,-6.2257,-6.1432,-6.0432,-6.0755,-6.1219,-6.1705,-6.1701,-6.1698,-6.1601,-6.1047,-6.0065,-5.9006,-5.8426,-5.706,-5.5614,-5.5374,-5.5513,-5.5689,-5.5376,-5.5942,-5.6606,-5.6606,-5.6348,-5.5701,-5.4301,-5.3764,-5.3105,-5.1618,-5.1338,-5.1321,-5.1218,-5.1176,-5.1165,-5.1165,-5.1177,-5.1202,-5.1202,-5.1202,-5.1171,-5.1101,-5.1095,-5.1102,-5.1101,-5.1088,-5.1089,-5.1095,-5.1121,-5.1153,-5.1196,-5.1165,-5.1159,-5.1202,-5.1134,-5.1101,-5.1101,-5.0983,-5.0898,-5.0898,-5.0898,-5.0898,-6.1406,-6.2324,-6.3262,-6.4082,-6.4961,-6.582,-6.664,-6.6152,-6.5527,-6.5527,-6.5566,-6.5586,-6.5547,-6.6953,-6.8418,-6.9297,-7.0117,-7.0957,-7.1875,-7.1289,-7.0742,-7.0703,-7.0039,-6.9531,-6.9492,-6.875,-6.8555,-6.9277,-6.9336,-6.9316,-6.9277,-6.9316,-6.8965,-6.8164,-6.8125,-6.7734,-6.6914,-6.6894,-6.6894,-6.6894,-6.6894,-6.6894,-6.6894,-6.6894,-6.6894,-6.6894,-6.6855,-6.6367,-6.5586,-6.5508,-6.4003,-6.1834,-6.2635,-6.193,-6.0578,-6.141,-6.1697,-6.1696,-6.1705,-6.1701,-6.1698,-6.1659,-6.0481,-5.9087,-5.9041,-5.7846,-5.6336,-5.5589,-5.5962,-5.6411,-5.5571,-5.5981,-5.6606,-5.6606,-5.5914,-5.5031,-5.4186,-5.3356,-5.2506,-5.1579,-5.1406,-5.1366,-5.1235,-5.1142,-5.1108,-5.1108,-5.1165,-5.1196,-5.1202,-5.1202,-5.1171,-5.1101,-5.1095,-5.1102,-5.1101,-5.1095,-5.1095,-5.1095,-5.1165,-5.1202,-5.1202,-5.1202,-5.1202,-5.1202,-5.1134,-5.1101,-5.1101,-5.0963,-5.0906,-5.0906,-5.0906,-5.0906,-6.0664,-6.2324,-6.4023,-6.4238,-6.4961,-6.5664,-6.5879,-6.5254,-6.4629,-6.4629,-6.5156,-6.539,-6.4746,-6.6055,-6.7519,-6.8398,-6.9219,-7.0254,-7.1797,-7.1816,-7.1426,-7.0781,-7.0527,-7.0137,-6.9492,-6.9219,-6.8926,-6.8535,-6.8515,-6.8222,-6.7578,-6.8144,-6.8105,-6.7265,-6.7226,-6.7129,-6.6894,-6.6894,-6.6894,-6.6894,-6.6894,-6.6894,-6.6894,-6.6894,-6.6894,-6.6855,-6.6211,-6.5801,-6.5508,-6.4199,-6.3262,-6.2636,-6.2206,-6.1755,-6.1402,-6.1612,-6.1702,-6.1697,-6.1694,-6.1707,-6.1581,-6.0946,-5.9985,-5.8987,-5.8329,-5.737,-5.6472,-5.6309,-5.643,-5.6547,-5.6333,-5.643,-5.6608,-5.6596,-5.6415,-5.5827,-5.4326,-5.3838,-5.3214,-5.1699,-5.1404,-5.1372,-5.1288,-5.1222,-5.1166,-5.1172,-5.1147,-5.1139,-5.1196,-5.1202,-5.1171,-5.1101,-5.1095,-5.1102,-5.1101,-5.1095,-5.1095,-5.1095,-5.1165,-5.1202,-5.1202,-5.1202,-5.1202,-5.1202,-5.1121,-5.1102,-5.1102,-5.1074,-5.1046,-5.1046,-5.1005,-5.0971,-6.2012,-6.3457,-6.4863,-6.4863,-6.5234,-6.5605,-6.5605,-6.4629,-6.373,-6.373,-6.4121,-6.4316,-6.3828,-6.5156,-6.6738,-6.8008,-6.8906,-7.0039,-7.1758,-7.1992,-7.1816,-7.1328,-7.1269,-7.0937,-7.0058,-6.9629,-6.9062,-6.8262,-6.8203,-6.7812,-6.6953,-6.7363,-6.7402,-6.6914,-6.6894,-6.6894,-6.6894,-6.6894,-6.6894,-6.6894,-6.6894,-6.6894,-6.6894,-6.6894,-6.6894,-6.6855,-6.5976,-6.5371,-6.4922,-6.3555,-6.2773,-6.2383,-6.1894,-6.1698,-6.1698,-6.1695,-6.1692,-6.1707,-6.1696,-6.1705,-6.1562,-6.067,-5.9806,-5.8948,-5.805,-5.7191,-5.6511,-5.6582,-5.6606,-5.6606,-5.6606,-5.6608,-5.6595,-5.66,-5.6305,-5.5663,-5.4293,-5.3705,-5.3022,-5.166,-5.138,-5.134,-5.1318,-5.1248,-5.1206,-5.1199,-5.1176,-5.1164,-5.12,-5.1206,-5.1196,-5.1159,-5.1139,-5.1146,-5.1147,-5.1146,-5.1139,-5.1139,-5.1171,-5.1202,-5.1202,-5.1202,-5.1196,-5.1165,-5.1127,-5.1108,-5.1089,-5.1107,-5.1101,-5.1094,-5.106,-5.1046,-6.4082,-6.4941,-6.5605,-6.5605,-6.5508,-6.543,-6.543,-6.4082,-6.2832,-6.2832,-6.293,-6.2969,-6.2851,-6.4355,-6.6094,-6.7617,-6.8672,-6.9902,-7.1582,-7.1738,-7.1699,-7.1816,-7.1738,-7.1367,-7.0605,-6.9746,-6.8945,-6.8242,-6.8086,-6.7695,-6.6933,-6.6894,-6.6894,-6.6894,-6.6894,-6.6894,-6.6894,-6.6894,-6.6894,-6.6894,-6.6894,-6.6894,-6.6894,-6.6894,-6.6894,-6.6836,-6.5859,-6.5,-6.4219,-6.3223,-6.2383,-6.1699,-6.1699,-6.1699,-6.1699,-6.1698,-6.1697,-6.1695,-6.1694,-6.1622,-6.1405,-6.0648,-5.9725,-5.8766,-5.7891,-5.6935,-5.6194,-5.6365,-5.6409,-5.6448,-5.6567,-5.6595,-5.6602,-5.6605,-5.6019,-5.5202,-5.4215,-5.3219,-5.2301,-5.1543,-5.1341,-5.1304,-5.1304,-5.1257,-5.1226,-5.1229,-5.1211,-5.1202,-5.1206,-5.1205,-5.1202,-5.1202,-5.1202,-5.1202,-5.1202,-5.1202,-5.1202,-5.1202,-5.1202,-5.1202,-5.1202,-5.1202,-5.1171,-5.1101,-5.1101,-5.1108,-5.1114,-5.1114,-5.1114,-5.1114,-5.1107,-5.1107,-6.4258,-6.4941,-6.5605,-6.5605,-6.5058,-6.4531,-6.4531,-6.3183,-6.1933,-6.1933,-6.25,-6.2773,-6.2051,-6.3945,-6.5703,-6.5996,-6.7383,-6.9004,-7.0683,-7.0312,-7.0117,-7.084,-7.0293,-6.9805,-6.9726,-6.8926,-6.8359,-6.8203,-6.7539,-6.7051,-6.6914,-6.6894,-6.6894,-6.6894,-6.6894,-6.6894,-6.6894,-6.6894,-6.6894,-6.6894,-6.6894,-6.6894,-6.6894,-6.6894,-6.6894,-6.6816,-6.5215,-6.4433,-6.418,-6.2578,-6.1836,-6.1699,-6.1699,-6.1699,-6.1699,-6.1699,-6.1698,-6.1696,-6.1702,-6.1221,-6.0603,-6.0441,-5.931,-5.7856,-5.6995,-5.5604,-5.4505,-5.5238,-5.5438,-5.5619,-5.6399,-5.66,-5.6605,-5.6596,-5.6478,-5.593,-5.4335,-5.2754,-5.1582,-5.1426,-5.1386,-5.1386,-5.1386,-5.1331,-5.1293,-5.1359,-5.1263,-5.1229,-5.1281,-5.124,-5.1202,-5.1202,-5.1202,-5.1202,-5.1202,-5.1202,-5.1202,-5.1202,-5.1202,-5.1202,-5.1202,-5.1202,-5.1196,-5.1171,-5.1171,-5.1171,-5.1184,-5.1184,-5.1184,-5.1184,-5.114,-5.1108,-6.5365,-6.5794,-6.6126,-6.6126,-6.5149,-6.4208,-6.4208,-6.2908,-6.1699,-6.1699,-6.2031,-6.2207,-6.1777,-6.3476,-6.5078,-6.5527,-6.7051,-6.8633,-6.9844,-6.9668,-6.9551,-6.9961,-6.9648,-6.9258,-6.8867,-6.8457,-6.8008,-6.7558,-6.7148,-6.6894,-6.6894,-6.6894,-6.6894,-6.6894,-6.6894,-6.6894,-6.6894,-6.6894,-6.6894,-6.6894,-6.6894,-6.6894,-6.6894,-6.6894,-6.664,-6.6152,-6.4863,-6.4043,-6.3515,-6.2226,-6.1699,-6.1699,-6.1699,-6.1699,-6.1699,-6.1699,-6.1699,-6.1698,-6.1709,-6.1129,-6.0251,-5.9346,-5.8171,-5.6967,-5.6097,-5.4924,-5.4086,-5.4959,-5.5226,-5.545,-5.6364,-5.6607,-5.6594,-5.6599,-5.5916,-5.4881,-5.3594,-5.2305,-5.1406,-5.1406,-5.1406,-5.1406,-5.1406,-5.1365,-5.1361,-5.1402,-5.1345,-5.1323,-5.1349,-5.1291,-5.1239,-5.1196,-5.1196,-5.1194,-5.1202,-5.1202,-5.1202,-5.1202,-5.1202,-5.1202,-5.1202,-5.1202,-5.1171,-5.1159,-5.1171,-5.1171,-5.1159,-5.1171,-5.1202,-5.1202,-5.1165,-5.1139,-6.6415,-6.659,-6.659,-6.659,-6.5348,-6.4108,-6.4096,-6.2838,-6.1679,-6.1699,-6.1699,-6.1699,-6.1699,-6.2969,-6.4316,-6.5176,-6.6621,-6.7988,-6.9004,-6.8984,-6.8926,-6.9121,-6.8984,-6.8613,-6.7988,-6.793,-6.7637,-6.6953,-6.6894,-6.6894,-6.6894,-6.6894,-6.6894,-6.6894,-6.6894,-6.6894,-6.6894,-6.6894,-6.6894,-6.6894,-6.6894,-6.6894,-6.6894,-6.6719,-6.625,-6.5547,-6.4473,-6.3633,-6.293,-6.2051,-6.1699,-6.1699,-6.1699,-6.1699,-6.1699,-6.1699,-6.1699,-6.1679,-6.1498,-6.0842,-5.9831,-5.81,-5.6939,-5.6024,-5.4968,-5.4156,-5.38,-5.4689,-5.5096,-5.5501,-5.637,-5.6595,-5.6541,-5.6365,-5.5136,-5.3769,-5.2891,-5.2012,-5.1406,-5.1406,-5.1406,-5.1406,-5.1406,-5.1406,-5.1406,-5.1406,-5.1403,-5.1396,-5.1396,-5.1359,-5.1308,-5.1261,-5.1222,-5.1224,-5.1197,-5.1192,-5.12,-5.1202,-5.1202,-5.1202,-5.1202,-5.1202,-5.1171,-5.1127,-5.1171,-5.1171,-5.1127,-5.1171,-5.1202,-5.1202,-5.1202,-5.1202,-6.657,-6.659,-6.659,-6.659,-6.5333,-6.4104,-6.4091,-6.2805,-6.1629,-6.1699,-6.1699,-6.1699,-6.1699,-6.248,-6.3398,-6.4277,-6.5215,-6.6426,-6.8086,-6.7637,-6.7422,-6.8222,-6.7617,-6.7109,-6.7031,-6.7012,-6.6992,-6.6914,-6.6894,-6.6894,-6.6894,-6.6894,-6.6894,-6.6894,-6.6894,-6.6894,-6.6894,-6.6894,-6.6894,-6.6894,-6.6894,-6.6894,-6.6875,-6.6074,-6.5683,-6.5508,-6.3848,-6.3066,-6.293,-6.2051,-6.1699,-6.1699,-6.1699,-6.1699,-6.1699,-6.1699,-6.1699,-6.1582,-6.0795,-5.995,-5.8931,-5.7189,-5.6032,-5.5002,-5.3346,-5.2772,-5.2899,-5.3774,-5.4635,-5.5492,-5.6362,-5.6599,-5.6404,-5.5605,-5.4687,-5.3769,-5.2891,-5.2012,-5.1406,-5.1406,-5.1406,-5.1406,-5.1406,-5.1406,-5.1406,-5.1406,-5.1406,-5.1406,-5.1406,-5.1386,-5.1384,-5.1385,-5.1335,-5.1268,-5.1209,-5.12,-5.1211,-5.1208,-5.1202,-5.1202,-5.1202,-5.1202,-5.1196,-5.1196,-5.1196,-5.1196,-5.1196,-5.1196,-5.1202,-5.1202,-5.1202,-5.1202,-6.6159,-6.6295,-6.6303,-6.6348,-6.5153,-6.4001,-6.4036,-6.2778,-6.1627,-6.1699,-6.1699,-6.1699,-6.1699,-6.2402,-6.3281,-6.416,-6.5039,-6.6035,-6.7246,-6.7129,-6.7031,-6.7383,-6.7109,-6.6894,-6.6894,-6.6894,-6.6894,-6.6894,-6.6894,-6.6894,-6.6894,-6.6894,-6.6894,-6.6894,-6.6894,-6.6894,-6.6894,-6.6894,-6.6894,-6.6894,-6.6894,-6.6621,-6.6113,-6.5762,-6.5039,-6.4004,-6.3301,-6.2695,-6.2187,-6.1836,-6.1699,-6.1699,-6.1699,-6.1699,-6.1699,-6.1699,-6.1367,-6.0879,-6.0526,-5.9488,-5.8115,-5.6932,-5.5933,-5.497,-5.3741,-5.3409,-5.3611,-5.45,-5.5001,-5.5498,-5.6364,-5.66,-5.625,-5.4844,-5.4258,-5.3613,-5.2226,-5.1641,-5.1406,-5.1406,-5.1406,-5.1406,-5.1406,-5.1406,-5.1406,-5.1406,-5.1406,-5.1406,-5.1406,-5.1406,-5.1406,-5.1404,-5.1389,-5.1338,-5.1271,-5.1268,-5.1257,-5.1269,-5.123,-5.1206,-5.1206,-5.1192,-5.1202,-5.1202,-5.1202,-5.1202,-5.1202,-5.1202,-5.1202,-5.1202,-5.1202,-5.1202,-6.5548,-6.5887,-6.6091,-6.6144,-6.4993,-6.3855,-6.3947,-6.2731,-6.1616,-6.1656,-6.1699,-6.1699,-6.1699,-6.2207,-6.289,-6.3769,-6.4648,-6.5527,-6.6387,-6.6738,-6.6894,-6.6894,-6.6894,-6.6894,-6.6894,-6.6894,-6.6894,-6.6894,-6.6894,-6.6894,-6.6894,-6.6894,-6.6894,-6.6894,-6.6894,-6.6894,-6.6894,-6.6894,-6.6777,-6.6523,-6.6523,-6.6055,-6.5215,-6.4941,-6.416,-6.2988,-6.2734,-6.2265,-6.1699,-6.1699,-6.1699,-6.1699,-6.1699,-6.1699,-6.168,-6.1406,-6.0937,-6.0332,-5.9824,-5.8866,-5.7651,-5.6575,-5.5946,-5.545,-5.4572,-5.4342,-5.4511,-5.5121,-5.5499,-5.5836,-5.6444,-5.6406,-5.584,-5.4355,-5.3808,-5.3203,-5.1719,-5.1406,-5.1406,-5.1406,-5.1406,-5.1406,-5.1406,-5.1406,-5.1406,-5.1406,-5.1406,-5.1406,-5.1406,-5.1406,-5.1406,-5.1406,-5.1403,-5.137,-5.134,-5.1335,-5.1311,-5.1297,-5.1261,-5.1238,-5.1238,-5.123,-5.1229,-5.1203,-5.1203,-5.1211,-5.1202,-5.1202,-5.1202,-5.1202,-5.1202,-5.1202,-6.4809,-6.5396,-6.6024,-6.608,-6.4879,-6.3744,-6.3874,-6.2718,-6.1592,-6.1594,-6.1656,-6.1699,-6.1699,-6.1719,-6.1992,-6.2871,-6.373,-6.4629,-6.5488,-6.6367,-6.6894,-6.6894,-6.6894,-6.6894,-6.6894,-6.6894,-6.6894,-6.6894,-6.6894,-6.6894,-6.6894,-6.6894,-6.6894,-6.6894,-6.6894,-6.6894,-6.6894,-6.6894,-6.6465,-6.5605,-6.5605,-6.5156,-6.4277,-6.3418,-6.3027,-6.2949,-6.209,-6.1719,-6.1699,-6.1699,-6.1699,-6.1699,-6.1699,-6.1699,-6.1601,-6.0723,-6.041,-6.0156,-5.8496,-5.791,-5.7617,-5.5874,-5.5896,-5.6426,-5.5542,-5.5285,-5.5285,-5.5305,-5.5916,-5.6582,-5.6601,-5.5957,-5.5098,-5.4219,-5.334,-5.2461,-5.1582,-5.1406,-5.1406,-5.1406,-5.1406,-5.1406,-5.1406,-5.1406,-5.1406,-5.1406,-5.1406,-5.1406,-5.1406,-5.1406,-5.1406,-5.1406,-5.1406,-5.1405,-5.1391,-5.1409,-5.1377,-5.13,-5.1297,-5.1297,-5.1297,-5.1294,-5.1271,-5.1194,-5.1189,-5.1191,-5.1202,-5.1202,-5.1202,-5.1202,-5.1202,-5.1202,-6.3688,-6.405,-6.4307,-6.4372,-6.3632,-6.2895,-6.2995,-6.2246,-6.1545,-6.159,-6.1626,-6.1654,-6.1699,-6.1699,-6.2187,-6.3652,-6.4121,-6.4805,-6.6289,-6.6738,-6.6894,-6.6894,-6.6894,-6.6894,-6.6894,-6.6894,-6.6894,-6.6894,-6.6894,-6.6894,-6.6894,-6.6894,-6.6894,-6.6894,-6.6894,-6.6601,-6.6015,-6.6015,-6.5566,-6.4707,-6.4707,-6.4258,-6.3398,-6.3125,-6.2676,-6.2109,-6.1816,-6.1699,-6.1699,-6.1699,-6.1699,-6.1699,-6.1699,-6.1348,-6.0781,-6.0508,-5.9668,-5.8613,-5.8086,-5.7519,-5.6914,-5.6367,-5.6386,-5.6543,-5.6269,-5.619,-5.619,-5.619,-5.6386,-5.6601,-5.6601,-5.5957,-5.5078,-5.4219,-5.332,-5.2461,-5.1582,-5.1406,-5.1406,-5.1406,-5.1406,-5.1406,-5.1406,-5.1406,-5.1406,-5.1406,-5.1406,-5.1406,-5.1406,-5.1406,-5.1406,-5.1406,-5.1406,-5.1406,-5.1405,-5.1405,-5.1384,-5.136,-5.1367,-5.1377,-5.1377,-5.1313,-5.1288,-5.1275,-5.1271,-5.1264,-5.1265,-5.1265,-5.1265,-5.1265,-5.1265,-5.1265,-6.2668,-6.3176,-6.3483,-6.3538,-6.3004,-6.2474,-6.2552,-6.1985,-6.1466,-6.1513,-6.1559,-6.1605,-6.1656,-6.1679,-6.2051,-6.3144,-6.3867,-6.4687,-6.5762,-6.6484,-6.6894,-6.6894,-6.6894,-6.6894,-6.6894,-6.6894,-6.6894,-6.6894,-6.6894,-6.6894,-6.6894,-6.6582,-6.6406,-6.6406,-6.6406,-6.5996,-6.5117,-6.5117,-6.4668,-6.3808,-6.3808,-6.3359,-6.2519,-6.2519,-6.2207,-6.1699,-6.1699,-6.1699,0.0,-6.1699,-6.1699,-6.168,-6.1348,-6.0879,-6.0312,-5.9687,-5.8808,-5.7851,-5.7519,-5.7051,-5.6601,-5.6601,-5.6601,-5.6601,-5.6601,-5.6601,-5.6601,-5.6601,-5.6601,-5.6523,-5.6191,-5.5703,-5.5,-5.3789,-5.3086,-5.2461,-5.1582,-5.1406,-5.1406,-5.1406,-5.1406,-5.1406,-5.1406,-5.1406,-5.1406,-5.1406,-5.1406,-5.1406,-5.1406,-5.1406,-5.1406,-5.1406,-5.1406,-5.1406,-5.1406,-5.1406,-5.1406,-5.1406,-5.1404,-5.14,-5.14,-5.1369,-5.1334,-5.134,-5.134,-5.1333,-5.1297,-5.1297,-5.1297,-5.1297,-5.1297,-5.1297,0.0,-6.2598,-6.3234,-6.3309,-6.2808,-6.2327,-6.2382,-6.1869,0.0,-6.14,-6.1502,-6.1596,-6.1598,-6.1656,-6.1719,-6.1777,-6.3203,-6.4316,-6.4375,-6.584,-6.6894,-6.6894,-6.6894,-6.6894,-6.6894,-6.6894,-6.6894,-6.6894,-6.6894,-6.6875,-6.6816,-6.6035,-6.5547,-6.543,-6.543,-6.5039,-6.4219,-6.4219,-6.3769,-6.291,-6.291,-6.248,-6.1699,-6.1699,-6.1699,-6.1699,-6.1699,-6.1699,-6.1699,-6.1621,-6.1601,-6.1523,-6.0644,-6.0273,-6.0039,-5.8476,-5.7851,-5.7695,-5.6875,-5.6601,-5.6601,-5.6601,-5.6562,-5.6504,-5.6504,-5.6504,-5.6504,-5.6504,-5.6465,-5.623,-5.543,-5.5156,-5.4707,-5.3086,-5.2656,-5.2383,-5.1562,-5.1406,-5.1406,-5.1406,-5.1406,-5.1406,-5.1406,-5.1406,-5.1406,-5.1406,-5.1406,-5.1406,-5.1406,-5.1406,-5.1406,-5.1406,-5.1406,-5.1406,-5.1406,-5.1406,-5.1406,-5.1406,-5.1406,-5.1406,-5.1406,-5.1406,-5.1405,-5.1393,-5.1391,-5.1361,-5.1305,-5.1305,-5.1305,-5.1305,-5.1305,-5.1305,-6.105,0.0,-6.15,-6.1574,-6.1504,-6.1417,0.0,-6.1414,-6.1325,-6.1311,-6.1422,-6.1547,-6.1583,-6.1654,-6.1914,-6.2598,-6.3594,-6.4531,-6.5195,-6.6187,-6.6849,-6.6894,-6.685,-6.6849,-6.6894,-6.6894,-6.6894,-6.6894,-6.6894,-6.6601,-6.5937,-6.5703,-6.498,-6.3652,-6.3613,-6.3515,-6.3301,-6.3301,-6.2871,-6.2012,-6.2012,-6.1894,-6.1699,-6.1699,-6.1699,-6.1699,-6.1699,-6.1699,-6.164,-6.0976,-6.0703,-6.0625,-5.9805,-5.9062,-5.8437,-5.8047,-5.748,-5.6875,-5.668,-5.6601,-5.6601,-5.6601,-5.6152,-5.5605,-5.5605,-5.5605,-5.5605,-5.5605,-5.5137,-5.4551,-5.4355,-5.3808,-5.3203,-5.2793,-5.2187,-5.1641,-5.1445,-5.1406,-5.1406,-5.1406,-5.1406,-5.1406,-5.1406,-5.1406,-5.1406,-5.1406,-5.1406,-5.1406,-5.1406,-5.1406,-5.1406,-5.1406,-5.1406,-5.1406,-5.1406,-5.1406,-5.1406,-5.1406,-5.1406,-5.1406,-5.1406,-5.1406,-5.1406,-5.1405,-5.1405,-5.1385,-5.1383,-5.1383,-5.1383,-5.1383,-5.1383,-5.1383,-6.08,-6.1116,-6.1461,-6.1503,-6.1579,-6.1553,-6.1233,-6.0917,-6.0604,-6.0221,-6.0574,-6.0937,-6.0914,-6.1315,-6.1809,-6.2244,-6.3373,-6.464,-6.5883,-6.643,-6.6717,-6.6759,-6.6723,-6.6717,-6.6761,-6.6761,-6.6616,-6.6241,-6.6202,-6.5855,-6.5058,-6.4629,-6.3965,-6.3027,-6.2617,-6.2402,-6.2402,-6.2402,-6.2168,-6.1699,-6.1699,-6.1699,-6.1699,-6.1699,-6.1699,-6.168,-6.1289,-6.1094,-6.1035,-6.0195,-5.9844,-5.9765,-5.8926,-5.832,-5.7851,-5.7441,-5.6992,-5.6601,-5.6601,-5.6601,-5.6523,-5.6133,-5.5683,-5.5234,-5.4824,-5.4414,-5.4199,-5.459,-5.4355,-5.3906,-5.3516,-5.3359,-5.3086,-5.2285,-5.2051,-5.1894,-5.1484,-5.1406,-5.1406,-5.1406,-5.1406,-5.1406,-5.1406,-5.1406,-5.1406,-5.1406,-5.1406,-5.1406,-5.1406,-5.1406,-5.1406,-5.1406,-5.1406,-5.1406,-5.1406,-5.1406,-5.1406,-5.1406,-5.1406,-5.1406,-5.1406,-5.1406,-5.1406,-5.1406,-5.1406,-5.1406,-5.1406,-5.1406,-5.1406,-5.1406,-5.1406,-5.1406,-6.0589,-6.1328,-6.2074,-6.1951,-6.2086,-6.2064,-6.1273,-6.0515,-5.9785,-5.9129,-5.956,-6.0098,-6.0102,-6.0925,-6.1615,-6.169,-6.3159,-6.4826,-6.6381,-6.6579,-6.6599,-6.659,-6.6487,-6.639,-6.6405,-6.6293,-6.594,-6.5242,-6.5214,-6.4882,-6.412,-6.3398,-6.2949,-6.2812,-6.209,-6.1699,-6.1699,-6.1699,-6.1699,-6.1699,-6.1699,-6.1699,-6.1699,-6.1699,-6.1621,-6.1465,-6.0723,0.0,-6.0156,-5.9336,-5.9004,-5.8906,-5.8047,-5.7695,-5.7617,-5.6875,-5.6601,-5.6601,-5.6601,-5.6504,-5.6289,-5.5547,-5.5117,-5.4765,-5.4023,-5.3183,-5.2656,-5.3398,-5.3594,-5.3437,-5.2695,-5.3047,-5.3223,-5.1758,-5.1953,-5.2305,-5.1562,-5.1406,-5.1406,-5.1406,-5.1406,-5.1406,-5.1406,-5.1406,-5.1406,-5.1406,-5.1406,-5.1406,-5.1406,-5.1406,-5.1406,-5.1406,-5.1406,-5.1406,-5.1406,-5.1406,-5.1406,-5.1406,-5.1406,-5.1406,-5.1406,-5.1406,-5.1406,-5.1406,-5.1406,-5.1406,-5.1406,-5.1406,-5.1406,-5.1406,-5.1406,-5.1406,-5.9704,-6.087,-6.1951,-6.1246,-6.1649,-6.2002,-6.1195,-6.0431,-5.9897,-5.983,-5.9444,-5.9333,-6.0053,-6.0902,-6.1752,-6.2481,-6.4018,-6.5465,-6.6454,-6.6548,-6.6549,-6.6585,-6.5948,-6.55,-6.5494,-6.4876,-6.4427,-6.4301,-6.4355,-6.4003,-6.3168,-6.3045,-6.2656,-6.1914,-6.1777,-6.1699,-6.1699,-6.1699,-6.1699,-6.1699,-6.1699,-6.1699,-6.1699,-6.1699,-6.1308,-6.0586,0.0,-6.0019,-5.9316,-5.8457,-5.8105,-5.8008,-5.7148,-5.6797,-5.6777,-5.664,-5.6601,-5.6601,-5.6601,-5.6113,-5.5488,-5.5332,-5.4297,-5.3066,-5.2949,-5.2285,-5.1621,-5.1758,-5.1797,-5.1777,-5.1621,-5.1699,-5.1738,-5.1465,-5.1504,-5.1562,-5.1426,-5.1406,-5.1406,-5.1406,-5.1406,-5.1406,-5.1406,-5.1406,-5.1406,-5.1406,-5.1406,-5.1406,-5.1406,-5.1406,-5.1406,-5.1406,-5.1406,-5.1406,-5.1406,-5.1406,-5.1406,-5.1406,-5.1406,-5.1406,-5.1406,-5.1406,-5.1406,-5.1406,-5.1406,-5.1406,-5.1406,-5.1406,-5.1406,-5.1406,-5.1406,-5.1406,-5.8858,-6.0108,-6.1312,-6.0931,-6.2209,-6.321,-6.1934,-6.1051,-6.0266,-5.9428,-5.9378,-5.9626,-6.0022,-6.1192,-6.2507,-6.3773,-6.4639,-6.544,-6.6272,-6.6359,-6.6195,-6.577,-6.5378,-6.4959,-6.4532,-6.4144,-6.3778,-6.337,-6.3402,-6.3076,-6.2244,-6.2262,-6.2109,-6.1719,-6.1699,-6.1465,-6.0996,-6.0996,-6.0996,-6.0996,-6.1465,-6.1445,-6.0996,-6.0996,-6.0781,-6.0351,0.0,-5.8848,-5.8437,-5.7558,-5.7207,-5.7168,-5.6758,-5.6601,-5.6601,-5.6601,-5.6601,-5.6523,-5.6055,-5.5644,-5.5137,-5.4199,-5.3359,-5.2617,-5.2148,-5.1719,-5.1406,-5.1406,-5.1406,-5.1406,-5.1406,-5.1406,-5.1406,-5.1406,-5.1406,-5.1406,-5.1406,-5.1406,-5.1406,-5.1406,-5.1406,-5.1406,-5.1406,-5.1406,-5.1406,-5.1406,-5.1406,-5.1406,-5.1406,-5.1406,-5.1406,-5.1406,-5.1406,-5.1406,-5.1406,-5.1406,-5.1406,-5.1406,-5.1406,-5.1406,-5.1406,-5.1406,-5.1406,-5.1406,-5.1406,-5.1406,-5.1406,-5.1406,-5.1406,-5.1406,-5.1406,-5.1406,-5.7992,-5.9069,-6.0262,-6.0454,-6.2175,-6.3569,-6.269,-6.1569,-6.0423,-5.9428,-5.9623,-6.0005,-6.0026,-6.1429,-6.3119,-6.4733,-6.4996,-6.5219,-6.5819,-6.5915,-6.5596,-6.4812,-6.4541,-6.4172,-6.3585,-6.3322,-6.2991,-6.2407,-6.2445,-6.2235,-6.1603,-6.146,-6.1406,-6.1406,-6.1211,-6.0781,-6.0137,-6.0117,-6.0117,-6.0137,-6.0801,-6.0762,-6.0117,-6.0117,-6.0019,-5.9746,-5.8457,-5.7773,-5.7539,-5.6875,-5.6601,-5.6601,-5.6601,-5.6601,-5.6601,-5.6601,-5.6601,-5.6484,-5.5605,-5.5176,-5.4746,-5.3203,-5.2558,-5.2266,-5.1601,-5.1406,-5.1406,-5.1406,-5.1406,-5.1406,-5.1406,-5.1406,-5.1406,-5.1406,-5.1406,-5.1406,-5.1406,-5.1406,-5.1406,-5.1406,-5.1406,-5.1406,-5.1406,-5.1406,-5.1406,-5.1406,-5.1406,-5.1406,-5.1406,-5.1406,-5.1406,-5.1406,-5.1406,-5.1406,-5.1406,-5.1406,-5.1406,-5.1406,-5.1406,-5.1406,-5.1406,-5.1406,-5.1406,-5.1406,-5.1406,-5.1406,-5.1406,-5.1406,-5.1406,-5.1406,-5.1406,-5.1406,-5.7099,-5.7761,-5.8665,-5.9415,-6.0384,-6.1546,-6.2991,-6.1541,-6.0101,-6.086,-6.046,-6.0018,-6.0073,-6.1415,-6.3053,-6.4734,-6.4996,-6.5015,-6.5073,-6.5034,-6.4715,-6.3966,-6.3173,-6.2678,-6.2684,-6.1955,-6.1458,-6.1407,-6.1518,-6.1564,-6.1514,-6.0864,-6.0488,-6.0488,-5.9765,-5.9355,-5.9297,-5.9297,-5.9297,-5.9297,-5.9355,-5.9355,-5.9297,-5.9297,-5.8848,-5.8066,-5.7949,-5.7441,-5.6699,-5.6621,-5.6601,-5.6601,-5.6601,-5.6601,-5.6601,-5.6601,-5.6601,-5.6484,-5.5605,-5.4765,-5.3945,-5.3008,-5.2148,-5.1484,-5.1426,-5.1406,-5.1406,-5.1406,-5.1406,-5.1406,-5.1406,-5.1406,-5.1406,-5.1406,-5.1406,-5.1406,-5.1406,-5.1406,-5.1406,-5.1406,-5.1406,-5.1406,-5.1406,-5.1406,-5.1406,-5.1406,-5.1406,-5.1406,-5.1406,-5.1406,-5.1406,-5.1406,-5.1406,-5.1406,-5.1406,-5.1406,-5.1406,-5.1406,-5.1406,-5.1406,-5.1406,-5.1406,-5.1406,-5.1406,-5.1406,-5.1406,-5.1406,-5.1406,-5.1406,-5.1406,-5.1406,-5.1406,-5.6195,-5.7223,-5.8377,-5.8684,-5.9388,-6.0489,-6.2201,-6.1893,-6.1334,-6.1687,-6.1544,-6.1389,-6.1453,-6.2022,-6.2865,-6.4,-6.4193,-6.4202,-6.4193,-6.4174,-6.3825,-6.2965,-6.2654,-6.2312,-6.1776,-6.1465,-6.1287,-6.1302,-6.0917,-6.0683,-6.0683,-6.0023,-5.9648,-5.9648,-5.9355,-5.8945,-5.8398,-5.8398,-5.8125,-5.7598,-5.8672,-5.8926,-5.8398,-5.8398,-5.8203,-5.7871,-5.7324,-5.6894,-5.6601,-5.6601,-5.6601,-5.6601,-5.6601,-5.6601,-5.6601,-5.6601,-5.6269,-5.5664,-5.4785,-5.3926,-5.3047,-5.2168,-5.168,-5.1406,-5.1406,-5.1406,-5.1406,-5.1406,-5.1406,-5.1406,-5.1406,-5.1406,-5.1406,-5.1406,-5.1406,-5.1406,-5.1406,-5.1406,-5.1406,-5.1406,-5.1406,-5.1406,-5.1406,-5.1406,-5.1406,-5.1406,-5.1406,-5.1406,-5.1406,-5.1406,-5.1406,-5.1406,-5.1406,-5.1406,-5.1406,-5.1406,-5.1406,-5.1406,-5.1406,-5.1406,-5.1406,-5.1406,-5.1406,-5.1406,-5.1406,-5.1406,-5.1406,-5.1406,-5.1406,-5.1406,-5.1406,-5.1406,-5.6107,-5.6973,-5.7953,-5.8223,-5.8511,-5.9223,-6.1235,-6.1709,-6.179,-6.2055,-6.1957,-6.1859,-6.1969,-6.2016,-6.2345,-6.3177,-6.3303,-6.3284,-6.3294,-6.3245,-6.2886,-6.2027,-6.1988,-6.1813,-6.124,-6.1007,-6.0883,-6.089,-6.0201,-5.9785,-5.9786,-5.9136,-5.8769,-5.8789,-5.8515,-5.8086,-5.75,-5.748,-5.7187,-5.6601,-5.7812,-5.8066,-5.748,-5.748,-5.748,-5.7461,-5.6855,-5.6601,-5.6601,-5.6601,-5.6601,-5.6601,-5.6601,-5.6601,-5.6562,-5.6289,-5.5801,-5.5137,-5.3984,-5.3203,-5.2558,-5.168,-5.1406,-5.1406,-5.1406,-5.1406,-5.1406,-5.1406,-5.1406,-5.1406,-5.1406,-5.1406,-5.1406,-5.1406,-5.1406,-5.1406,-5.1406,-5.1406,-5.1406,-5.1406,-5.1406,-5.1406,-5.1406,-5.1406,-5.1406,-5.1406,-5.1406,-5.1406,-5.1406,-5.1406,-5.1406,-5.1406,-5.1406,-5.1406,-5.1406,-5.1406,-5.1406,-5.1406,-5.1406,-5.1406,-5.1406,-5.1406,-5.1406,-5.1406,-5.1406,-5.1406,-5.1406,-5.1406,-5.1406,-5.1406,-5.1406,-5.1406,-5.6983,-5.6983,-5.7214,-5.8069,-5.7646,-5.7676,-6.0204,-6.0858,-6.1134,-6.1932,-6.1514,-6.1059,-6.1264,-6.1182,-6.1407,-6.2324,-6.2423,-6.2385,-6.2385,-6.2253,-6.1902,-6.1176,-6.1012,-6.1022,-6.1154,-6.045,-5.9998,-5.9998,-5.9309,-5.89,-5.889,-5.8197,-5.7823,-5.789,-5.7051,-5.6601,-5.6601,-5.6601,-5.6601,-5.6601,-5.6601,-5.6601,-5.6601,-5.6601,-5.6601,-5.6601,-5.6601,-5.6601,-5.6601,-5.6601,-5.6601,-5.6601,-5.6601,-5.6582,-5.6484,-5.5625,-5.5293,-5.5039,-5.3301,-5.2695,-5.2558,-5.168,-5.1406,-5.1406,-5.1406,-5.1406,-5.1406,-5.1406,-5.1406,-5.1406,-5.1406,-5.1406,-5.1406,-5.1406,-5.1406,-5.1406,-5.1406,-5.1406,-5.1406,-5.1406,-5.1406,-5.1406,-5.1406,-5.1406,-5.1406,-5.1406,-5.1406,-5.1406,-5.1406,-5.1406,-5.1406,-5.1406,-5.1406,-5.1406,-5.1406,-5.1406,-5.1406,-5.1406,-5.1406,-5.1406,-5.1406,-5.1406,-5.1406,-5.1406,-5.1406,-5.1406,-5.1406,-5.1406,-5.1406,-5.1406,-5.1406,-5.1406,-5.6252,-5.6541,-5.706,-5.733,-5.8069,-5.8954,-5.9704,-6.0381,-6.1077,-6.192,-6.1481,-6.0955,-6.1009,-6.102,-6.1107,-6.134,-6.1398,-6.1398,-6.1358,-6.0815,-6.0329,-6.0008,-5.9543,-5.9253,-5.9302,-5.9202,-5.9138,-5.9079,-5.8409,-5.7994,-5.7989,-5.7299,-5.6924,-5.6972,-5.6738,-5.6601,-5.6601,-5.6601,-5.6601,-5.6601,-5.6601,-5.6601,-5.6601,-5.6601,-5.6601,-5.6601,-5.6601,-5.6601,-5.6601,-5.6601,-5.6601,-5.6601,-5.6601,-5.623,-5.5644,-5.539,-5.4512,-5.3398,-5.2871,-5.2305,-5.1738,-5.1484,-5.1406,-5.1406,-5.1406,-5.1406,-5.1406,-5.1406,-5.1406,-5.1406,-5.1406,-5.1406,-5.1406,-5.1406,-5.1406,-5.1406,-5.1406,-5.1406,-5.1406,-5.1406,-5.1406,-5.1406,-5.1406,-5.1406,-5.1406,-5.1406,-5.1406,-5.1406,-5.1406,-5.1406,-5.1406,-5.1406,-5.1406,-5.1406,-5.1406,-5.1406,-5.1406,-5.1406,-5.1406,-5.1406,-5.1406,-5.1406,-5.1406,-5.1406,-5.1406,-5.1406,-5.1406,-5.1406,-5.1406,-5.1406,-5.1406,-5.1406,-5.678,-5.7126,-5.7684,-5.8349,-5.9011,-5.9588,-5.9935,-6.0416,-6.095,-6.1533,-6.123,-6.088,-6.0959,-6.0967,-6.0965,-6.0948,-6.095,-6.0824,-6.0445,-5.9941,-5.9466,-5.908,-5.8671,-5.8443,-5.8481,-5.8336,-5.825,-5.8211,-5.7515,-5.7103,-5.7123,-5.6701,-5.6504,-5.6601,-5.6601,-5.6601,-5.6601,-5.6601,-5.6601,-5.6601,-5.6601,-5.6601,-5.6601,-5.6601,-5.6601,-5.6601,-5.6601,-5.6601,-5.6601,-5.6601,-5.6406,-5.6074,-5.6074,-5.5547,-5.4746,-5.4394,-5.3594,-5.2656,-5.2305,-5.1836,-5.1406,-5.1406,-5.1406,-5.1406,-5.1406,-5.1406,-5.1406,-5.1406,-5.1406,-5.1406,-5.1406,-5.1406,-5.1406,-5.1406,-5.1406,-5.1406,-5.1406,-5.1406,-5.1406,-5.1406,-5.1406,-5.1406,-5.1406,-5.1406,-5.1406,-5.1406,-5.1406,-5.1406,-5.1406,-5.1406,-5.1406,-5.1406,-5.1406,-5.1406,-5.1406,-5.1406,-5.1406,-5.1406,-5.1406,-5.1406,-5.1406,-5.1406,-5.1406,-5.1406,-5.1406,-5.1406,-5.1406,-5.1406,-5.1406,-5.1406,-5.1406,-5.1406,-5.7973,-5.8184,-5.8588,-6.0262,-6.0146,-5.9838,-6.0608,-6.08,-6.0827,-6.0951,-6.0875,-6.085,-6.1031,-6.0911,-6.0787,-6.085,-6.074,-6.0399,-5.959,-5.9353,-5.8992,-5.828,-5.8115,-5.8131,-5.8269,-5.7673,-5.7319,-5.7395,-5.6718,-5.6336,-5.64,-5.6404,-5.6465,-5.6601,-5.6601,-5.6601,-5.6601,-5.6601,-5.6601,-5.6601,-5.6601,-5.6601,-5.6601,-5.6601,-5.6601,-5.6601,-5.6601,-5.6543,-5.6484,-5.6484,-5.5976,-5.5176,-5.5176,-5.4648,-5.3789,-5.2988,-5.2656,-5.2461,-5.168,-5.1406,-5.1406,-5.1406,-5.1406,-5.1406,-5.1406,-5.1406,-5.1406,-5.1406,-5.1406,-5.1406,-5.1406,-5.1406,-5.1406,-5.1406,-5.1406,-5.1406,-5.1406,-5.1406,-5.1406,-5.1406,-5.1406,-5.1406,-5.1406,-5.1406,-5.1406,-5.1406,-5.1406,-5.1406,-5.1406,-5.1406,-5.1406,-5.1406,-5.1406,-5.1406,-5.1406,-5.1406,-5.1406,-5.1406,-5.1406,-5.1406,-5.1406,-5.1406,-5.1406,-5.1406,-5.1406,-5.1406,-5.1406,-5.1406,-5.1406,-5.1406,-5.1406,-5.1406,-5.7234,-5.7291,-5.7684,-5.9358,-6.0146,-6.0569,-6.0762,-6.08,-6.0812,-6.0839,-6.0816,-6.0823,-6.085,-6.0269,-5.9804,-5.9815,-5.9284,-5.8792,-5.8599,-5.7984,-5.7484,-5.7311,-5.676,-5.6454,-5.6527,-5.6446,-5.6427,-5.6544,-5.6408,-5.6336,-5.64,-5.6404,-5.6465,-5.6601,-5.6601,-5.6601,-5.6601,-5.6601,-5.6601,-5.6601,-5.6601,-5.6601,-5.6601,-5.6601,-5.6601,-5.6601,-5.6601,-5.6211,-5.5586,-5.5586,-5.5078,-5.4277,-5.4277,-5.375,-5.2969,-5.2773,-5.2266,-5.1641,-5.1465,-5.1406,-5.1406,-5.1406,-5.1406,-5.1406,-5.1406,-5.1406,-5.1406,-5.1406,-5.1406,-5.1406,-5.1406,-5.1406,-5.1406,-5.1406,-5.1406,-5.1406,-5.1406,-5.1406,-5.1406,-5.1406,-5.1406,-5.1406,-5.1406,-5.1406,-5.1406,-5.1406,-5.1406,-5.1406,-5.1406,-5.1406,-5.1406,-5.1406,-5.1406,-5.1406,-5.1406,-5.1406,-5.1406,-5.1406,-5.1406,-5.1406,-5.1406,-5.1406,-5.1406,-5.1406,-5.1406,-5.1406,-5.1406,-5.1406,-5.1406,-5.1406,-5.1406,-5.1406,-5.6387,-5.6992,-5.8011,-5.9704,-6.0454,-6.08,-6.08,-6.0473,-6.0185,-6.0185,-6.0185,-6.0196,-6.0219,-5.9515,-5.8934,-5.8934,-5.8569,-5.8146,-5.7742,-5.728,-5.6849,-5.6426,-5.6036,-5.5856,-5.5995,-5.6035,-5.6114,-5.6285,-5.6341,-5.6359,-5.64,-5.6428,-5.6481,-5.6601,-5.6191,-5.5976,-5.5976,-5.5566,-5.5351,-5.5351,-5.5351,-5.5351,-5.5371,-5.5781,-5.5976,-5.5957,-5.5547,-5.5098,-5.4687,-5.4687,-5.416,-5.3379,-5.3379,-5.2832,-5.207,-5.207,-5.1797,-5.1406,-5.1406,-5.1406,-5.1406,-5.1406,-5.1406,-5.1406,-5.1406,-5.1406,-5.1406,-5.1406,-5.1406,-5.1406,-5.1406,-5.1406,-5.1406,-5.1406,-5.1406,-5.1406,-5.1406,-5.1406,-5.1406,-5.1406,-5.1406,-5.1406,-5.1406,-5.1406,-5.1406,-5.1406,-5.1406,-5.1406,-5.1406,-5.1406,-5.1406,-5.1406,-5.1406,-5.1406,-5.1406,-5.1406,-5.1406,-5.1406,-5.1406,-5.1406,-5.1406,-5.1406,-5.1406,-5.1406,-5.1406,-5.1406,-5.1406,-5.1406,-5.1406,-5.1406,-5.1406,-5.1406,-5.5423,-5.6846,-5.8665,-6.0185,-6.0685,-6.0773,-6.0643,-6.0046,-5.9488,-5.9367,-5.9315,-5.9311,-5.9367,-5.866,-5.8088,-5.8088,-5.7953,-5.7607,-5.6887,-5.6791,-5.6522,-5.578,-5.5703,-5.5778,-5.5967,-5.6012,-5.6086,-5.6285,-5.6361,-5.6401,-5.64,-5.6311,-5.6318,-5.6367,-5.5527,-5.5078,-5.5078,-5.4355,-5.4004,-5.4004,-5.4004,-5.4004,-5.4023,-5.459,-5.4922,-5.5039,-5.4316,-5.3906,-5.3789,-5.3789,-5.3262,-5.248,-5.248,-5.2031,-5.1406,-5.1406,-5.1406,-5.1406,-5.1406,-5.1406,-5.1406,-5.1406,-5.1406,-5.1406,-5.1406,-5.1406,-5.1406,-5.1406,-5.1406,-5.1406,-5.1406,-5.1406,-5.1406,-5.1406,-5.1406,-5.1406,-5.1406,-5.1406,-5.1406,-5.1406,-5.1406,-5.1406,-5.1406,-5.1406,-5.1406,-5.1406,-5.1406,-5.1406,-5.1406,-5.1406,-5.1406,-5.1406,-5.1406,-5.1406,-5.1406,-5.1406,-5.1406,-5.1406,-5.1406,-5.1406,-5.1406,-5.1406,-5.1406,-5.1406,-5.1406,-5.1406,-5.1406,-5.1406,-5.1406,-5.1406,-5.1406,-5.1406,-5.437,-5.6401,-5.8531,-5.9435,-6.0242,-6.0643,-5.998,-5.9751,-5.9484,-5.8846,-5.8576,-5.8454,-5.8465,-5.7772,-5.7176,-5.7176,-5.653,-5.6011,-5.5876,-5.5857,-5.5818,-5.5703,-5.5703,-5.5778,-5.5967,-5.6012,-5.6086,-5.6285,-5.6361,-5.6401,-5.64,-5.5743,-5.5401,-5.5469,-5.4629,-5.418,-5.418,-5.4062,-5.4004,-5.4004,-5.4004,-5.4004,-5.3984,-5.334,-5.3457,-5.418,-5.4043,-5.3574,-5.2871,-5.2871,-5.2363,-5.1562,-5.1562,-5.1504,-5.1406,-5.1406,-5.1406,-5.1406,-5.1406,-5.1406,-5.1406,-5.1406,-5.1406,-5.1406,-5.1406,-5.1406,-5.1406,-5.1406,-5.1406,-5.1406,-5.1406,-5.1406,-5.1406,-5.1406,-5.1406,-5.1406,-5.1406,-5.1406,-5.1406,-5.1406,-5.1406,-5.1406,-5.1406,-5.1406,-5.1406,-5.1406,-5.1406,-5.1406,-5.1406,-5.1406,-5.1406,-5.1406,-5.1406,-5.1406,-5.1406,-5.1406,-5.1406,-5.1406,-5.1406,-5.1406,-5.1406,-5.1406,-5.1406,-5.1406,-5.1406,-5.1406,-5.1406,-5.1406,-5.1406,-5.1406,-5.1406,-5.1406,-5.4726,-5.5929,-5.7165,-5.8511,-5.9454,-5.9895,-5.9186,-5.9012,-5.8761,-5.8064,-5.7473,-5.7187,-5.7601,-5.6974,-5.6346,-5.6282,-5.5953,-5.5703,-5.5703,-5.5703,-5.5703,-5.5703,-5.5703,-5.5778,-5.5967,-5.5567,-5.537,-5.556,-5.5215,-5.4998,-5.5003,-5.4706,-5.4549,-5.457,-5.373,-5.3262,-5.3262,-5.2793,-5.2539,-5.2558,-5.3047,-5.3027,-5.2558,-5.2656,-5.291,-5.3242,-5.2754,-5.2324,-5.1973,-5.1973,-5.1758,-5.1406,-5.1406,-5.1406,-5.1406,-5.1406,-5.1406,-5.1406,-5.1406,-5.1406,-5.1406,-5.1406,-5.1406,-5.1406,-5.1406,-5.1406,-5.1406,-5.1406,-5.1406,-5.1406,-5.1406,-5.1406,-5.1406,-5.1406,-5.1406,-5.1406,-5.1406,-5.1406,-5.1406,-5.1406,-5.1406,-5.1406,-5.1406,-5.1406,-5.1406,-5.1406,-5.1406,-5.1406,-5.1406,-5.1406,-5.1406,-5.1406,-5.1406,-5.1406,-5.1406,-5.1406,-5.1406,-5.1406,-5.1406,-5.1406,-5.1406,-5.1406,-5.1406,-5.1406,-5.1406,-5.1406,-5.1406,-5.1406,-5.1406,-5.1406,-5.1406,-5.1406,-5.4274,-5.482,-5.5429,-5.7159,-5.8242,-5.8755,-5.8275,-5.8166,-5.7984,-5.7295,-5.6634,-5.6333,-5.6875,-5.6399,-5.5902,-5.5778,-5.5747,-5.5737,-5.5695,-5.5703,-5.5703,-5.5703,-5.5703,-5.5778,-5.5967,-5.5219,-5.4797,-5.5015,-5.432,-5.3897,-5.3908,-5.3743,-5.3672,-5.3672,-5.2812,-5.2363,-5.2363,-5.1719,-5.1406,-5.1406,-5.2051,-5.2031,-5.1426,-5.207,-5.2363,-5.2324,-5.168,-5.1406,-5.1406,-5.1406,-5.1406,-5.1406,-5.1406,-5.1406,-5.1406,-5.1406,-5.1406,-5.1406,-5.1406,-5.1406,-5.1406,-5.1406,-5.1406,-5.1406,-5.1406,-5.1406,-5.1406,-5.1406,-5.1406,-5.1406,-5.1406,-5.1406,-5.1406,-5.1406,-5.1406,-5.1406,-5.1406,-5.1406,-5.1406,-5.1406,-5.1406,-5.1406,-5.1406,-5.1406,-5.1406,-5.1406,-5.1406,-5.1406,-5.1406,-5.1406,-5.1406,-5.1406,-5.1406,-5.1406,-5.1406,-5.1406,-5.1406,-5.1406,-5.1406,-5.1406,-5.1406,-5.1406,-5.1406,-5.1406,-5.1406,-5.1406,-5.1406,-5.1406,-5.1406,-5.1406,-5.1406,-5.1404,-5.1792,-5.2563,-5.3541,-5.5228,-5.6445,-5.7226,-5.7262,-5.7412,-5.7334,-5.6602,-5.6422,-5.6382,-5.636,-5.6206,-5.6048,-5.5912,-5.5884,-5.5856,-5.5724,-5.5703,-5.5703,-5.5703,-5.5703,-5.5778,-5.5967,-5.5219,-5.4815,-5.5078,-5.4344,-5.3911,-5.3902,-5.318,-5.2773,-5.2773,-5.1914,-5.1465,-5.1465,-5.1426,-5.1406,-5.1406,-5.1445,-5.1445,-5.1406,-5.1445,-5.1465,-5.1465,-5.1426,-5.1406,-5.1406,-5.1406,-5.1406,-5.1406,-5.1406,-5.1406,-5.1406,-5.1406,-5.1406,-5.1406,-5.1406,-5.1406,-5.1406,-5.1406,-5.1406,-5.1406,-5.1406,-5.1406,-5.1406,-5.1406,-5.1406,-5.1406,-5.1406,-5.1406,-5.1406,-5.1406,-5.1406,-5.1406,-5.1406,-5.1406,-5.1406,-5.1406,-5.1406,-5.1406,-5.1406,-5.1406,-5.1406,-5.1406,-5.1406,-5.1406,-5.1406,-5.1406,-5.1406,-5.1406,-5.1406,-5.1406,-5.1406,-5.1406,-5.1406,-5.1406,-5.1406,-5.1406,-5.1406,-5.1406,-5.1406,-5.1406,-5.1406,-5.1406,-5.1406,-5.1406,-5.1406,-5.1406,-5.1403,-5.1398,-5.1829,-5.2203,-5.2646,-5.3801,-5.519,-5.6154,-5.5744,-5.6602,-5.7309,-5.6602,-5.6464,-5.6455,-5.6426,-5.6331,-5.6174,-5.6056,-5.5956,-5.5875,-5.5847,-5.5757,-5.5703,-5.5703,-5.5703,-5.5778,-5.5967,-5.5213,-5.4572,-5.4285,-5.3475,-5.2788,-5.2324,-5.2029,-5.1875,-5.1875,-5.1562,-5.1406,-5.1406,-5.1406,-5.1406,-5.1406,-5.1361,-5.1362,-5.1406,-5.1361,-5.1362,-5.1406,-5.1406,-5.1406,-5.1406,-5.1406,-5.1406,-5.1406,-5.1406,-5.1406,-5.1406,-5.1406,-5.1406,-5.1406,-5.1406,-5.1406,-5.1406,-5.1406,-5.1406,-5.1406,-5.1406,-5.1406,-5.1406,-5.1406,-5.1406,-5.1406,-5.1406,-5.1406,-5.1406,-5.1406,-5.1406,-5.1406,-5.1406,-5.1406,-5.1406,-5.1406,-5.1406,-5.1406,-5.1406,-5.1406,-5.1406,-5.1406,-5.1406,-5.1406,-5.1406,-5.1406,-5.1406,-5.1406,-5.1406,-5.1406,-5.1406,-5.1406,-5.1406,-5.1406,-5.1406,-5.1406,-5.1406,-5.1406,-5.1406,-5.1406,-5.1406,-5.1406,-5.1406,-5.1405,-5.1403,-5.1402,-5.1393,-5.1398,-5.1618,-5.1702,-5.1896,-5.305,-5.3958,-5.4672,-5.5157,-5.5994,-5.6553,-5.615,-5.6057,-5.598,-5.5684,-5.5792,-5.5986,-5.6142,-5.6094,-5.6007,-5.5912,-5.5808,-5.5747,-5.5714,-5.5703,-5.5767,-5.5949,-5.5219,-5.4604,-5.4255,-5.3208,-5.236,-5.1867,-5.1561,-5.1406,-5.1406,-5.1406,-5.1406,-5.1406,-5.1406,-5.1386,-5.1363,-5.1328,-5.1328,-5.1363,-5.1327,-5.1335,-5.1406,-5.1406,-5.1406,-5.1406,-5.1406,-5.1406,-5.1406,-5.1406,-5.1406,-5.1406,-5.1406,-5.1406,-5.1406,-5.1406,-5.1406,-5.1406,-5.1406,-5.1406,-5.1406,-5.1406,-5.1406,-5.1406,-5.1406,-5.1406,-5.1406,-5.1406,-5.1406,-5.1406,-5.1406,-5.1406,-5.1406,-5.1406,-5.1406,-5.1406,-5.1406,-5.1406,-5.1406,-5.1406,-5.1406,-5.1406,-5.1406,-5.1406,-5.1406,-5.1406,-5.1406,-5.1406,-5.1406,-5.1406,-5.1406,-5.1406,-5.1406,-5.1406,-5.1406,-5.1406,-5.1406,-5.1406,-5.1406,-5.1406,-5.1406,-5.1406,-5.1406,-5.1406,-5.1402,-5.1398,-5.1398,-5.1396,-5.1389,0.0,0.0,0.0,-5.2924,-5.2724,-5.2809,-5.5475,-5.5507,-5.5004,-5.5145,-5.5179,-5.4936,-5.4089,-5.4629,-5.5436,-5.6195,-5.6302,-5.6207,-5.5938,-5.5893,-5.5837,-5.5705,-5.5684,-5.5747,-5.5884,-5.5242,-5.4917,-5.5081,-5.363,-5.2726,-5.2695,-5.1875,-5.1406,-5.1406,-5.1406,-5.1406,-5.1406,-5.1406,-5.1364,-5.1299,-5.1297,-5.1297,-5.1299,-5.1295,-5.1334,-5.1406,-5.1406,-5.1406,-5.1406,-5.1406,-5.1406,-5.1406,-5.1406,-5.1406,-5.1406,-5.1406,-5.1406,-5.1406,-5.1406,-5.1406,-5.1406,-5.1406,-5.1406,-5.1406,-5.1406,-5.1406,-5.1406,-5.1406,-5.1406,-5.1406,-5.1406,-5.1406,-5.1406,-5.1406,-5.1406,-5.1406,-5.1406,-5.1406,-5.1406,-5.1406,-5.1406,-5.1406,-5.1406,-5.1406,-5.1406,-5.1406,-5.1406,-5.1406,-5.1406,-5.1406,-5.1406,-5.1406,-5.1406,-5.1406,-5.1406,-5.1406,-5.1406,-5.1406,-5.1406,-5.1406,-5.1406,-5.1406,-5.1406,-5.1406,-5.1406,-5.1406,-5.1406,-5.1402,-5.1397,-5.1397,-5.1399,-5.1356,-5.1277,0.0,0.0,0.0,0.0,0.0,-5.3284,-5.3841,-5.4236,-5.4314,-5.4786,-5.5134,-5.4875,-5.5031,-5.5466,-5.6317,-5.6238,-5.606,-5.5968,-5.5769,-5.5607,-5.5562,-5.5551,-5.5621,-5.5808,-5.57,-5.545,-5.5135,-5.4145,-5.3305,-5.2734,-5.1875,-5.1406,-5.1406,-5.1406,-5.1406,-5.1406,-5.1406,-5.1386,-5.1365,-5.1277,-5.1282,-5.1364,-5.1277,-5.1291,-5.1406,-5.1406,-5.1406,-5.1406,-5.1406,-5.1406,-5.1406,-5.1406,-5.1406,-5.1406,-5.1406,-5.1406,-5.1406,-5.1406,-5.1406,-5.1406,-5.1406,-5.1406,-5.1406,-5.1406,-5.1406,-5.1406,-5.1406,-5.1406,-5.1406,-5.1406,-5.1406,-5.1406,-5.1406,-5.1406,-5.1406,-5.1406,-5.1406,-5.1406,-5.1406,-5.1406,-5.1406,-5.1406,-5.1406,-5.1406,-5.1406,-5.1406,-5.1406,-5.1406,-5.1406,-5.1406,-5.1406,-5.1406,-5.1406,-5.1406,-5.1406,-5.1406,-5.1406,-5.1406,-5.1406,-5.1402,-5.1402,-5.1402,-5.1402,-5.1395,-5.1395,-5.1402,-5.1391,-5.1402,-5.1402,-5.1349,-5.1312,-5.1395,-5.1304,-5.1301,-5.1681,0.0,0.0,-5.2884,-5.3167,-5.3306,-5.343,-5.3835,-5.4154,-5.4158,-5.4451,-5.4873,-5.5377,-5.5819,-5.6057,-5.6017,-5.5818,-5.5756,-5.6014,-5.6029,-5.6129,-5.6357,-5.6443,-5.6264,-5.5721,-5.4931,-5.3958,-5.2754,-5.1875,-5.1406,-5.1406,-5.1406,-5.1406,-5.1406,-5.1406,-5.1386,-5.1361,-5.1282,-5.1284,-5.1361,-5.1282,-5.1297,-5.1406,-5.1406,-5.1406,-5.1406,-5.1406,-5.1406,-5.1406,-5.1406,-5.1406,-5.1406,-5.1406,-5.1406,-5.1406,-5.1406,-5.1406,-5.1406,-5.1406,-5.1406,-5.1406,-5.1406,-5.1406,-5.1406,-5.1406,-5.1406,-5.1406,-5.1406,-5.1406,-5.1406,-5.1406,-5.1406,-5.1406,-5.1406,-5.1406,-5.1406,-5.1406,-5.1406,-5.1406,-5.1406,-5.1406,-5.1406,-5.1406,-5.1406,-5.1406,-5.1406,-5.1406,-5.1406,-5.1406,-5.1406,-5.1406,-5.1406,-5.1406,-5.1406,-5.1406,-5.1406,-5.1403,-5.1398,-5.1394,-5.139,-5.139,-5.14,-5.1396,-5.14,-5.1406,-5.1394,-5.1361,-5.1323,-5.13,-5.1406,-5.1406,-5.1582,-5.2358,-5.1888,0.0,-5.3328,-5.2979,-5.2345,-5.2518,-5.2637,-5.2695,-5.2691,-5.3332,-5.3893,-5.3973,-5.5019,-5.5814,-5.5884,-5.5877,-5.6107,-5.6733,-5.6812,-5.6942,-5.7295,-5.7326,-5.7123,-5.6677,-5.5718,-5.4433,-5.2793,-5.1875,-5.1406,-5.1406,-5.1406,-5.1406,-5.1406,-5.1406,-5.1364,-5.1302,-5.1299,-5.1299,-5.1302,-5.1299,-5.1335,-5.1406,-5.1406,-5.1406,-5.1406,-5.1406,-5.1406,-5.1406,-5.1406,-5.1406,-5.1406,-5.1406,-5.1406,-5.1406,-5.1406,-5.1406,-5.1406,-5.1406,-5.1406,-5.1406,-5.1406,-5.1406,-5.1406,-5.1406,-5.1406,-5.1406,-5.1406,-5.1406,-5.1406,-5.1406,-5.1406,-5.1406,-5.1406,-5.1406,-5.1406,-5.1406,-5.1406,-5.1406,-5.1406,-5.1406,-5.1406,-5.1406,-5.1406,-5.1406,-5.1406,-5.1406,-5.1406,-5.1406,-5.1406,-5.1406,-5.1406,-5.1406,-5.1406,-5.1406,-5.1403,-5.1397,-5.1396,-5.1402,-5.139,-5.139,-5.139,-5.1399,-5.1388,-5.1391,-5.1375,-5.13,-5.13,-5.13,-5.1406,-5.1406,-5.1445,-5.1601,-5.1503,0.0,-5.1816,-5.1752,-5.1611,-5.164,-5.2205,-5.2691,-5.2695,-5.2848,-5.3171,-5.3897,-5.361,-5.3756,-5.5015,-5.5498,-5.6011,-5.6779,-5.6879,-5.7212,-5.8081,-5.7742,-5.7459,-5.746,-5.5463,-5.3808,-5.2754,-5.1875,-5.1406,-5.1406,-5.1406,-5.1406,-5.1406,-5.1406,-5.1386,-5.1386,-5.133,-5.1331,-5.1385,-5.133,-5.1335,-5.1406,-5.1406,-5.1406,-5.1406,-5.1406,-5.1406,-5.1406,-5.1406,-5.1406,-5.1406,-5.1406,-5.1406,-5.1406,-5.1406,-5.1406,-5.1406,-5.1406,-5.1406,-5.1406,-5.1406,-5.1406,-5.1406,-5.1406,-5.1406,-5.1406,-5.1406,-5.1406,-5.1406,-5.1406,-5.1406,-5.1406,-5.1406,-5.1406,-5.1406,-5.1406,-5.1406,-5.1406,-5.1406,-5.1406,-5.1406,-5.1406,-5.1406,-5.1406,-5.1406,-5.1406,-5.1406,-5.1406,-5.1406,-5.1406,-5.1406,-5.1406,-5.1406,-5.1406,-5.1403,-5.1394,-5.14,-5.1399,-5.1403,-5.1403,-5.1403,-5.1369,-5.1312,-5.1362,-5.1375,-5.13,-5.13,-5.13,-5.1406,-5.1406,-5.1406,-5.1406,-5.1406,0.0,0.0,-5.1406,-5.1405,-5.1406,-5.1757,-5.2186,-5.2617,-5.2695,-5.2848,-5.3274,-5.3697,-5.3922,-5.3854,-5.4693,-5.575,-5.6914,-5.7054,-5.7295,-5.7891,-5.7683,-5.7408,-5.7176,-5.5194,-5.3808,-5.3379,-5.2109,-5.1406,-5.1406,-5.1406,-5.1406,-5.1406,-5.1406,-5.1406,-5.1406,-5.1363,-5.1364,-5.1406,-5.1363,-5.1364,-5.1406,-5.1406,-5.1406,-5.1406,-5.1406,-5.1406,-5.1406,-5.1406,-5.1406,-5.1406,-5.1406,-5.1406,-5.1406,-5.1406,-5.1406,-5.1406,-5.1406,-5.1406,-5.1406,-5.1406,-5.1406,-5.1406,-5.1406,-5.1406,-5.1406,-5.1406,-5.1406,-5.1406,-5.1406,-5.1406,-5.1406,-5.1406,-5.1406,-5.1406,-5.1406,-5.1406,-5.1406,-5.1406,-5.1406,-5.1406,-5.1406,-5.1406,-5.1406,-5.1406,-5.1406,-5.1406,-5.1406,-5.1406,-5.1406,-5.1406,-5.1406,-5.1406,-5.1406,-5.1399,-5.1405,-5.1394,-5.1375,-5.1349,-5.1349,-5.1349,-5.1339,-5.13,-5.1339,-5.1339,-5.13,-5.13,-5.13,-5.1406,-5.1406,-5.1406,-5.1406,-5.1406,-5.1406,0.0,0.0,0.0,-5.1406,-5.1406,-5.1621,-5.2324,-5.2441,-5.2441,-5.2441,-5.3632,-5.4121,-5.2871,-5.3732,-5.5045,-5.6575,-5.7049,-5.7328,-5.749,-5.7388,-5.7118,-5.664,-5.498,-5.4004,-5.4004,-5.2519,-5.1562,-5.1406,-5.1406,-5.1406,-5.1406,-5.1406,-5.1406,-5.1406,-5.1406,-5.1406,-5.1406,-5.1406,-5.1406,-5.1406,-5.1406,-5.1406,-5.1406,-5.1406,-5.1406,-5.1406,-5.1406,-5.1406,-5.1406,-5.1406,-5.1406,-5.1406,-5.1406,-5.1406,-5.1406,-5.1406,-5.1406,-5.1406,-5.1406,-5.1406,-5.1406,-5.1406,-5.1406,-5.1406,-5.1406,-5.1406,-5.1406,-5.1406,-5.1406,-5.1406,-5.1406,-5.1406,-5.1406,-5.1406,-5.1406,-5.1406,-5.1406,-5.1406,-5.1406,-5.1406,-5.1406,-5.1406,-5.1406,-5.1406,-5.1406,-5.1406,-5.1406,-5.1406,-5.1406,-5.1406,-5.1406,-5.1406,-5.1394,-5.1394,-5.1394,-5.134,-5.13,-5.13,-5.13,-5.13,-5.13,-5.13,-5.13,-5.13,-5.13,-5.13,-5.1406,-5.1406,-5.1406,-5.1406,-5.1406,-5.1406,-5.1406,0.0,-5.1406,-5.1406,0.0,-5.1426,-5.1523,0.0,0.0,-5.1556,-5.1713,-5.2045,-5.2611,-5.284,-5.3494,-5.4985,-5.6539,-5.7463,-5.7496,-5.7022,-5.6679,-5.6601,-5.498,-5.4004,-5.4004,-5.3086,-5.2207,-5.1426,-5.1406,-5.1406,-5.1406,-5.1406,-5.1406,-5.1406,-5.1406,-5.1406,-5.1406,-5.1406,-5.1406,-5.1406,-5.1406,-5.1406,-5.1406,-5.1406,-5.1406,-5.1406,-5.1406,-5.1406,-5.1406,-5.1406,-5.1406,-5.1406,-5.1406,-5.1406,-5.1406,-5.1406,-5.1406,-5.1406,-5.1406,-5.1406,-5.1406,-5.1406,-5.1406,-5.1406,-5.1406,-5.1406,-5.1406,-5.1406,-5.1406,-5.1406,-5.1406,-5.1406,-5.1406,-5.1406,-5.1406,-5.1406,-5.1406,-5.1406,-5.1406,-5.1406,-5.1406,-5.1406,-5.1406,-5.1406,-5.1406,-5.1406,-5.1406,-5.1406,-5.1406,-5.1406,-5.1406,-5.1406,-5.1394,-5.1394,-5.1394,-5.134,-5.13,-5.13,-5.13,-5.13,-5.13,-5.13,-5.13,-5.13,-5.13,-5.13,-5.1406,-5.1406,-5.1406,-5.1406,-5.1406,-5.1406,-5.1406,-5.1406,-5.1406,-5.1406,0.0,0.0,0.0,0.0,0.0,0.0,-5.1815,-5.2108,-5.1971,-5.2811,-5.3687,-5.4293,-5.5023,-5.5665,-5.6163,-5.5992,-5.6055,-5.6562,-5.4512,-5.3476,-5.3965,-5.2695,-5.1777,-5.1406,-5.1406,-5.1406,-5.1406,-5.1406,-5.1406,-5.1406,-5.1406,-5.1385,-5.1338,-5.1386,-5.1385,-5.1338,-5.1386,-5.1406,-5.1406,-5.1406,-5.1406,-5.1406,-5.1406,-5.1406,-5.1406,-5.1406,-5.1406,-5.1406,-5.1406,-5.1406,-5.1406,-5.1406,-5.1406,-5.1406,-5.1406,-5.1406,-5.1406,-5.1406,-5.1406,-5.1406,-5.1406,-5.1406,-5.1406,-5.1406,-5.1406,-5.1406,-5.1406,-5.1406,-5.1406,-5.1406,-5.1406,-5.1406,-5.1406,-5.1406,-5.1406,-5.1406,-5.1406,-5.1406,-5.1404,-5.1404,-5.1402,-5.1396,-5.1401,-5.1404,-5.1404,-5.1406,-5.1406,-5.1406,-5.1394,-5.1381,-5.1349,-5.1319,-5.13,-5.13,-5.13,-5.13,-5.13,-5.13,-5.13,-5.13,-5.13,-5.13,-5.1406,-5.1406,-5.1406,-5.1406,-5.1406,-5.1406,-5.1406,-5.1406,-5.1406,-5.1406,-5.1406,0.0,0.0,0.0,-5.1406,-5.1406,0.0,-5.2129,-5.1484,-5.248,-5.3281,-5.3281,-5.3492,-5.398,-5.4863,-5.4726,-5.5058,-5.6152,-5.4043,-5.3086,-5.3945,-5.2578,-5.1641,-5.1406,-5.1406,-5.1406,-5.1406,-5.1406,-5.1386,-5.1365,-5.1365,-5.1358,-5.1297,-5.1359,-5.1361,-5.1333,-5.1385,-5.1406,-5.1406,-5.1406,-5.1406,-5.1406,-5.1406,-5.1406,-5.1406,-5.1406,-5.1406,-5.1406,-5.1406,-5.1406,-5.1406,-5.1406,-5.1406,-5.1406,-5.1406,-5.1406,-5.1406,-5.1406,-5.1406,-5.1406,-5.1406,-5.1406,-5.1406,-5.1406,-5.1406,-5.1406,-5.1406,-5.1406,-5.1406,-5.1406,-5.1405,-5.1404,-5.1404,-5.1406,-5.1406,-5.1406,-5.1406,-5.1405,-5.1399,-5.1395,-5.1409,-5.1396,-5.1407,-5.1394,-5.1394,-5.1402,-5.1405,-5.1404,-5.1405,-5.1364,-5.1304,-5.13,-5.13,-5.13,-5.13,-5.13,-5.13,-5.13,-5.13,-5.13,-5.13,-5.13,-5.1406,-5.1406,-5.1406,-5.1406,-5.1406,-5.1406,-5.1406,-5.1406,-5.1406,-5.1406,-5.1406,-5.1406,-5.1406,-5.1406,-5.1406,-5.1406,-5.1426,0.0,0.0,-5.1443,-5.1476,-5.1476,-5.2238,-5.3082,-5.3965,-5.3281,-5.3496,-5.5215,-5.3691,-5.3086,-5.3945,-5.3144,-5.2266,-5.1426,-5.1406,-5.1406,-5.1406,-5.1406,-5.1364,-5.1299,-5.1299,-5.1299,-5.1297,-5.1299,-5.1335,-5.1406,-5.1406,-5.1406,-5.1406,-5.1406,-5.1406,-5.1406,-5.1406,-5.1406,-5.1406,-5.1406,-5.1406,-5.1406,-5.1406,-5.1406,-5.1406,-5.1406,-5.1406,-5.1406,-5.1406,-5.1406,-5.1406,-5.1406,-5.1406,-5.1406,-5.1406,-5.1406,-5.1406,-5.1406,-5.1406,-5.1406,-5.1406,-5.1404,-5.1398,-5.1398,-5.1408,-5.1396,-5.1396,-5.14,-5.1406,-5.1406,-5.1404,-5.1398,-5.1398,-5.1407,-5.1394,-5.1394,-5.1394,-5.1394,-5.1394,-5.1391,-5.1394,-5.1398,-5.1394,-5.1359,-5.13,-5.13,-5.13,-5.13,-5.13,-5.13,-5.13,-5.13,-5.13,-5.13,-5.13,-5.13,0.0,0.0,-5.1406,-5.1406,-5.1406,-5.1406,-5.1406,-5.1406,-5.1406,-5.1406,-5.1406,-5.1406,-5.1406,-5.1406,-5.1406,-5.1406,-5.1406,-5.1406,0.0,-5.1406,-5.1405,-5.1405,-5.2167,-5.2812,-5.3105,-5.2871,-5.3183,-5.4355,-5.2812,-5.2226,-5.3086,-5.2305,-5.1699,-5.1406,-5.1406,-5.1406,-5.1406,-5.1406,-5.1363,-5.1297,-5.1297,-5.0967,-5.0381,-5.1028,-5.0992,-5.0514,-5.1132,-5.1406,-5.1406,-5.1406,-5.1406,-5.1406,-5.1406,-5.1406,-5.1406,-5.1406,-5.1406,-5.1406,-5.1406,-5.1406,-5.1406,-5.1406,-5.1406,-5.1406,-5.1406,-5.1406,-5.1406,-5.1406,-5.1406,-5.1406,-5.1406,-5.1406,-5.1406,-5.1406,-5.1406,-5.1406,-5.1404,-5.1401,-5.1396,-5.1407,-5.1398,-5.1394,-5.1394,-5.1405,-5.1393,-5.1393,-5.1408,-5.14,-5.1406,-5.1396,-5.1383,-5.134,-5.1378,-5.1408,-5.1408,-5.1392,-5.1396,-5.1391,-5.14,-5.1379,-5.13,-5.13,-5.13,-5.13,-5.13,-5.13,-5.13,-5.13,-5.13,-5.13,-5.13,-5.13,-5.1406,-5.1406,0.0,-5.1406,-5.1406,-5.1406,-5.1406,-5.1406,-5.1406,-5.1406,-5.1406,-5.1406,-5.1406,-5.1406,-5.1406,-5.1406,-5.1406,-5.1406,0.0,-5.1406,-5.1406,-5.1406,-5.1894,-5.2246,-5.2246,-5.2246,-5.2598,-5.3476,-5.2207,-5.1777,-5.2656,-5.1875,-5.1406,-5.1406,-5.1406,-5.1406,-5.1406,-5.1406,-5.1363,-5.1297,-5.0969,-5.05,-4.9933,-5.0227,-5.0061,-4.9655,-5.0585,-5.0976,-5.0996,-5.1289,-5.1406,-5.1406,-5.1406,-5.1406,-5.1406,-5.1406,-5.1406,-5.1406,-5.1406,-5.1406,-5.1406,-5.1406,-5.1406,-5.1406,-5.1406,-5.1406,-5.1406,-5.1406,-5.1406,-5.1406,-5.1406,-5.1406,-5.1406,-5.1405,-5.1405,-5.1404,-5.1395,-5.1407,-5.1398,-5.1406,-5.1374,-5.1366,-5.1366,-5.1366,-5.1374,-5.1392,-5.1408,-5.1396,-5.1397,-5.1385,-5.1346,-5.1304,-5.1342,-5.1362,-5.1394,-5.1383,-5.1364,-5.1394,-5.1382,-5.1346,-5.13,-5.13,-5.13,-5.13,-5.13,-5.13,-5.13,-5.13,-5.13,-5.13,-5.13,-5.13]},{"header":{"parameterUnit":"m.s-1","parameterCategory":1,"la1":30.6,"la2":29.2853,"lo1":-89.7004,"lo2":-87.6739,"dy":0.0162,"dx":0.0183,"nx":112,"ny":82,"refTime":"2024-05-21T12:00:00:Z","depth":0,"parameterNumber":3,"parameterNumberName":"V-component_of_WINDS"},"data":[0.0,0.0,0.0,0.0,0.0,0.0,0.0,0.0,0.0,0.0,0.0,0.0,0.0,0.0,0.0,0.0,0.0,0.0,0.0,0.0,0.0,0.0,0.0,0.0,0.0,0.0,0.0,0.0,0.0,0.0,0.0,0.0,0.0,0.0,0.0,0.0,0.0,0.0,0.0,0.0,0.0,0.0,0.0,0.0,0.0,0.0,0.0,0.0,0.0,0.0,0.0,0.0,0.0,0.0,0.0,0.0,0.0,0.0,0.0,0.0,0.0,0.0,0.0,0.0,0.0,0.0,0.0,0.0,0.0,0.0,0.0,0.0,0.0,0.0,0.0,0.0,0.0,0.0,0.0,0.0,0.0,0.0,0.0,0.0,0.0,0.0,0.0,0.0,0.0,0.0,-1.9561,-1.9965,-2.0605,-2.1068,-2.1068,-2.2389,-2.2286,-2.0119,0.0,0.0,0.0,0.0,0.0,0.0,0.0,0.0,0.0,0.0,0.0,0.0,0.0,0.0,0.0,0.0,0.0,0.0,0.0,0.0,0.0,0.0,0.0,0.0,0.0,0.0,0.0,0.0,0.0,0.0,0.0,0.0,0.0,0.0,0.0,0.0,0.0,0.0,0.0,0.0,0.0,0.0,0.0,0.0,0.0,0.0,0.0,0.0,0.0,0.0,0.0,0.0,0.0,0.0,0.0,0.0,0.0,0.0,0.0,0.0,0.0,0.0,0.0,0.0,0.0,0.0,0.0,0.0,0.0,0.0,0.0,0.0,0.0,0.0,0.0,0.0,0.0,0.0,0.0,0.0,0.0,0.0,0.0,0.0,0.0,0.0,0.0,0.0,0.0,0.0,0.0,0.0,0.0,0.0,0.0,0.0,0.0,0.0,0.0,0.0,0.0,0.0,0.0,0.0,-1.9495,-2.0448,-2.0653,-2.0726,-2.0726,-2.21,-2.2136,-2.0106,0.0,0.0,0.0,0.0,0.0,0.0,0.0,0.0,0.0,0.0,0.0,0.0,0.0,0.0,0.0,0.0,0.0,0.0,0.0,0.0,0.0,0.0,0.0,0.0,0.0,0.0,0.0,0.0,0.0,0.0,0.0,0.0,0.0,0.0,0.0,0.0,0.0,0.0,0.0,0.0,0.0,0.0,0.0,0.0,0.0,0.0,0.0,0.0,0.0,0.0,0.0,0.0,0.0,0.0,0.0,0.0,0.0,0.0,0.0,0.0,0.0,0.0,0.0,0.0,0.0,0.0,0.0,0.0,0.0,0.0,0.0,0.0,0.0,0.0,0.0,0.0,0.0,0.0,0.0,0.0,0.0,0.0,0.0,0.0,0.0,0.0,0.0,0.0,0.0,0.0,0.0,0.0,0.0,0.0,0.0,0.0,0.0,0.0,0.0,0.0,0.0,0.0,0.0,-1.85,-1.881,-2.0551,-2.0665,-2.0665,-2.0665,-2.19,-2.1858,-2.0093,-2.078,0.0,0.0,0.0,0.0,0.0,0.0,0.0,0.0,0.0,0.0,0.0,0.0,0.0,0.0,0.0,0.0,0.0,0.0,0.0,0.0,0.0,0.0,0.0,0.0,0.0,0.0,0.0,0.0,0.0,0.0,0.0,0.0,0.0,0.0,0.0,0.0,0.0,0.0,0.0,0.0,0.0,0.0,0.0,0.0,0.0,0.0,0.0,0.0,0.0,0.0,0.0,0.0,0.0,0.0,0.0,0.0,0.0,0.0,0.0,0.0,0.0,0.0,0.0,0.0,0.0,0.0,0.0,0.0,0.0,0.0,0.0,0.0,0.0,0.0,0.0,0.0,0.0,0.0,0.0,0.0,0.0,0.0,0.0,0.0,0.0,0.0,0.0,0.0,0.0,0.0,0.0,0.0,0.0,0.0,0.0,0.0,0.0,0.0,0.0,0.0,0.0,0.0,-1.7982,-1.82,-1.9941,-2.0457,-2.0665,-2.0665,-2.1581,-2.1536,-1.9986,-2.0348,0.0,0.0,0.0,0.0,0.0,0.0,0.0,0.0,0.0,0.0,0.0,0.0,0.0,0.0,0.0,0.0,0.0,0.0,0.0,0.0,0.0,0.0,0.0,0.0,0.0,0.0,0.0,0.0,0.0,0.0,0.0,0.0,0.0,0.0,0.0,0.0,0.0,0.0,0.0,0.0,0.0,0.0,0.0,0.0,0.0,0.0,0.0,0.0,0.0,0.0,0.0,0.0,0.0,0.0,0.0,0.0,0.0,0.0,0.0,0.0,0.0,0.0,0.0,0.0,0.0,0.0,0.0,0.0,0.0,0.0,0.0,0.0,0.0,0.0,0.0,0.0,0.0,0.0,0.0,0.0,0.0,0.0,0.0,0.0,0.0,0.0,0.0,0.0,0.0,0.0,0.0,0.0,0.0,0.0,0.0,0.0,0.0,0.0,0.0,0.0,0.0,0.0,-1.6845,-1.8221,-1.8519,-1.982,-2.0665,-2.0665,-2.1155,-2.0952,-1.9688,-1.9848,0.0,0.0,0.0,0.0,0.0,0.0,0.0,0.0,0.0,0.0,0.0,0.0,0.0,0.0,0.0,0.0,0.0,0.0,0.0,0.0,0.0,0.0,0.0,0.0,0.0,0.0,0.0,0.0,0.0,0.0,0.0,0.0,0.0,0.0,0.0,0.0,0.0,0.0,0.0,0.0,0.0,0.0,0.0,0.0,0.0,0.0,0.0,0.0,0.0,0.0,0.0,0.0,0.0,0.0,0.0,0.0,0.0,0.0,0.0,0.0,0.0,0.0,0.0,0.0,0.0,0.0,0.0,0.0,0.0,0.0,0.0,0.0,0.0,0.0,0.0,0.0,0.0,0.0,0.0,0.0,0.0,0.0,0.0,0.0,0.0,0.0,0.0,0.0,0.0,0.0,0.0,0.0,0.0,0.0,0.0,0.0,0.0,0.0,0.0,0.0,0.0,0.0,-1.4843,-1.5813,-1.8127,-1.8758,-1.9433,-2.0355,-2.0532,-2.0315,-1.9636,0.0,0.0,0.0,0.0,0.0,0.0,0.0,0.0,0.0,0.0,0.0,0.0,0.0,0.0,0.0,0.0,0.0,0.0,0.0,0.0,0.0,0.0,0.0,0.0,0.0,0.0,0.0,0.0,0.0,0.0,0.0,0.0,0.0,0.0,0.0,0.0,0.0,0.0,0.0,0.0,0.0,0.0,0.0,0.0,0.0,0.0,0.0,0.0,0.0,0.0,0.0,0.0,0.0,0.0,0.0,0.0,0.0,0.0,0.0,0.0,0.0,0.0,0.0,0.0,0.0,0.0,0.0,0.0,0.0,0.0,0.0,0.0,0.0,0.0,0.0,0.0,0.0,0.0,0.0,0.0,0.0,0.0,0.0,0.0,0.0,0.0,0.0,0.0,0.0,0.0,0.0,0.0,0.0,0.0,0.0,0.0,0.0,0.0,0.0,0.0,0.0,0.0,-1.3044,-1.3133,-1.4169,-1.7192,-1.775,-1.8518,-1.9958,-1.9859,-1.9579,-1.9086,0.0,0.0,0.0,0.0,0.0,0.0,0.0,0.0,0.0,0.0,0.0,0.0,0.0,0.0,0.0,0.0,0.0,0.0,0.0,0.0,0.0,0.0,0.0,0.0,0.0,0.0,0.0,0.0,0.0,0.0,0.0,0.0,0.0,0.0,0.0,0.0,0.0,0.0,0.0,0.0,0.0,0.0,0.0,0.0,0.0,0.0,0.0,0.0,0.0,0.0,0.0,0.0,0.0,0.0,0.0,0.0,0.0,0.0,0.0,0.0,0.0,0.0,0.0,0.0,0.0,0.0,0.0,0.0,0.0,0.0,0.0,0.0,0.0,0.0,0.0,0.0,0.0,0.0,0.0,0.0,0.0,0.0,0.0,0.0,0.0,0.0,0.0,0.0,0.0,0.0,0.0,0.0,0.0,0.0,0.0,0.0,0.0,0.0,0.0,0.0,0.0,0.0,-1.0153,-1.1862,-1.3747,-1.5285,-1.6876,-1.8206,-1.9352,-1.9237,-1.8778,0.0,0.0,0.0,0.0,0.0,0.0,0.0,0.0,0.0,0.0,0.0,0.0,0.0,0.0,0.0,0.0,0.0,0.0,0.0,0.0,0.0,0.0,0.0,0.0,0.0,0.0,0.0,0.0,0.0,0.0,0.0,0.0,0.0,0.0,0.0,0.0,0.0,0.0,0.0,0.0,0.0,0.0,0.0,0.0,0.0,0.0,0.0,0.0,0.0,0.0,0.0,0.0,0.0,0.0,0.0,0.0,0.0,0.0,0.0,0.0,0.0,0.0,0.0,0.0,0.0,0.0,0.0,0.0,0.0,0.0,0.0,0.0,0.0,0.0,0.0,0.0,0.0,0.0,0.0,0.0,0.0,0.0,0.0,0.0,0.0,0.0,0.0,0.0,0.0,0.0,0.0,0.0,0.0,0.0,0.0,0.0,0.0,0.0,0.0,0.0,0.0,0.0,0.0,-1.0067,-1.0865,-1.2078,-1.3857,-1.5115,-1.641,-1.7629,-1.8067,-1.8126,-1.793,0.0,0.0,0.0,0.0,0.0,0.0,0.0,0.0,0.0,0.0,0.0,0.0,0.0,0.0,0.0,0.0,0.0,0.0,0.0,0.0,0.0,0.0,0.0,0.0,0.0,0.0,0.0,0.0,0.0,0.0,0.0,0.0,0.0,0.0,0.0,0.0,0.0,0.0,0.0,0.0,0.0,0.0,0.0,0.0,0.0,0.0,0.0,0.0,0.0,0.0,0.0,0.0,0.0,0.0,0.0,0.0,0.0,0.0,0.0,0.0,0.0,0.0,0.0,0.0,0.0,0.0,0.0,0.0,0.0,0.0,0.0,0.0,0.0,0.0,0.0,0.0,0.0,0.0,0.0,0.0,0.0,0.0,0.0,0.0,0.0,0.0,0.0,0.0,0.0,0.0,0.0,0.0,0.0,0.0,0.0,0.0,0.0,0.0,0.0,0.0,0.0,0.0,-0.9832,-1.0317,-1.1197,-1.2839,-1.3673,-1.4772,-1.6455,-1.6909,-1.7239,-1.7427,0.0,0.0,0.0,0.0,0.0,0.0,0.0,0.0,0.0,0.0,0.0,0.0,0.0,0.0,0.0,0.0,0.0,0.0,0.0,0.0,0.0,0.0,0.0,0.0,0.0,0.0,0.0,0.0,0.0,0.0,0.0,0.0,0.0,0.0,0.0,0.0,0.0,0.0,0.0,0.0,0.0,0.0,0.0,0.0,0.0,0.0,0.0,0.0,0.0,0.0,0.0,0.0,0.0,0.0,0.0,0.0,0.0,0.0,0.0,0.0,0.0,0.0,0.0,0.0,0.0,0.0,0.0,0.0,0.0,0.0,0.0,0.0,0.0,0.0,0.0,0.0,0.0,0.0,0.0,0.0,0.0,0.0,0.0,0.0,0.0,0.0,0.0,0.0,0.0,0.0,0.0,0.0,0.0,0.0,0.0,0.0,0.0,0.0,0.0,0.0,0.0,0.0,-0.9588,-1.01,-1.0913,-1.2099,-1.2422,-1.345,-1.5592,-1.5898,-1.6194,-1.6692,0.0,0.0,0.0,0.0,0.0,0.0,0.0,0.0,0.0,0.0,0.0,0.0,0.0,0.0,0.0,0.0,0.0,0.0,0.0,0.0,0.0,0.0,0.0,0.0,0.0,0.0,0.0,0.0,0.0,0.0,0.0,0.0,0.0,0.0,0.0,0.0,0.0,0.0,0.0,0.0,0.0,0.0,0.0,0.0,0.0,0.0,0.0,0.0,0.0,0.0,0.0,0.0,0.0,0.0,0.0,0.0,0.0,0.0,0.0,0.0,-0.9643,-0.9957,0.0,0.0,0.0,0.0,0.0,0.0,0.0,0.0,0.0,0.0,0.0,0.0,0.0,0.0,0.0,0.0,0.0,0.0,0.0,0.0,0.0,0.0,0.0,0.0,0.0,0.0,0.0,0.0,0.0,0.0,0.0,0.0,0.0,0.0,0.0,0.0,0.0,0.0,0.0,0.0,-0.9574,-0.9924,-1.0241,-1.0707,-1.1747,-1.2987,-1.4226,-1.5147,-1.5957,-1.668,-1.6157,0.0,0.0,0.0,0.0,0.0,0.0,0.0,0.0,0.0,0.0,0.0,0.0,0.0,0.0,0.0,0.0,0.0,0.0,0.0,0.0,0.0,0.0,0.0,0.0,0.0,0.0,0.0,0.0,0.0,0.0,0.0,0.0,0.0,0.0,0.0,0.0,0.0,0.0,0.0,0.0,0.0,0.0,0.0,0.0,0.0,0.0,0.0,0.0,0.0,0.0,0.0,0.0,0.0,0.0,0.0,0.0,0.0,0.0,0.0,-0.9973,-1.0307,0.0,0.0,0.0,0.0,0.0,0.0,0.0,0.0,0.0,0.0,0.0,0.0,0.0,0.0,0.0,0.0,0.0,0.0,0.0,0.0,0.0,0.0,0.0,0.0,0.0,0.0,0.0,0.0,0.0,0.0,0.0,0.0,0.0,0.0,0.0,0.0,0.0,0.0,0.0,0.0,-0.9462,-0.9758,-0.9971,-1.0049,-1.0739,-1.1705,-1.2747,-1.3333,-1.4258,-1.5699,-1.519,0.0,0.0,0.0,0.0,0.0,0.0,0.0,0.0,0.0,0.0,0.0,0.0,0.0,0.0,0.0,0.0,0.0,0.0,0.0,0.0,0.0,0.0,0.0,0.0,0.0,0.0,0.0,0.0,0.0,0.0,0.0,0.0,0.0,0.0,0.0,0.0,0.0,0.0,0.0,0.0,0.0,0.0,0.0,0.0,0.0,0.0,0.0,0.0,0.0,0.0,0.0,0.0,0.0,-0.2467,-0.3456,-0.5427,-0.5504,-0.6684,-0.8844,-1.002,-1.0628,-1.0741,-1.047,0.0,0.0,0.0,0.0,0.0,0.0,0.0,0.0,0.0,0.0,0.0,0.0,0.0,0.0,0.0,0.0,0.0,0.0,0.0,0.0,0.0,0.0,-0.9825,-0.968,-0.9852,-0.9839,-0.9351,0.0,0.0,0.0,0.0,0.0,0.0,0.0,0.0,0.0,0.0,0.0,-0.9347,-0.9618,-0.9791,-0.9819,-0.9852,-1.0407,-1.1599,-1.1537,-1.2338,-1.4313,-1.4072,-1.4077,0.0,0.0,0.0,0.0,0.0,0.0,0.0,0.0,0.0,0.0,0.0,0.0,0.0,0.0,0.0,0.0,0.0,0.0,0.0,0.0,0.0,0.0,0.0,0.0,0.0,0.0,0.0,0.0,0.0,0.0,0.0,0.0,0.0,0.0,0.0,0.0,0.0,0.0,0.0,0.0,0.0,0.0,0.0,0.0,0.0,0.0,0.0,-0.0421,-0.0982,-0.1206,-0.1427,-0.1854,-0.2886,-0.3119,-0.29,-0.5204,-0.6285,-0.6435,-0.8929,0.0,-1.0836,-1.0731,0.0,0.0,0.0,0.0,0.0,0.0,0.0,0.0,0.0,0.0,0.0,0.0,0.0,0.0,0.0,0.0,0.0,0.0,0.0,0.0,0.0,0.0,-0.992,-0.9829,-0.9862,-0.9896,-0.9622,-0.9564,-0.9449,-0.8939,-0.9025,-0.9032,0.0,0.0,0.0,0.0,0.0,0.0,-0.9357,-0.953,-0.9686,-0.9808,-0.973,-1.0189,-1.1398,-1.1404,-1.1792,-1.3,-1.2819,-1.2583,-1.2394,-1.1945,0.0,0.0,0.0,0.0,0.0,0.0,0.0,0.0,0.0,0.0,0.0,0.0,0.0,0.0,0.0,0.0,0.0,0.0,0.0,0.0,0.0,0.0,0.0,0.0,0.0,0.0,0.0,0.0,0.0,0.0,0.0,0.0,0.0,0.0,0.0,0.0,0.0,0.0,0.0,0.0,0.0,0.0,0.0,0.0,0.0,-0.0142,-0.0502,-0.0505,-0.0796,-0.1445,-0.1962,-0.2479,-0.299,-0.4226,-0.5242,-0.6183,-0.7417,-0.8852,-1.0391,-1.0793,-1.088,-1.0717,0.0,0.0,0.0,0.0,-1.0039,-1.0005,-1.0151,-1.0158,-1.0086,-0.9981,0.0,0.0,0.0,0.0,0.0,0.0,0.0,-0.9523,-0.9591,-0.9829,-0.997,-0.9903,-1.0066,-1.012,-0.9903,-0.9795,-0.9724,-0.9276,-0.9239,-0.9268,-0.8998,-0.8947,0.0,0.0,0.0,-0.9086,-0.9289,-0.931,-0.9408,-0.9557,-0.9517,-0.9714,-1.0288,-1.0195,-1.0572,-1.1673,-1.1542,-1.167,-1.2178,-1.1835,-1.1731,0.0,0.0,0.0,0.0,0.0,0.0,0.0,0.0,0.0,0.0,0.0,0.0,0.0,0.0,0.0,0.0,0.0,0.0,0.0,0.0,0.0,0.0,0.0,0.0,0.0,0.0,0.0,0.0,0.0,0.0,0.0,0.0,0.0,0.0,0.0,0.0,0.0,0.0,0.0,0.0,0.0,0.0,0.0,0.0,0.0,0.0,0.0,-0.0293,-0.0875,-0.1093,-0.1895,-0.3209,-0.3428,-0.4373,-0.5969,-0.6257,-0.7562,-0.9499,-1.0413,-1.0879,-1.1033,-1.0727,-1.0609,-1.0592,-1.0446,-1.0392,-1.0409,-1.0514,-1.0524,-1.0463,-1.028,-1.0081,-0.9926,-0.9652,0.0,0.0,0.0,0.0,-0.9618,-0.9652,-0.9795,-0.9977,-0.9936,-1.0107,-1.0178,-0.9963,-0.993,-0.9822,-0.951,-0.9439,-0.9378,-0.9245,-0.9062,0.0,-0.8888,-0.8885,-0.8991,-0.919,-0.921,-0.9268,-0.9364,-0.9347,-0.9323,-0.9323,-0.9184,-0.949,-1.0324,-1.0311,-1.0621,-1.1492,-1.1307,-1.1177,-1.1141,0.0,0.0,0.0,0.0,0.0,0.0,0.0,0.0,0.0,0.0,0.0,0.0,0.0,0.0,0.0,0.0,0.0,0.0,0.0,0.0,0.0,0.0,0.0,0.0,0.0,0.0,0.0,0.0,0.0,0.0,0.0,0.0,0.0,0.0,0.0,0.0,0.0,0.0,0.0,0.0,0.0,0.0,0.0,0.0,0.0,0.0,0.0,-0.0073,-0.0802,-0.1603,-0.2405,-0.3136,-0.3937,-0.4882,-0.5896,-0.7055,-0.8275,-0.9303,-1.0383,-1.1338,-1.1043,-1.0857,-1.084,-1.0755,-1.0697,-1.07,-1.0707,-1.0612,-1.0514,-1.0643,-1.0334,-0.9984,-0.996,-0.972,0.0,0.0,-0.9605,-0.9642,-0.9774,-0.9869,-0.995,-0.9866,-0.9886,-0.9957,-0.9866,-0.9832,-0.9785,-0.9629,-0.9598,-0.9503,-0.9262,0.0,-0.9096,-0.8905,-0.8885,-0.8991,-0.919,-0.921,-0.9268,-0.9364,-0.9309,-0.9221,-0.9221,-0.9032,-0.8947,-0.9002,-0.8995,-0.8992,-0.9047,-0.904,-0.9446,-1.0334,-0.9991,0.0,0.0,0.0,0.0,0.0,0.0,0.0,0.0,0.0,0.0,0.0,0.0,0.0,0.0,0.0,0.0,0.0,0.0,0.0,0.0,0.0,0.0,0.0,0.0,0.0,0.0,0.0,0.0,0.0,0.0,0.0,0.0,0.0,0.0,0.0,0.0,0.0,0.0,0.0,0.0,0.0,0.0,0.0,0.0,0.0,0.0,0.0,-0.0292,-0.0802,-0.1603,-0.2405,-0.3135,-0.401,-0.4882,-0.6402,-0.8136,-0.8532,-0.981,-1.1518,-1.1314,-1.1233,-1.1216,-1.106,-1.0945,-1.0799,-1.0799,-1.0768,-1.0633,-1.0585,-1.0402,-1.0198,-1.0198,-1.0015,-0.9822,-0.9815,-0.9822,-0.9758,-0.9808,-0.9863,-0.989,-0.9832,-0.9863,-0.9886,-0.9832,-0.9822,-0.9805,-0.9754,-0.9673,-0.9574,-0.9466,-0.934,-0.919,-0.9086,-0.8998,-0.8902,-0.9008,-0.9015,-0.9035,-0.9089,-0.9045,-0.9015,-0.9015,-0.8967,-0.8885,-0.8885,-0.8885,-0.8885,-0.8885,-0.8885,-0.903,-0.9244,-0.9028,-0.9213,0.0,0.0,0.0,0.0,0.0,0.0,0.0,0.0,0.0,0.0,0.0,0.0,0.0,0.0,0.0,0.0,0.0,0.0,0.0,0.0,0.0,0.0,0.0,0.0,0.0,0.0,0.0,0.0,0.0,0.0,0.0,0.0,0.0,0.0,0.0,0.0,0.0,0.0,0.0,0.0,0.0,0.0,0.0,0.0,0.0,0.0,0.0,-0.0438,-0.1239,-0.1676,-0.2479,-0.3501,-0.4083,-0.546,-0.734,-0.7849,-0.9152,-1.0881,-1.1291,-1.1467,-1.145,-1.1297,-1.1148,-1.1006,-1.084,-1.0739,-1.0704,-1.0602,-1.047,-1.0351,-1.0351,-1.0212,-0.9987,-0.9987,-0.9876,-0.9822,-0.9822,-0.9822,-0.9822,-0.9822,-0.9822,-0.9822,-0.9822,-0.9822,-0.9822,-0.9822,-0.9744,-0.9666,-0.9618,-0.9398,-0.9268,-0.9217,-0.9032,-0.8885,-0.8885,-0.8885,-0.8885,-0.8885,-0.8885,-0.8885,-0.8885,-0.8885,-0.8885,-0.8885,-0.8885,-0.8885,-0.8885,-0.8834,-0.8815,-0.8713,-0.8513,-0.8568,-0.8894,0.0,0.0,0.0,0.0,0.0,0.0,0.0,0.0,0.0,0.0,0.0,0.0,0.0,0.0,0.0,0.0,0.0,0.0,0.0,0.0,0.0,0.0,0.0,0.0,0.0,0.0,0.0,0.0,0.0,0.0,0.0,0.0,0.0,0.0,0.0,0.0,0.0,0.0,0.0,0.0,0.0,0.0,0.0,0.0,0.0,0.0,-0.0438,-0.1166,-0.1166,-0.2041,-0.3428,-0.3501,-0.4371,-0.5891,-0.7487,-0.8572,-0.9435,-1.1034,-1.1619,-1.1599,-1.1447,-1.129,-1.1114,-1.0822,-1.0721,-1.0721,-1.0721,-1.0619,-1.05,-1.0493,-1.0287,-0.9994,-0.9987,-0.9876,-0.9822,-0.9822,-0.9822,-0.9822,-0.9822,-0.9822,-0.9822,-0.9822,-0.9822,-0.9822,-0.9822,-0.9822,-0.9778,-0.9639,-0.9486,-0.933,-0.9241,-0.9032,0.0,-0.8885,-0.8885,-0.8885,-0.8885,-0.8885,-0.8885,-0.8885,-0.8885,-0.8885,-0.8885,-0.8885,-0.8885,-0.8885,-0.8798,-0.8716,-0.8716,-0.8428,-0.833,-0.833,0.0,0.0,0.0,0.0,0.0,0.0,0.0,0.0,0.0,0.0,0.0,0.0,0.0,0.0,0.0,0.0,0.0,0.0,0.0,0.0,0.0,0.0,0.0,0.0,0.0,0.0,0.0,0.0,0.0,0.0,0.0,0.0,0.0,0.0,0.0,0.0,0.0,0.0,0.0,0.0,0.0,0.0,0.0,0.0,0.0,0.0,-0.0146,-0.0365,-0.0948,-0.1749,-0.2698,-0.3281,-0.4371,-0.5891,-0.7487,-0.8572,-0.9435,-1.1034,-1.1619,-1.1599,-1.1447,-1.1229,-1.0978,-1.0789,-1.0721,-1.0721,-1.0721,-1.0694,-1.0636,-1.0524,-1.0365,-1.0195,-1.0017,-0.9876,-0.9822,-0.9822,-0.9822,-0.9822,-0.9822,-0.9822,-0.9822,-0.9822,-0.9822,-0.9822,-0.9822,-0.9822,-0.9808,-0.9771,-0.9551,-0.9367,-0.9323,-0.9103,-0.8885,-0.8885,-0.8885,-0.8885,-0.8885,-0.8885,-0.8885,-0.8885,-0.8885,-0.8885,-0.8885,-0.8885,-0.8885,-0.8885,-0.8844,-0.8821,-0.8821,-0.8577,-0.8425,0.0,0.0,0.0,0.0,0.0,0.0,0.0,0.0,0.0,0.0,0.0,0.0,0.0,0.0,0.0,0.0,0.0,0.0,0.0,0.0,0.0,0.0,0.0,0.0,0.0,0.0,0.0,0.0,0.0,0.0,0.0,0.0,0.0,0.0,0.0,0.0,0.0,0.0,0.0,0.0,0.0,0.0,0.0,0.0,0.0,0.0,0.0,0.0,0.0,-0.051,-0.1094,-0.1895,-0.2625,-0.3497,-0.4511,-0.705,-0.8208,0.0,0.0,0.0,0.0,0.0,-1.1148,-1.086,-1.0772,-1.0721,-1.0721,-1.0721,-1.0677,-1.0609,-1.0517,-1.0348,-1.0164,-1.0011,-0.9876,-0.9822,-0.9822,-0.9822,-0.9822,-0.9822,-0.9822,-0.9822,-0.9822,-0.9822,-0.9822,-0.9822,-0.9774,0.0,-0.9734,-0.9537,-0.9361,-0.9354,-0.9086,-0.8885,-0.8885,-0.8885,-0.8885,-0.8885,-0.8885,-0.8885,-0.8885,-0.8885,0.0,0.0,0.0,-0.8854,-0.8845,-0.879,0.0,0.0,0.0,0.0,0.0,0.0,0.0,0.0,-0.8479,-0.8506,0.0,0.0,0.0,0.0,0.0,0.0,0.0,0.0,0.0,0.0,0.0,0.0,0.0,0.0,0.0,0.0,0.0,0.0,0.0,0.0,0.0,0.0,0.0,0.0,0.0,0.0,0.0,0.0,0.0,0.0,0.0,0.0,0.0,0.0,0.0,0.0,0.0,0.0,0.0,0.0,0.0,0.0,0.0,0.0,-0.0438,-0.1239,-0.1968,-0.226,-0.2623,-0.6471,-0.7844,-0.7765,-1.0509,-1.1582,-1.1535,-1.1246,-1.1046,-1.0836,-1.0768,0.0,0.0,-1.0721,-1.0616,-1.0487,-1.0473,-1.0273,-0.9984,-0.9967,-0.9866,-0.9822,-0.9822,-0.9822,-0.9822,-0.9822,-0.9822,-0.9822,-0.9822,-0.9822,-0.9815,-0.9798,-0.9696,-0.9598,-0.9564,-0.9445,-0.931,-0.9231,-0.9032,-0.8885,-0.8885,-0.8885,-0.8885,-0.8885,0.0,0.0,-0.8771,-0.8716,-0.8716,-0.8716,-0.8716,-0.8656,-0.8524,-0.8517,-0.8517,-0.8517,-0.8517,-0.8583,-0.8716,-0.8716,-0.8716,-0.8706,-0.8424,-0.8381,0.0,0.0,0.0,0.0,0.0,0.0,0.0,0.0,0.0,0.0,0.0,0.0,0.0,0.0,0.0,0.0,0.0,0.0,0.0,0.0,0.0,0.0,0.0,0.0,0.0,0.0,0.0,0.0,0.0,0.0,0.0,0.0,0.0,0.0,0.0,0.0,0.0,0.0,0.0,0.0,0.0,0.0,0.0,0.0,-0.0438,-0.1239,-0.1603,-0.1968,-0.255,-0.6179,-0.8858,-1.0734,-1.1267,-1.1358,-1.1229,-1.1056,-1.0826,-1.0761,-1.0731,-1.0721,-1.0721,-1.0721,-1.0616,-1.047,-1.0354,-1.0192,0.0,-0.9839,-0.9842,-0.9822,-0.9822,-0.9822,-0.9822,-0.9822,-0.9822,-0.9822,-0.9822,-0.9822,-0.9788,-0.9673,-0.9629,-0.953,-0.9344,-0.9272,-0.9245,-0.9214,-0.9032,-0.8885,-0.8885,-0.8885,-0.8885,-0.8885,-0.8491,-0.8156,-0.8156,-0.7768,-0.7543,-0.7543,-0.7543,-0.7534,-0.7508,-0.7506,-0.7506,-0.7506,-0.7506,-0.752,-0.7543,-0.7543,-0.7543,-0.7543,-0.791,-0.8066,0.0,0.0,0.0,0.0,0.0,0.0,0.0,0.0,0.0,0.0,0.0,0.0,0.0,0.0,0.0,0.0,0.0,0.0,0.0,0.0,0.0,0.0,0.0,0.0,0.0,0.0,0.0,0.0,0.0,0.0,0.0,0.0,0.0,0.0,0.0,0.0,0.0,0.0,0.0,0.0,0.0,0.0,0.0,0.0,-0.0219,-0.0656,-0.1166,-0.1531,-0.1969,-0.4946,-0.7524,-0.955,-0.9921,-1.0528,-1.1214,-1.1002,-1.0853,-1.0721,-1.0721,-1.0721,-1.0721,-1.0721,-1.0234,-0.972,-1.0173,-0.9804,-0.9303,-0.966,-0.9822,-0.9822,-0.9822,-0.9822,-0.9822,-0.9822,-0.9822,-0.9822,-0.9822,-0.9764,-0.9693,-0.9625,-0.9486,-0.9334,-0.9234,-0.9093,-0.9045,-0.9045,-0.8703,-0.8436,-0.8436,-0.8214,-0.8045,-0.8045,-0.7768,-0.7598,-0.7598,-0.7376,-0.721,-0.721,-0.721,-0.721,-0.721,-0.721,-0.721,-0.721,-0.721,-0.721,-0.721,-0.721,-0.721,-0.721,-0.7154,-0.7321,0.0,0.0,0.0,0.0,0.0,0.0,0.0,0.0,0.0,0.0,0.0,0.0,0.0,0.0,0.0,0.0,0.0,0.0,0.0,0.0,0.0,0.0,0.0,0.0,0.0,0.0,0.0,0.0,0.0,0.0,0.0,0.0,0.0,0.0,0.0,0.0,0.0,0.0,0.0,0.0,0.0,0.0,0.0,0.0,0.0,-0.0073,-0.0802,-0.1312,-0.1896,-0.3786,-0.5771,-0.7537,-0.8189,-0.9248,-1.0479,-1.0751,-1.0622,-1.0316,-1.0316,-1.0452,-1.0588,-1.0047,-0.9397,-0.8924,-0.9443,-0.8854,-0.8132,-0.8924,-0.9105,-0.9045,-0.9045,-0.9064,-0.9022,-0.9022,-0.9268,-0.9444,-0.9357,-0.951,-0.9591,-0.9534,-0.9266,-0.9034,-0.8947,-0.8732,-0.8602,-0.8716,-0.8325,-0.7989,-0.7878,-0.7487,-0.721,-0.721,-0.7099,-0.6988,-0.6879,-0.6824,-0.6824,-0.6824,-0.6824,-0.6824,-0.6824,-0.6824,-0.6877,-0.6932,-0.6877,-0.6877,-0.6932,-0.6932,-0.6932,-0.6932,-0.6487,-0.6543,0.0,0.0,0.0,0.0,0.0,0.0,0.0,0.0,0.0,0.0,0.0,0.0,0.0,0.0,0.0,0.0,0.0,0.0,0.0,0.0,0.0,0.0,0.0,0.0,0.0,0.0,0.0,0.0,0.0,0.0,0.0,0.0,0.0,0.0,0.0,0.0,0.0,0.0,0.0,0.0,0.0,0.0,0.0,0.0,0.0,0.0,-0.0438,-0.1822,-0.3784,-0.4074,-0.5481,-0.746,-0.7068,-0.7203,-0.7876,-0.999,-0.9927,-0.8842,-0.8842,-0.9646,-1.025,-0.7702,-0.7754,-0.8603,-0.7454,-0.6862,-0.6561,-0.6679,-0.6504,-0.6326,-0.6326,-0.6326,-0.6326,-0.6326,-0.7243,-0.8074,-0.7908,-0.8778,-0.953,-0.9313,-0.8783,-0.8326,-0.8143,-0.7721,-0.7546,-0.8045,-0.8045,-0.7823,-0.7376,-0.721,-0.721,-0.721,-0.6707,-0.6209,-0.5659,-0.5605,-0.5605,-0.5605,-0.5605,-0.5605,-0.5605,-0.5605,-0.5714,-0.5933,-0.5714,-0.5714,-0.5933,-0.5933,-0.5933,-0.5989,-0.6216,-0.6325,0.0,0.0,0.0,0.0,0.0,0.0,0.0,0.0,0.0,0.0,0.0,0.0,0.0,0.0,0.0,0.0,0.0,0.0,0.0,0.0,0.0,0.0,0.0,0.0,0.0,0.0,0.0,0.0,0.0,0.0,0.0,0.0,0.0,0.0,0.0,0.0,0.0,0.0,0.0,0.0,0.0,0.0,0.0,0.0,0.0,0.0,-0.0438,-0.1167,-0.2113,-0.2549,-0.3437,-0.4459,-0.5095,-0.4956,-0.4816,-0.7304,-0.7852,-0.7303,-0.7303,-0.7702,-0.7969,-0.6767,-0.6509,-0.6682,-0.6492,-0.5984,-0.559,-0.5949,-0.6011,-0.5891,-0.5891,-0.5895,-0.5896,-0.5896,-0.6326,-0.6726,-0.6808,-0.7094,-0.7413,-0.7761,-0.7446,-0.7214,-0.7499,-0.7321,-0.7154,-0.7041,-0.6988,-0.6932,-0.6707,-0.6379,-0.6158,-0.6158,-0.5935,-0.5656,-0.5437,-0.5547,-0.5547,-0.5437,-0.5717,-0.5772,-0.5437,-0.5547,-0.5603,-0.5547,-0.5603,-0.5712,-0.5822,-0.5991,-0.6105,-0.6105,-0.6219,-0.6272,0.0,0.0,0.0,0.0,0.0,0.0,0.0,0.0,0.0,0.0,0.0,0.0,0.0,0.0,0.0,0.0,0.0,0.0,0.0,0.0,0.0,0.0,0.0,0.0,0.0,0.0,0.0,0.0,0.0,0.0,0.0,0.0,0.0,0.0,0.0,0.0,0.0,0.0,0.0,0.0,0.0,0.0,0.0,0.0,0.0,0.0,-0.0292,-0.0511,-0.0657,-0.124,-0.1782,-0.2268,-0.3227,-0.3174,-0.2834,-0.4538,-0.5503,-0.5834,-0.5834,-0.6099,-0.6299,-0.5499,-0.5199,-0.5208,-0.521,-0.4803,-0.4449,-0.4848,-0.4857,-0.4807,-0.4787,-0.4789,-0.4797,-0.4797,-0.5102,-0.5439,-0.5636,-0.5562,-0.5656,-0.6223,-0.5859,-0.5646,-0.6316,-0.6316,-0.6149,-0.6042,-0.6044,-0.6044,-0.6044,-0.5656,-0.5437,-0.5491,-0.5491,-0.5547,-0.5661,-0.5768,-0.5712,-0.5547,-0.5826,-0.5828,-0.5437,-0.5601,-0.5656,-0.5491,-0.5712,-0.5822,-0.5935,-0.6272,-0.6383,-0.6439,-0.6495,-0.655,0.0,0.0,0.0,0.0,0.0,0.0,0.0,0.0,0.0,0.0,0.0,0.0,0.0,0.0,0.0,0.0,0.0,0.0,0.0,0.0,0.0,0.0,0.0,0.0,0.0,0.0,0.0,0.0,0.0,0.0,0.0,0.0,0.0,0.0,0.0,0.0,0.0,0.0,0.0,0.0,0.0,0.0,0.0,0.0,0.0,0.0,0.0,-0.0219,-0.0584,-0.0657,-0.1283,-0.2132,-0.1787,-0.2028,-0.2571,-0.2307,-0.3123,-0.4367,-0.4367,-0.5233,-0.5965,-0.3227,-0.3627,-0.4889,-0.3223,-0.2813,-0.2884,-0.2606,-0.2266,-0.2044,-0.2013,-0.2052,-0.2099,-0.2099,-0.3081,-0.4027,-0.4146,-0.47,-0.517,-0.5004,-0.4023,-0.3466,-0.4416,-0.4081,-0.4085,-0.5268,-0.5437,-0.5437,-0.5437,-0.5437,-0.5493,-0.5766,-0.5766,-0.5935,-0.6219,-0.5991,-0.5822,-0.5766,-0.5547,-0.5437,-0.5382,-0.5382,-0.5547,-0.5766,-0.5822,-0.5935,-0.6274,-0.6548,-0.6715,-0.6715,-0.7046,-0.7154,0.0,0.0,0.0,0.0,0.0,0.0,0.0,0.0,0.0,0.0,0.0,0.0,0.0,0.0,0.0,0.0,0.0,0.0,0.0,0.0,0.0,0.0,0.0,0.0,0.0,0.0,0.0,0.0,0.0,0.0,0.0,0.0,0.0,0.0,0.0,0.0,0.0,0.0,0.0,0.0,0.0,0.0,0.0,0.0,0.0,0.0,0.0,-0.0073,-0.0219,-0.0506,-0.0778,-0.1099,-0.1429,-0.1742,-0.1977,-0.2043,-0.246,-0.2893,-0.2893,-0.3228,-0.349,-0.273,-0.2948,-0.3345,-0.2741,-0.2543,-0.2469,-0.2159,-0.1983,-0.1928,-0.1919,-0.1946,-0.1977,-0.1977,-0.2346,-0.263,-0.2667,-0.2648,-0.2737,-0.304,-0.3078,-0.3304,-0.4029,-0.4534,-0.4931,-0.5326,-0.5382,-0.5382,-0.5382,-0.5382,-0.5491,-0.5766,-0.5822,-0.5935,-0.6274,-0.6216,-0.6049,-0.5822,-0.5938,-0.5828,-0.5437,-0.5547,-0.5601,-0.5547,-0.5938,-0.6161,-0.6274,-0.6771,-0.7043,-0.7043,-0.7154,-0.721,0.0,0.0,0.0,0.0,0.0,0.0,0.0,0.0,0.0,0.0,0.0,0.0,0.0,0.0,0.0,0.0,0.0,0.0,0.0,0.0,0.0,0.0,0.0,0.0,0.0,0.0,0.0,0.0,0.0,0.0,0.0,0.0,0.0,0.0,0.0,0.0,0.0,0.0,0.0,0.0,0.0,0.0,0.0,0.0,0.0,0.0,0.0,0.0,0.0,-0.0287,-0.0421,-0.0546,-0.1019,-0.1273,-0.1451,-0.179,-0.1937,-0.202,-0.2155,-0.2222,-0.2218,-0.2399,-0.2491,-0.2576,-0.2423,-0.2367,-0.2367,-0.1994,-0.1939,-0.1945,-0.1934,-0.1954,-0.1977,-0.1977,-0.2091,-0.2128,-0.1956,-0.1643,-0.1449,-0.1521,-0.1737,-0.2185,-0.3357,-0.4646,-0.5547,-0.5547,-0.5435,-0.5382,-0.5382,-0.5382,-0.5491,-0.5766,-0.5822,-0.5935,-0.6274,-0.6216,-0.6047,-0.5822,-0.5938,-0.5828,-0.5437,-0.5547,-0.5603,-0.5382,-0.5996,-0.6274,-0.6274,-0.6882,-0.721,-0.721,-0.721,-0.721,0.0,0.0,0.0,0.0,0.0,0.0,0.0,0.0,0.0,0.0,0.0,0.0,0.0,0.0,0.0,0.0,0.0,0.0,0.0,0.0,0.0,0.0,0.0,0.0,0.0,0.0,0.0,0.0,0.0,0.0,0.0,0.0,0.0,0.0,0.0,0.0,0.0,0.0,0.0,0.0,0.0,0.0,0.0,0.0,0.0,0.0,0.0,0.0,0.0,0.0,-0.0209,-0.0472,-0.0478,-0.0676,-0.0991,-0.1407,-0.1616,-0.1683,-0.202,-0.2155,-0.2222,-0.2221,-0.2376,-0.2515,-0.2191,-0.2273,-0.2398,-0.2002,-0.1954,-0.197,-0.1941,-0.1955,-0.1977,-0.1977,-0.2197,-0.2282,-0.1892,-0.1572,-0.1203,-0.0506,0.0,-0.0336,-0.2349,-0.4362,-0.571,-0.571,-0.5547,-0.5437,-0.5382,-0.5382,-0.5491,-0.5766,-0.5822,-0.5935,-0.6274,-0.5991,-0.5822,-0.5822,-0.5547,-0.5382,-0.5382,-0.5382,-0.5382,-0.5382,-0.5996,-0.6274,-0.6274,-0.6879,-0.7154,-0.7154,-0.7154,-0.7154,0.0,0.0,0.0,0.0,0.0,0.0,0.0,0.0,0.0,0.0,0.0,0.0,0.0,0.0,0.0,0.0,0.0,0.0,0.0,0.0,0.0,0.0,0.0,0.0,0.0,0.0,0.0,0.0,0.0,0.0,0.0,0.0,0.0,0.0,0.0,0.0,0.0,0.0,0.0,0.0,0.0,0.0,0.0,0.0,0.0,0.0,0.0,0.0,0.0,0.0,-0.0069,-0.0137,-0.0407,-0.0539,-0.067,-0.1075,-0.1414,-0.1616,-0.175,-0.1953,-0.2218,-0.2461,-0.2553,-0.2575,-0.2419,-0.2442,-0.2404,-0.2089,-0.1971,-0.1975,-0.1967,-0.1971,-0.1915,-0.1667,-0.1847,-0.1889,-0.1008,-0.0998,-0.0929,-0.0226,-0.0505,-0.1233,-0.2464,-0.3863,-0.4758,-0.4477,-0.515,-0.5601,-0.5437,-0.5382,-0.5491,-0.5766,-0.5822,-0.5935,-0.6274,-0.5991,-0.5822,-0.5822,-0.5547,-0.5382,-0.5382,-0.5382,-0.5382,-0.5382,-0.5768,-0.5935,-0.5935,-0.6328,-0.655,-0.655,-0.6715,-0.6824,0.0,0.0,0.0,0.0,0.0,0.0,0.0,0.0,0.0,0.0,0.0,0.0,0.0,0.0,0.0,0.0,0.0,0.0,0.0,0.0,0.0,0.0,0.0,0.0,0.0,0.0,0.0,0.0,0.0,0.0,0.0,0.0,0.0,0.0,0.0,0.0,0.0,0.0,0.0,0.0,0.0,0.0,0.0,0.0,0.0,0.0,0.0,0.0,0.0,0.0,0.0,0.0,-0.0203,-0.0269,-0.0337,-0.0673,-0.0942,-0.1212,-0.1683,-0.202,-0.2217,-0.2516,-0.2611,-0.2574,-0.2535,-0.2497,-0.2406,-0.2099,-0.1977,-0.1977,-0.1977,-0.1915,-0.1729,-0.1544,-0.1597,-0.1518,-0.0651,-0.0762,-0.0752,-0.0113,-0.0841,-0.1681,-0.2241,-0.3191,-0.3805,-0.3636,-0.4421,-0.4983,-0.4817,-0.5156,-0.5437,-0.5603,-0.5601,-0.5714,-0.5884,-0.5714,-0.5601,-0.5601,-0.5491,-0.5382,-0.5382,-0.5382,-0.5437,-0.5547,-0.5712,-0.588,-0.6047,-0.6219,-0.6274,-0.633,-0.6439,-0.655,0.0,0.0,0.0,0.0,0.0,0.0,0.0,0.0,0.0,0.0,0.0,0.0,0.0,0.0,0.0,0.0,0.0,0.0,0.0,0.0,0.0,0.0,0.0,0.0,0.0,0.0,0.0,0.0,0.0,0.0,0.0,0.0,0.0,0.0,0.0,0.0,0.0,0.0,0.0,0.0,0.0,0.0,0.0,0.0,0.0,0.0,0.0,0.0,0.0,0.0,0.0,0.0,0.0,0.0,-0.0067,-0.0337,-0.0471,-0.0673,-0.175,-0.2152,-0.2211,-0.2582,-0.2673,-0.2694,-0.2591,-0.2548,-0.2515,-0.2153,-0.2031,-0.2033,-0.1975,-0.1729,-0.1482,-0.1359,-0.1345,-0.1205,-0.0591,-0.0639,-0.0628,-0.0112,-0.084,-0.1567,-0.1567,-0.2294,-0.2909,-0.2853,-0.3469,-0.3861,-0.3805,-0.4761,-0.5382,-0.5382,-0.5382,-0.5382,-0.5382,-0.5382,-0.5382,-0.5382,-0.5382,-0.5382,-0.5382,-0.5382,-0.5491,-0.5766,-0.5766,-0.588,-0.6163,-0.6163,-0.6163,-0.6163,-0.6219,-0.6219,0.0,0.0,0.0,0.0,0.0,0.0,0.0,0.0,0.0,0.0,0.0,0.0,0.0,0.0,0.0,0.0,0.0,0.0,0.0,0.0,0.0,0.0,0.0,0.0,0.0,0.0,0.0,0.0,0.0,0.0,0.0,0.0,0.0,0.0,0.0,0.0,0.0,0.0,0.0,0.0,0.0,0.0,0.0,0.0,0.0,0.0,0.0,0.0,0.0,0.0,0.0,0.0,0.0,0.0,0.0,-0.0067,-0.0269,-0.0606,-0.1414,-0.187,-0.2249,-0.2837,-0.3173,-0.3285,-0.2925,-0.2975,-0.3035,-0.2472,-0.236,-0.2246,-0.1723,-0.1544,-0.1359,-0.0803,-0.0863,-0.0915,-0.0237,-0.0115,-0.0113,0.0,-0.0168,-0.0336,-0.0336,-0.1288,-0.1903,-0.1681,-0.2574,-0.3189,-0.2968,-0.437,-0.5382,-0.5382,-0.5382,-0.5382,-0.5382,-0.5382,-0.5382,-0.5382,-0.5382,-0.5382,-0.5382,-0.5382,-0.5437,-0.5491,-0.5491,-0.5491,-0.5549,-0.5549,-0.5549,-0.5549,-0.577,-0.588,-0.2425,-0.2441,-0.2454,-0.2454,-0.1848,-0.1191,-0.1191,-0.0549,0.0,0.0,0.0,0.0,0.0,0.0,0.0,0.0,0.0,0.0,0.0,0.0,0.0,0.0,0.0,0.0,0.0,0.0,0.0,0.0,0.0,0.0,0.0,0.0,0.0,0.0,0.0,0.0,0.0,0.0,0.0,0.0,0.0,0.0,0.0,0.0,0.0,0.0,0.0,0.0,0.0,0.0,0.0,0.0,0.0,0.0,0.0,0.0,-0.0135,-0.0337,-0.1077,-0.1667,-0.2236,-0.2851,-0.324,-0.3422,-0.3247,-0.3239,-0.319,-0.258,-0.2291,-0.2057,-0.1599,-0.1235,-0.0926,-0.0556,-0.0488,-0.0419,-0.0058,0.0,0.0,0.0,0.0,0.0,0.0,-0.0504,-0.0784,-0.0673,-0.1513,-0.2129,-0.1961,-0.3137,-0.4145,-0.4648,-0.4648,-0.4873,-0.5382,-0.5382,-0.5382,-0.5382,-0.5382,-0.5382,-0.5382,-0.5382,-0.5491,-0.5603,-0.5491,-0.5491,-0.5603,-0.5491,-0.5382,-0.5382,-0.5547,-0.5601,-0.4717,-0.4729,-0.4729,-0.4729,-0.3639,-0.2589,-0.2378,-0.1303,-0.0269,-0.0067,0.0,0.0,0.0,0.0,0.0,0.0,0.0,0.0,0.0,0.0,0.0,0.0,0.0,0.0,0.0,0.0,0.0,0.0,0.0,0.0,0.0,0.0,0.0,0.0,0.0,0.0,0.0,0.0,0.0,0.0,0.0,0.0,0.0,0.0,0.0,0.0,0.0,0.0,0.0,0.0,0.0,0.0,0.0,0.0,0.0,0.0,0.0,-0.0135,-0.0872,-0.146,-0.1959,-0.2727,-0.3233,-0.3488,-0.3482,-0.3312,-0.3055,-0.2507,-0.2105,-0.1696,-0.1353,-0.0864,-0.0493,-0.043,-0.018,0.0,0.0,0.0,0.0,0.0,0.0,0.0,0.0,0.0,0.0,0.0,-0.0561,-0.1009,-0.1009,-0.1681,-0.2464,-0.3304,-0.3582,-0.4088,-0.5043,-0.5098,-0.5212,-0.5382,-0.5382,-0.5382,-0.5382,-0.5382,-0.5491,-0.5712,-0.5491,-0.5491,-0.5712,-0.5491,-0.5382,-0.5382,-0.5382,-0.5382,-0.4728,-0.4729,-0.4729,-0.4729,-0.4211,-0.35,-0.2518,-0.185,-0.121,-0.0202,0.0,0.0,0.0,0.0,0.0,0.0,0.0,0.0,0.0,0.0,0.0,0.0,0.0,0.0,0.0,0.0,0.0,0.0,0.0,0.0,0.0,0.0,0.0,0.0,0.0,0.0,0.0,0.0,0.0,0.0,0.0,0.0,0.0,0.0,0.0,0.0,0.0,0.0,0.0,0.0,0.0,0.0,0.0,0.0,0.0,0.0,0.0,-0.0134,-0.0862,-0.1112,-0.1286,-0.2559,-0.3366,-0.3846,-0.373,-0.3228,-0.2714,-0.2407,-0.1908,-0.1332,-0.0738,-0.0556,-0.0431,-0.0121,0.0,0.0,0.0,0.0,0.0,0.0,0.0,0.0,0.0,0.0,0.0,0.0,-0.0056,-0.0112,-0.0112,-0.0168,-0.0561,-0.1458,-0.2297,-0.3192,-0.403,-0.4142,-0.448,-0.5326,-0.5382,-0.5382,-0.5382,-0.5382,-0.5437,-0.5437,-0.5437,-0.5437,-0.5437,-0.5437,-0.5382,-0.5382,-0.5382,-0.5382,-0.783,-0.7847,-0.7774,-0.7559,-0.6417,-0.5037,-0.3987,-0.2604,-0.1277,-0.0202,0.0,0.0,0.0,0.0,0.0,0.0,0.0,0.0,0.0,0.0,0.0,0.0,0.0,0.0,0.0,0.0,0.0,0.0,0.0,0.0,0.0,0.0,0.0,0.0,0.0,0.0,0.0,0.0,0.0,0.0,0.0,0.0,0.0,0.0,0.0,0.0,0.0,0.0,0.0,0.0,0.0,0.0,0.0,0.0,0.0,0.0,0.0,-0.0066,-0.033,-0.0714,-0.1078,-0.1553,-0.2198,-0.2761,-0.3052,-0.2682,-0.2106,-0.1844,-0.144,-0.1029,-0.0615,-0.037,-0.0184,-0.006,0.0,0.0,0.0,0.0,0.0,0.0,0.0,0.0,0.0,0.0,0.0,0.0,0.0,0.0,0.0,0.0,-0.0112,-0.0505,-0.1346,-0.2241,-0.3136,-0.3192,-0.336,-0.3754,-0.4257,-0.4536,-0.4536,-0.5098,-0.5382,-0.5382,-0.5382,-0.5382,-0.5382,-0.5382,-0.5382,-0.5382,-0.5382,-0.5382,-1.0016,-0.9994,-0.9951,-0.959,-0.8196,-0.6641,-0.5454,-0.3562,-0.1748,-0.0673,-0.0202,0.0,0.0,0.0,0.0,0.0,0.0,0.0,0.0,0.0,0.0,0.0,0.0,0.0,0.0,0.0,0.0,0.0,0.0,0.0,0.0,0.0,0.0,0.0,0.0,0.0,0.0,0.0,0.0,0.0,0.0,0.0,0.0,0.0,0.0,0.0,0.0,0.0,0.0,0.0,0.0,0.0,0.0,0.0,0.0,0.0,0.0,0.0,0.0,-0.0321,-0.0755,-0.0864,-0.1099,-0.1452,-0.2025,-0.1898,-0.1487,-0.1323,-0.0969,-0.0609,-0.0431,-0.0185,0.0,0.0,0.0,0.0,0.0,0.0,0.0,0.0,0.0,0.0,0.0,0.0,0.0,0.0,0.0,0.0,0.0,0.0,0.0,0.0,-0.0561,-0.1289,-0.2185,-0.2297,-0.2409,-0.2688,-0.3304,-0.3639,-0.3639,-0.4257,-0.4707,-0.4987,-0.4987,-0.51,-0.5382,-0.5382,-0.5382,-0.5382,-0.5382,-0.5382,-1.0192,-1.0358,-1.0383,-1.0023,-0.919,-0.8109,-0.6643,-0.4661,-0.2891,-0.1815,-0.074,0.0,0.0,0.0,0.0,0.0,0.0,0.0,0.0,0.0,0.0,0.0,0.0,0.0,0.0,0.0,0.0,0.0,0.0,0.0,0.0,0.0,0.0,0.0,0.0,0.0,0.0,0.0,0.0,0.0,0.0,0.0,0.0,0.0,0.0,0.0,0.0,0.0,0.0,0.0,0.0,0.0,0.0,0.0,0.0,0.0,0.0,0.0,0.0,0.0,-0.0126,-0.0731,-0.0488,-0.0123,-0.0727,-0.0905,-0.0905,-0.0905,-0.0488,0.0,0.0,0.0,0.0,0.0,0.0,0.0,0.0,0.0,0.0,0.0,0.0,0.0,0.0,0.0,0.0,0.0,0.0,0.0,0.0,0.0,0.0,0.0,0.0,-0.0393,-0.1234,-0.129,-0.1738,-0.2632,-0.2688,-0.2688,-0.2688,-0.2744,-0.3136,-0.3973,-0.4029,-0.4479,-0.5382,-0.5382,-0.5382,-0.5382,-0.5382,-0.5382,-1.0515,-1.036,-1.0113,-0.9692,-0.8801,-0.7653,-0.6413,-0.5172,-0.3764,-0.1949,-0.1345,-0.0874,-0.0135,0.0,0.0,0.0,0.0,0.0,0.0,0.0,0.0,0.0,0.0,0.0,0.0,0.0,0.0,0.0,0.0,0.0,0.0,0.0,0.0,0.0,0.0,0.0,0.0,0.0,0.0,0.0,0.0,0.0,0.0,0.0,0.0,0.0,0.0,0.0,0.0,0.0,0.0,0.0,0.0,0.0,0.0,0.0,0.0,0.0,0.0,0.0,-0.0062,-0.0246,-0.0185,-0.0062,-0.0246,-0.0306,-0.0306,-0.0306,-0.0123,0.0,0.0,0.0,0.0,0.0,0.0,0.0,0.0,0.0,0.0,0.0,0.0,0.0,0.0,0.0,0.0,0.0,0.0,0.0,0.0,0.0,0.0,0.0,0.0,-0.0112,-0.0393,-0.0393,-0.0561,-0.084,-0.1401,-0.1738,-0.1738,-0.2353,-0.2856,-0.308,-0.3136,-0.3248,-0.3529,-0.3529,-0.3529,-0.3529,-0.3529,-0.3529,-1.0698,-1.0501,-1.0197,-0.985,-0.8925,-0.7878,-0.7058,-0.59,-0.4635,-0.3291,-0.2284,-0.1411,-0.074,-0.0269,0.0,0.0,0.0,0.0,0.0,0.0,0.0,0.0,0.0,0.0,0.0,0.0,0.0,0.0,0.0,0.0,0.0,0.0,0.0,0.0,0.0,0.0,0.0,0.0,0.0,0.0,0.0,0.0,0.0,0.0,0.0,0.0,0.0,0.0,0.0,0.0,0.0,0.0,0.0,0.0,0.0,0.0,0.0,0.0,0.0,0.0,0.0,0.0,0.0,0.0,0.0,0.0,0.0,0.0,0.0,0.0,0.0,0.0,0.0,0.0,0.0,0.0,0.0,0.0,0.0,0.0,0.0,0.0,0.0,0.0,0.0,0.0,0.0,0.0,0.0,0.0,0.0,0.0,0.0,0.0,0.0,0.0,0.0,0.0,-0.0505,-0.0785,-0.0785,-0.1345,-0.1849,-0.2185,-0.2185,-0.2353,-0.2688,-0.2688,-0.2688,-0.2688,-0.2688,-0.2688,0.0,-1.0756,-1.0511,-1.0169,-0.9457,-0.869,-0.8282,-0.6844,0.0,-0.5439,-0.3492,-0.1747,-0.168,-0.074,0.0,0.0,0.0,0.0,0.0,-0.0072,-0.0073,0.0,-0.0073,-0.0073,0.0,0.0,0.0,0.0,0.0,0.0,0.0,0.0,0.0,0.0,0.0,0.0,0.0,0.0,0.0,0.0,0.0,0.0,0.0,0.0,0.0,0.0,0.0,0.0,0.0,0.0,0.0,0.0,0.0,0.0,0.0,0.0,0.0,0.0,0.0,0.0,0.0,0.0,0.0,0.0,0.0,0.0,0.0,0.0,0.0,0.0,0.0,0.0,0.0,0.0,0.0,0.0,0.0,0.0,0.0,0.0,0.0,0.0,0.0,0.0,0.0,0.0,0.0,0.0,0.0,0.0,0.0,0.0,0.0,0.0,0.0,0.0,0.0,0.0,0.0,0.0,0.0,0.0,-0.0393,-0.1177,-0.1234,-0.1625,-0.252,-0.252,-0.252,-0.252,-0.252,-0.252,-1.0765,0.0,-1.0223,-0.989,-0.9192,-0.8563,0.0,-0.7541,-0.6784,-0.5971,-0.443,-0.3024,-0.2151,-0.0874,0.0,0.0,0.0,0.0,0.0,-0.0722,-0.0948,-0.0073,-0.0802,-0.0948,-0.0073,0.0,0.0,0.0,0.0,0.0,0.0,0.0,0.0,0.0,0.0,0.0,0.0,0.0,0.0,0.0,0.0,0.0,0.0,0.0,0.0,0.0,0.0,0.0,0.0,0.0,0.0,0.0,0.0,0.0,0.0,0.0,0.0,0.0,0.0,0.0,0.0,0.0,0.0,0.0,0.0,0.0,0.0,0.0,0.0,0.0,0.0,0.0,0.0,0.0,0.0,0.0,0.0,0.0,0.0,0.0,0.0,0.0,0.0,0.0,0.0,0.0,0.0,0.0,0.0,0.0,0.0,0.0,0.0,0.0,0.0,0.0,0.0,0.0,0.0,0.0,0.0,0.0,-0.0112,-0.028,-0.028,-0.0392,-0.0617,-0.0617,-0.0617,-0.0617,-0.0617,-0.0617,-1.0721,-1.0502,-1.0216,-1.0085,-0.9478,-0.8856,-0.847,-0.7885,-0.724,-0.6462,-0.4767,-0.346,-0.3526,-0.2007,-0.0944,-0.163,-0.1798,-0.1904,-0.2157,-0.2683,-0.284,-0.2258,-0.2694,-0.284,-0.2186,-0.2186,-0.1817,-0.1084,-0.1083,-0.0718,-0.0071,0.0,0.0,0.0,0.0,0.0,0.0,0.0,0.0,0.0,0.0,0.0,0.0,0.0,0.0,0.0,0.0,0.0,0.0,0.0,0.0,0.0,0.0,0.0,0.0,0.0,0.0,0.0,0.0,0.0,0.0,0.0,0.0,0.0,0.0,0.0,0.0,0.0,0.0,0.0,0.0,0.0,0.0,0.0,0.0,0.0,0.0,0.0,0.0,0.0,0.0,0.0,0.0,0.0,0.0,0.0,0.0,0.0,0.0,0.0,0.0,0.0,0.0,0.0,0.0,0.0,0.0,0.0,0.0,0.0,0.0,0.0,0.0,0.0,0.0,0.0,0.0,0.0,0.0,0.0,0.0,0.0,-1.0683,-1.0538,-1.0457,-1.0367,-0.9903,-0.9276,-0.8884,-0.8101,-0.7341,-0.6737,-0.4949,-0.3742,-0.4796,-0.3326,-0.2354,-0.3638,-0.3932,-0.4178,-0.4642,-0.4875,-0.4876,-0.4729,-0.4795,-0.4788,-0.4571,-0.449,-0.3889,-0.2563,-0.2277,-0.1628,-0.028,-0.0069,0.0,0.0,0.0,0.0,0.0,0.0,0.0,0.0,0.0,0.0,0.0,0.0,0.0,0.0,0.0,0.0,0.0,0.0,0.0,0.0,0.0,0.0,0.0,0.0,0.0,0.0,0.0,0.0,0.0,0.0,0.0,0.0,0.0,0.0,0.0,0.0,0.0,0.0,0.0,0.0,0.0,0.0,0.0,0.0,0.0,0.0,0.0,0.0,0.0,0.0,0.0,0.0,0.0,0.0,0.0,0.0,0.0,0.0,0.0,0.0,0.0,0.0,0.0,0.0,0.0,0.0,0.0,0.0,0.0,0.0,0.0,0.0,0.0,0.0,0.0,0.0,0.0,0.0,0.0,0.0,-1.0527,-1.0664,-1.0715,-1.0318,-1.004,-0.9682,-0.9146,-0.8426,-0.7553,-0.6619,-0.5593,-0.4605,-0.4133,-0.3725,-0.3574,-0.3821,-0.4266,-0.4578,-0.472,-0.553,-0.5749,-0.4802,-0.519,-0.5155,-0.4149,-0.3684,-0.3306,-0.3089,-0.2247,-0.1606,-0.1378,-0.0481,0.0,0.0,0.0,0.0,0.0,0.0,0.0,0.0,0.0,0.0,0.0,0.0,0.0,0.0,0.0,0.0,0.0,0.0,0.0,0.0,0.0,0.0,0.0,0.0,0.0,0.0,0.0,0.0,0.0,0.0,0.0,0.0,0.0,0.0,0.0,0.0,0.0,0.0,0.0,0.0,0.0,0.0,0.0,0.0,0.0,0.0,0.0,0.0,0.0,0.0,0.0,0.0,0.0,0.0,0.0,0.0,0.0,0.0,0.0,0.0,0.0,0.0,0.0,0.0,0.0,0.0,0.0,0.0,0.0,0.0,0.0,0.0,0.0,0.0,0.0,0.0,0.0,0.0,0.0,0.0,-1.0378,-1.0599,-1.0742,-1.0538,-1.048,-1.0294,-0.974,-0.9056,-0.8336,-0.7363,-0.6437,-0.5741,-0.5713,-0.5354,-0.5331,-0.6281,-0.6651,-0.6878,-0.7185,-0.7634,-0.7688,-0.6913,-0.7088,-0.6971,-0.6143,-0.5894,-0.537,-0.457,-0.3461,-0.2478,-0.163,-0.0611,0.0,0.0,0.0,0.0,0.0,0.0,0.0,0.0,0.0,0.0,0.0,0.0,0.0,0.0,0.0,0.0,0.0,0.0,0.0,0.0,0.0,0.0,0.0,0.0,0.0,0.0,0.0,0.0,0.0,0.0,0.0,0.0,0.0,0.0,0.0,0.0,0.0,0.0,0.0,0.0,0.0,0.0,0.0,0.0,0.0,0.0,0.0,0.0,0.0,0.0,0.0,0.0,0.0,0.0,0.0,0.0,0.0,0.0,0.0,0.0,0.0,0.0,0.0,0.0,0.0,0.0,0.0,0.0,0.0,0.0,0.0,0.0,0.0,0.0,0.0,0.0,0.0,0.0,0.0,0.0,-1.0226,-1.0415,-1.0626,-1.066,-1.0684,-1.0638,-1.021,-0.9545,-0.8761,-0.7824,-0.7057,-0.6638,-0.6972,-0.6728,-0.6913,-0.8379,-0.8629,-0.8731,-0.9104,-0.9264,-0.9146,-0.8533,-0.8497,-0.8306,-0.7807,-0.7705,-0.7177,-0.6009,-0.464,-0.333,-0.2151,-0.0738,0.0,0.0,0.0,0.0,0.0,0.0,0.0,0.0,0.0,0.0,0.0,0.0,0.0,0.0,0.0,0.0,0.0,0.0,0.0,0.0,0.0,0.0,0.0,0.0,0.0,0.0,0.0,0.0,0.0,0.0,0.0,0.0,0.0,0.0,0.0,0.0,0.0,0.0,0.0,0.0,0.0,0.0,0.0,0.0,0.0,0.0,0.0,0.0,0.0,0.0,0.0,0.0,0.0,0.0,0.0,0.0,0.0,0.0,0.0,0.0,0.0,0.0,0.0,0.0,0.0,0.0,0.0,0.0,0.0,0.0,0.0,0.0,0.0,0.0,0.0,0.0,0.0,0.0,0.0,0.0,-1.0004,-1.0185,-1.0344,-1.0477,-1.0376,-1.0299,-1.0541,-0.9472,-0.8246,-0.7405,-0.729,-0.7037,-0.6181,-0.6862,-0.7812,-0.8522,-0.8629,-0.8632,-0.8639,-0.9212,-0.9239,-0.8067,-0.8107,-0.7974,-0.728,-0.7127,-0.7002,-0.6929,-0.4977,-0.3765,-0.3628,-0.1328,0.0,0.0,0.0,0.0,0.0,0.0,0.0,0.0,0.0,0.0,0.0,0.0,0.0,0.0,0.0,0.0,0.0,0.0,0.0,0.0,0.0,0.0,0.0,0.0,0.0,0.0,0.0,0.0,0.0,0.0,0.0,0.0,0.0,0.0,0.0,0.0,0.0,0.0,0.0,0.0,0.0,0.0,0.0,0.0,0.0,0.0,0.0,0.0,0.0,0.0,0.0,0.0,0.0,0.0,0.0,0.0,0.0,0.0,0.0,0.0,0.0,0.0,0.0,0.0,0.0,0.0,0.0,0.0,0.0,0.0,0.0,0.0,0.0,0.0,0.0,0.0,0.0,0.0,0.0,0.0,-0.9845,-1.009,-1.0293,-1.0348,-1.0405,-1.0462,-1.0758,-1.0357,-0.9783,-0.9288,-0.9061,-0.8764,-0.8159,-0.8028,-0.8207,-0.871,-0.8594,-0.8524,-0.8736,-0.9019,-0.9112,-0.8779,-0.8457,-0.8065,-0.779,-0.7275,-0.7118,-0.7323,-0.5129,-0.3778,-0.3778,-0.1375,0.0,0.0,0.0,0.0,0.0,0.0,0.0,0.0,0.0,0.0,0.0,0.0,0.0,0.0,0.0,0.0,0.0,0.0,0.0,0.0,0.0,0.0,0.0,0.0,0.0,0.0,0.0,0.0,0.0,0.0,0.0,0.0,0.0,0.0,0.0,0.0,0.0,0.0,0.0,0.0,0.0,0.0,0.0,0.0,0.0,0.0,0.0,0.0,0.0,0.0,0.0,0.0,0.0,0.0,0.0,0.0,0.0,0.0,0.0,0.0,0.0,0.0,0.0,0.0,0.0,0.0,0.0,0.0,0.0,0.0,0.0,0.0,0.0,0.0,0.0,0.0,0.0,0.0,0.0,0.0,-0.9893,-1.0046,-1.0219,-1.0266,-1.0317,-1.0443,-1.0729,-1.0742,-1.0617,-1.0454,-1.009,-0.959,-0.8847,-0.8509,-0.8415,-0.8668,-0.8615,-0.8613,-0.8825,-0.917,-0.9328,-0.9132,-0.8712,-0.8412,-0.813,-0.7491,-0.7206,-0.7476,-0.5466,-0.405,-0.3722,-0.1678,-0.0321,0.0,0.0,0.0,0.0,0.0,0.0,0.0,0.0,0.0,0.0,0.0,0.0,0.0,0.0,0.0,0.0,0.0,0.0,0.0,0.0,0.0,0.0,0.0,0.0,0.0,0.0,0.0,0.0,0.0,0.0,0.0,0.0,0.0,0.0,0.0,0.0,0.0,0.0,0.0,0.0,0.0,0.0,0.0,0.0,0.0,0.0,0.0,0.0,0.0,0.0,0.0,0.0,0.0,0.0,0.0,0.0,0.0,0.0,0.0,0.0,0.0,0.0,0.0,0.0,0.0,0.0,0.0,0.0,0.0,0.0,0.0,0.0,0.0,0.0,0.0,0.0,0.0,0.0,0.0,-0.9984,-0.9984,-1.0024,-1.0239,-1.0164,-1.0105,-1.0616,-1.0389,-1.0162,-1.0364,-1.0018,-0.9262,-0.7794,-0.8123,-0.8494,-0.8274,-0.8565,-0.8837,-0.8837,-0.9721,-0.9943,-0.8734,-0.8914,-0.8848,-0.8187,-0.769,-0.7367,-0.7367,-0.5972,-0.4636,-0.3666,-0.2287,-0.1009,-0.0063,0.0,0.0,0.0,0.0,0.0,0.0,0.0,0.0,0.0,0.0,0.0,0.0,0.0,0.0,0.0,0.0,0.0,0.0,0.0,0.0,0.0,0.0,0.0,0.0,0.0,0.0,0.0,0.0,0.0,0.0,0.0,0.0,0.0,0.0,0.0,0.0,0.0,0.0,0.0,0.0,0.0,0.0,0.0,0.0,0.0,0.0,0.0,0.0,0.0,0.0,0.0,0.0,0.0,0.0,0.0,0.0,0.0,0.0,0.0,0.0,0.0,0.0,0.0,0.0,0.0,0.0,0.0,0.0,0.0,0.0,0.0,0.0,0.0,0.0,0.0,0.0,0.0,0.0,-0.9856,-0.9906,-0.9997,-1.0044,-1.0239,-1.0395,-1.0527,-1.0511,-1.0495,-1.0431,-1.0219,-0.9927,-0.9458,-0.9392,-0.9337,-0.9236,-0.9108,-0.9108,-0.9375,-0.9564,-0.9758,-0.9907,-0.9098,-0.8525,-0.8598,-0.7597,-0.6999,-0.7319,-0.5946,-0.4692,-0.3674,-0.2251,-0.1056,-0.0062,0.0,0.0,0.0,0.0,0.0,0.0,0.0,0.0,0.0,0.0,0.0,0.0,0.0,0.0,0.0,0.0,0.0,0.0,0.0,0.0,0.0,0.0,0.0,0.0,0.0,0.0,0.0,0.0,0.0,0.0,0.0,0.0,0.0,0.0,0.0,0.0,0.0,0.0,0.0,0.0,0.0,0.0,0.0,0.0,0.0,0.0,0.0,0.0,0.0,0.0,0.0,0.0,0.0,0.0,0.0,0.0,0.0,0.0,0.0,0.0,0.0,0.0,0.0,0.0,0.0,0.0,0.0,0.0,0.0,0.0,0.0,0.0,0.0,0.0,0.0,0.0,0.0,0.0,-1.0012,-1.0073,-1.0171,-1.0223,-1.0405,-1.0507,-1.0568,-1.0653,-1.0542,-1.0021,-1.0178,-1.0256,-0.9655,-0.9724,-0.9861,-0.9721,-0.9585,-0.9634,-0.9776,-0.9829,-0.9951,-1.0351,-0.9489,-0.88,-0.8805,-0.7745,-0.7023,-0.7019,-0.6045,-0.4808,-0.3431,-0.2538,-0.148,-0.0062,0.0,0.0,0.0,0.0,0.0,0.0,0.0,0.0,0.0,0.0,0.0,0.0,0.0,0.0,0.0,0.0,0.0,0.0,0.0,0.0,0.0,0.0,0.0,0.0,0.0,0.0,0.0,0.0,0.0,0.0,0.0,0.0,0.0,0.0,0.0,0.0,0.0,0.0,0.0,0.0,0.0,0.0,0.0,0.0,0.0,0.0,0.0,0.0,0.0,0.0,0.0,0.0,0.0,0.0,0.0,0.0,0.0,0.0,0.0,0.0,0.0,0.0,0.0,0.0,0.0,0.0,0.0,0.0,0.0,0.0,0.0,0.0,0.0,0.0,0.0,0.0,0.0,0.0,-1.0222,-1.0259,-1.0331,-1.0626,-1.0605,-1.0551,-1.0687,-1.0721,-1.0452,-0.9449,-1.005,-1.0319,-0.9053,-0.9579,-1.0104,-0.9842,-1.0028,-1.0175,-1.0039,-1.0265,-1.0402,-1.0276,-0.9856,-0.9402,-0.8773,-0.7977,-0.7228,-0.6603,-0.6149,-0.5053,-0.3079,-0.3018,-0.2095,-0.0062,0.0,0.0,0.0,0.0,0.0,0.0,0.0,0.0,0.0,0.0,0.0,0.0,0.0,0.0,0.0,0.0,0.0,0.0,0.0,0.0,0.0,0.0,0.0,0.0,0.0,0.0,0.0,0.0,0.0,0.0,0.0,0.0,0.0,0.0,0.0,0.0,0.0,0.0,0.0,0.0,0.0,0.0,0.0,0.0,0.0,0.0,0.0,0.0,0.0,0.0,0.0,0.0,0.0,0.0,0.0,0.0,0.0,0.0,0.0,0.0,0.0,0.0,0.0,0.0,0.0,0.0,0.0,0.0,0.0,0.0,0.0,0.0,0.0,0.0,0.0,0.0,0.0,0.0,-1.0027,-1.0038,-1.0171,-1.0466,-1.0605,-1.068,-1.0714,-1.0721,-1.0654,-1.0386,-1.0518,-1.0588,-1.0319,-1.0356,-1.0411,-1.0345,-1.032,-1.03,-1.0267,-1.0159,-1.0071,-1.0041,-0.9435,-0.8752,-0.8133,-0.7431,-0.6803,-0.613,-0.5929,-0.5053,-0.3079,-0.3018,-0.2095,-0.0062,0.0,0.0,0.0,0.0,0.0,0.0,0.0,0.0,0.0,0.0,0.0,0.0,0.0,0.0,0.0,0.0,0.0,0.0,0.0,0.0,0.0,0.0,0.0,0.0,0.0,0.0,0.0,0.0,0.0,0.0,0.0,0.0,0.0,0.0,0.0,0.0,0.0,0.0,0.0,0.0,0.0,0.0,0.0,0.0,0.0,0.0,0.0,0.0,0.0,0.0,0.0,0.0,0.0,0.0,0.0,0.0,0.0,0.0,0.0,0.0,0.0,0.0,0.0,0.0,0.0,0.0,0.0,0.0,0.0,0.0,0.0,0.0,0.0,0.0,0.0,0.0,0.0,0.0,-0.9879,-1.0049,-1.0229,-1.0527,-1.066,-1.0721,-1.0721,-1.0663,-1.0612,-1.0612,-1.0612,-1.0547,-1.0415,-1.036,-1.0392,-1.0392,-1.0327,-1.0253,-1.0181,-1.01,-0.996,-0.9886,-0.9503,-0.8909,-0.7994,-0.7564,-0.6952,-0.5978,-0.5425,-0.4559,-0.3079,-0.2525,-0.1602,-0.0062,0.0,0.0,0.0,0.0,0.0,0.0,0.0,0.0,0.0,0.0,0.0,0.0,0.0,0.0,0.0,0.0,0.0,0.0,0.0,0.0,0.0,0.0,0.0,0.0,0.0,0.0,0.0,0.0,0.0,0.0,0.0,0.0,0.0,0.0,0.0,0.0,0.0,0.0,0.0,0.0,0.0,0.0,0.0,0.0,0.0,0.0,0.0,0.0,0.0,0.0,0.0,0.0,0.0,0.0,0.0,0.0,0.0,0.0,0.0,0.0,0.0,0.0,0.0,0.0,0.0,0.0,0.0,0.0,0.0,0.0,0.0,0.0,0.0,0.0,0.0,0.0,0.0,0.0,-0.9835,-1.0087,-1.0344,-1.0612,-1.07,-1.0648,-1.0488,-1.0385,-1.0289,-1.0068,-1.0259,-1.0391,-1.0068,-1.0146,-1.0243,-1.0243,-1.0219,-1.0158,-0.9967,-0.995,-0.9903,-0.9836,-0.9822,-0.9271,-0.8052,-0.7872,-0.7322,-0.5978,-0.4993,-0.4006,-0.3079,-0.2028,-0.1044,-0.0061,0.0,0.0,0.0,0.0,0.0,0.0,0.0,0.0,0.0,0.0,0.0,0.0,0.0,0.0,0.0,0.0,0.0,0.0,0.0,0.0,0.0,0.0,0.0,0.0,0.0,0.0,0.0,0.0,0.0,0.0,0.0,0.0,0.0,0.0,0.0,0.0,0.0,0.0,0.0,0.0,0.0,0.0,0.0,0.0,0.0,0.0,0.0,0.0,0.0,0.0,0.0,0.0,0.0,0.0,0.0,0.0,0.0,0.0,0.0,0.0,0.0,0.0,0.0,0.0,0.0,0.0,0.0,0.0,0.0,0.0,0.0,0.0,0.0,0.0,0.0,0.0,0.0,0.0,-0.9954,-1.0135,-1.0321,-1.048,-1.0622,-1.0488,-0.9836,-0.9664,-0.9355,-0.8336,-0.9343,-1.0307,-1.0243,-1.0122,-1.0017,-1.0017,-0.9968,-0.9876,-0.9852,-0.9849,-0.9842,-0.9822,-0.9822,-0.9271,-0.8052,-0.7872,-0.7322,-0.5978,-0.4993,-0.4006,-0.3079,-0.2068,-0.1027,-0.0061,0.0,0.0,0.0,0.0,0.0,0.0,0.0,0.0,0.0,0.0,0.0,0.0,0.0,0.0,0.0,0.0,0.0,0.0,0.0,0.0,0.0,0.0,0.0,0.0,0.0,0.0,0.0,0.0,0.0,0.0,0.0,0.0,0.0,0.0,0.0,0.0,0.0,0.0,0.0,0.0,0.0,0.0,0.0,0.0,0.0,0.0,0.0,0.0,0.0,0.0,0.0,0.0,0.0,0.0,0.0,0.0,0.0,0.0,0.0,0.0,0.0,0.0,0.0,0.0,0.0,0.0,0.0,0.0,0.0,0.0,0.0,0.0,0.0,0.0,0.0,0.0,0.0,0.0,-0.9958,-1.0114,-1.008,-1.0317,-1.0483,-1.0225,-0.8845,-0.8819,-0.8651,-0.6937,-0.7566,-0.861,-0.9252,-0.9215,-0.9303,-0.9798,-0.9866,-0.9822,-0.9822,-0.9822,-0.9822,-0.9822,-0.9822,-0.9271,-0.8052,-0.7809,-0.7228,-0.5962,-0.4406,-0.3304,-0.2883,-0.1492,-0.0476,0.0,0.0,0.0,0.0,0.0,0.0,0.0,0.0,0.0,0.0,0.0,0.0,0.0,0.0,0.0,0.0,0.0,0.0,0.0,0.0,0.0,0.0,0.0,0.0,0.0,0.0,0.0,0.0,0.0,0.0,0.0,0.0,0.0,0.0,0.0,0.0,0.0,0.0,0.0,0.0,0.0,0.0,0.0,0.0,0.0,0.0,0.0,0.0,0.0,0.0,0.0,0.0,0.0,0.0,0.0,0.0,0.0,0.0,0.0,0.0,0.0,0.0,0.0,0.0,0.0,0.0,0.0,0.0,0.0,0.0,0.0,0.0,0.0,0.0,0.0,0.0,0.0,0.0,0.0168,-0.9937,-1.0098,-1.0023,-1.0336,-1.027,-0.9701,-0.819,-0.7981,-0.7569,-0.5706,-0.5828,-0.6605,-0.7614,-0.7926,-0.8355,-0.9271,-0.9454,-0.9515,-0.9758,-0.9822,-0.9822,-0.9822,-0.9822,-0.9271,-0.8052,-0.7761,-0.7093,-0.554,-0.3798,-0.2707,-0.2472,-0.0879,0.0,0.0,0.0,0.0,0.0,0.0,0.0,0.0,0.0,0.0,0.0,0.0,0.0,0.0,0.0,0.0,0.0,0.0,0.0,0.0,0.0,0.0,0.0,0.0,0.0,0.0,0.0,0.0,0.0,0.0,0.0,0.0,0.0,0.0,0.0,0.0,0.0,0.0,0.0,0.0,0.0,0.0,0.0,0.0,0.0,0.0,0.0,0.0,0.0,0.0,0.0,0.0,0.0,0.0,0.0,0.0,0.0,0.0,0.0,0.0,0.0,0.0,0.0,0.0,0.0,0.0,0.0,0.0,0.0,0.0,0.0,0.0,0.0,0.0,0.0,0.0,0.0,0.0,0.0168,0.0449,-0.9716,-1.0158,-1.0347,-1.0673,-0.9889,-0.8872,-0.8239,-0.7113,-0.59,-0.4703,-0.4502,-0.4747,-0.5427,-0.6342,-0.7317,-0.8294,-0.8477,-0.8784,-0.97,-0.9822,-0.9822,-0.9822,-0.9822,-0.9271,-0.8052,-0.7761,-0.6791,-0.4637,-0.3443,-0.2413,-0.1588,-0.058,0.0,0.0,0.0,0.0,0.0,0.0,0.0,0.0,0.0,0.0,0.0,0.0,0.0,0.0,0.0,0.0,0.0,0.0,0.0,0.0,0.0,0.0,0.0,0.0,0.0,0.0,0.0,0.0,0.0,0.0,0.0,0.0,0.0,0.0,0.0,0.0,0.0,0.0,0.0,0.0,0.0,0.0,0.0,0.0,0.0,0.0,0.0,0.0,0.0,0.0,0.0,0.0,0.0,0.0,0.0,0.0,0.0,0.0,0.0,0.0,0.0,0.0,0.0,0.0,0.0,0.0,0.0,0.0,0.0,0.0,0.0,0.0,0.0,0.0,0.0,0.0,0.0,0.0,0.0561,0.0897,-0.7862,-0.8502,-0.9046,-0.9245,-0.9112,-0.8392,-0.6598,-0.5949,-0.514,-0.2966,-0.333,-0.4071,-0.4193,-0.5114,-0.6276,-0.7255,-0.7989,-0.8538,-0.8845,-0.9393,-0.9822,-0.9822,-0.9822,-0.9271,-0.8052,-0.7944,-0.7003,-0.4511,-0.3564,-0.2593,-0.1427,-0.0511,0.0,0.0,0.0,0.0,0.0,0.0,0.0,0.0,0.0784,0.0728,0.0,0.0784,0.0728,0.0,0.0,0.0,0.0,0.0,0.0,0.0,0.0,0.0,0.0,0.0,0.0,0.0,0.0,0.0,0.0,0.0,0.0,0.0,0.0,0.0,0.0,0.0,0.0,0.0,0.0,0.0,0.0,0.0,0.0,0.0,0.0,0.0,0.0,0.0,0.0,0.0,0.0,0.0,0.0,0.0,0.0,0.0,0.0,0.0,0.0,0.0,0.0,0.0,0.0,0.0,0.0,0.0,0.0,0.0,0.0,0.0,0.0,0.0,0.0,0.0,0.0,0.0393,0.0561,0.0617,0.1177,0.1683,-0.6224,-0.6807,-0.7409,-0.7751,-0.7884,-0.744,-0.5493,-0.5145,-0.4575,-0.2145,-0.2509,-0.324,-0.3284,-0.4024,-0.5021,-0.6211,-0.695,-0.7622,-0.8294,-0.8964,-0.9454,-0.9761,-0.9822,-0.9332,-0.8175,-0.7761,-0.6584,-0.4151,-0.3138,-0.2114,-0.0905,-0.0337,0.0,0.0,0.0,0.0,0.0,0.0,0.0224,0.0616,0.14,0.14,0.0616,0.1456,0.112,0.0,0.0,0.0,0.0,0.0,0.0,0.0,0.0,0.0,0.0,0.0,0.0,0.0,0.0,0.0,0.0,0.0,0.0,0.0,0.0,0.0,0.0,0.0,0.0,0.0,0.0,0.0,0.0,0.0,0.0,0.0,0.0,0.0,0.0,0.0,0.0,0.0,0.0,0.0,0.0,0.0,0.0,0.0,0.0,0.0,0.0,0.0,0.0,0.0,0.0,0.0,0.0,0.0,0.0,0.0,0.0,0.0,0.0,0.0,0.0,0.0,0.0,0.0617,0.0897,0.0897,0.1739,0.2412,0.0,0.0,0.0,-0.6323,-0.6357,-0.5959,-0.5036,-0.4673,-0.4088,-0.2347,-0.1987,-0.2218,-0.2776,-0.2923,-0.3512,-0.5102,-0.5421,-0.6156,-0.8111,-0.8416,-0.8781,-0.9697,-0.9819,-0.9454,-0.8477,-0.715,-0.553,-0.355,-0.2107,-0.092,-0.0057,0.0,0.0,0.0,0.0,0.0,0.0,0.0,0.056,0.1735,0.1791,0.1791,0.1735,0.1847,0.1176,0.0,0.0,0.0,0.0,0.0,0.0,0.0,0.0,0.0,0.0,0.0,0.0,0.0,0.0,0.0,0.0,0.0,0.0,0.0,0.0,0.0,0.0,0.0,0.0,0.0,0.0,0.0,0.0,0.0,0.0,0.0,0.0,0.0,0.0,0.0,0.0,0.0,0.0,0.0,0.0,0.0,0.0,0.0,0.0,0.0,0.0,0.0,0.0,0.0,0.0,0.0,0.0,0.0,0.0,0.0,0.0,0.0,0.0,0.0,0.0056,0.0056,0.0,0.0617,0.0953,0.0953,0.2188,0.3029,-0.2687,0.0,0.0,0.0,0.0,0.0,-0.3492,-0.3352,-0.2961,-0.1541,-0.2033,-0.2588,-0.2276,-0.2282,-0.2604,-0.3506,-0.5477,-0.707,-0.7617,-0.9083,-1.0243,-1.0486,-1.0547,-1.0058,-0.8839,-0.7704,-0.6073,-0.3614,-0.2423,-0.1279,-0.0058,0.0,0.0,0.0,0.0,0.0,0.0,0.0,0.0168,0.0504,0.2295,0.2183,0.056,0.2295,0.1959,0.0,0.0,0.0,0.0,0.0,0.0,0.0,0.0,0.0,0.0,0.0,0.0,0.0,0.0,0.0,0.0,0.0,0.0,0.0,0.0,0.0,0.0,0.0,0.0,0.0,0.0,0.0,0.0,0.0,0.0,0.0,0.0,0.0,0.0,0.0,0.0,0.0,0.0,0.0,0.0,0.0,0.0,0.0,0.0,0.0,0.0,0.0,0.0,0.0,0.0,0.0,0.0,0.0,0.0,0.0168,0.0617,0.0673,0.0673,0.0673,0.1065,0.1065,0.0673,0.1234,0.157,0.157,0.2803,0.3419,-0.1065,-0.1567,-0.2184,-0.2426,0.0,0.0,-0.2193,-0.2438,-0.2386,-0.0874,-0.1175,-0.1655,-0.1536,-0.1545,-0.1796,-0.2418,-0.4454,-0.6263,-0.725,-0.8778,-1.0082,-1.0825,-1.0954,-1.0213,-0.8485,-0.7306,-0.5604,-0.2981,-0.1798,-0.0824,-0.0058,0.0,0.0,0.0,0.0,0.0,0.0,0.0,0.028,0.0784,0.2183,0.2127,0.0784,0.2183,0.1791,0.0,0.0,0.0,0.0,0.0,0.0,0.0,0.0,0.0,0.0,0.0,0.0,0.0,0.0,0.0,0.0,0.0,0.0,0.0,0.0,0.0,0.0,0.0,0.0,0.0,0.0,0.0,0.0,0.0,0.0,0.0,0.0,0.0,0.0,0.0,0.0,0.0,0.0,0.0,0.0,0.0,0.0,0.0,0.0,0.0,0.0,0.0,0.0,0.0,0.0,0.0,0.0,0.0,0.0224,0.0561,0.0897,0.1121,0.129,0.129,0.1627,0.1739,0.1627,0.202,0.23,0.2579,0.3251,0.3587,0.0,0.0,-0.0169,-0.0743,-0.1642,0.0,-0.1105,-0.1734,-0.1999,-0.0344,-0.0057,-0.023,-0.069,-0.0931,-0.1176,-0.1826,-0.2944,-0.4515,-0.6738,-0.7853,-0.9075,-1.0707,-1.0915,-1.0105,-0.7861,-0.6342,-0.4558,-0.2165,-0.0729,0.0,0.0,0.0,0.0,0.0,0.0,0.0,0.0,0.0,0.056,0.1623,0.1735,0.1735,0.1623,0.1735,0.112,0.0,0.0,0.0,0.0,0.0,0.0,0.0,0.0,0.0,0.0,0.0,0.0,0.0,0.0,0.0,0.0,0.0,0.0,0.0,0.0,0.0,0.0,0.0,0.0,0.0,0.0,0.0,0.0,0.0,0.0,0.0,0.0,0.0,0.0,0.0,0.0,0.0,0.0,0.0,0.0,0.0,0.0,0.0,0.0,0.0,0.0,0.0,0.0,0.0,0.0,0.0,0.0,0.0,0.0561,0.0953,0.1009,0.157,0.1907,0.1907,0.1907,0.2188,0.2806,0.275,0.303,0.3587,0.3587,0.3587,0.0,0.0,-0.0056,-0.0169,-0.0337,0.0,-0.0226,-0.0734,-0.1014,-0.0169,-0.0399,-0.0632,-0.023,-0.0577,-0.116,-0.1764,-0.2575,-0.3464,-0.4451,-0.6999,-0.8934,-0.9438,-0.9901,-0.9574,-0.8163,-0.5751,-0.3703,-0.2132,-0.0787,0.0,0.0,0.0,0.0,0.0,0.0,0.0,0.0,0.0,0.0112,0.0336,0.1344,0.1288,0.0392,0.1344,0.112,0.0,0.0,0.0,0.0,0.0,0.0,0.0,0.0,0.0,0.0,0.0,0.0,0.0,0.0,0.0,0.0,0.0,0.0,0.0,0.0,0.0,0.0,0.0,0.0,0.0,0.0,0.0,0.0,0.0,0.0,0.0,0.0,0.0,0.0,0.0,0.0,0.0,0.0,0.0,0.0,0.0,0.0,0.0,0.0,0.0,0.0,0.0,0.0,0.0,0.0,0.0,0.0,0.0,0.0561,0.1121,0.1627,0.2188,0.2525,0.2525,0.2525,0.2805,0.3419,0.2917,0.303,0.3587,0.3587,0.3587,0.0,0.0,0.0,0.0,0.0,0.0,0.0,-0.0224,-0.0393,-0.0056,-0.0226,-0.0342,-0.0057,-0.023,-0.0577,-0.0872,-0.123,-0.1589,-0.1881,-0.4785,-0.703,-0.7619,-0.7892,-0.7416,-0.5829,-0.4413,-0.2883,-0.1123,-0.0361,0.0,0.0,0.0,0.0,0.0,0.0,0.0,0.0,0.0,0.0,0.0,0.0616,0.056,0.0,0.0616,0.056,0.0,0.0,0.0,0.0,0.0,0.0,0.0,0.0,0.0,0.0,0.0,0.0,0.0,0.0,0.0,0.0,0.0,0.0,0.0,0.0,0.0,0.0,0.0,0.0,0.0,0.0,0.0,0.0,0.0,0.0,0.0,0.0,0.0,0.0,0.0,0.0,0.0,0.0,0.0,0.0,0.0,0.0,0.0,0.0,0.0,0.0,0.0,0.0,0.0,0.0,0.0,0.0,0.0,0.0841,0.1458,0.1795,0.2692,0.3141,0.3141,0.3141,0.3309,0.3587,0.3309,0.3309,0.3587,0.3587,0.3587,0.0,0.0,0.0,0.0,0.0,0.0,0.0,0.0,0.0,0.0,0.0,0.0,0.0,-0.0114,-0.0172,-0.0172,-0.0176,-0.0177,-0.0173,-0.2463,-0.4574,-0.5635,-0.5807,-0.5142,-0.3516,-0.2882,-0.187,-0.0124,0.0,0.0,0.0,0.0,0.0,0.0,0.0,0.0,0.0,0.0,0.0,0.0,0.0,0.0,0.0,0.0,0.0,0.0,0.0,0.0,0.0,0.0,0.0,0.0,0.0,0.0,0.0,0.0,0.0,0.0,0.0,0.0,0.0,0.0,0.0,0.0,0.0,0.0,0.0,0.0,0.0,0.0,0.0,0.0,0.0,0.0,0.0,0.0,0.0,0.0,0.0,0.0,0.0,0.0,0.0,0.0,0.0,0.0,0.0,0.0,0.0,0.0,0.0,0.0,0.0,0.0,0.0,0.0,0.0,0.0,0.1121,0.1795,0.1795,0.2971,0.3587,0.3587,0.3587,0.3587,0.3587,0.3587,0.3587,0.3587,0.3587,0.3587,0.0,0.0,0.0,0.0,0.0,0.0,0.0,0.0,0.0,0.0,0.0,0.0,0.0,0.0,0.0,-0.0787,-0.079,-0.0795,-0.0804,-0.1095,-0.2102,-0.4086,-0.4264,-0.4207,-0.4021,-0.1804,-0.0247,0.0,0.0,0.0,0.0,0.0,0.0,0.0,0.0,0.0,0.0,0.0,0.0,0.0,0.0,0.0,0.0,0.0,0.0,0.0,0.0,0.0,0.0,0.0,0.0,0.0,0.0,0.0,0.0,0.0,0.0,0.0,0.0,0.0,0.0,0.0,0.0,0.0,0.0,0.0,0.0,0.0,0.0,0.0,0.0,0.0,0.0,0.0,0.0,0.0,0.0,0.0,0.0,0.0,0.0,0.0,0.0,0.0,0.0,0.0,0.0,0.0,0.0,0.0,0.0,0.0,0.0,0.0,0.0,0.0,0.0,0.0,0.1121,0.1795,0.1795,0.2971,0.3587,0.3587,0.3587,0.3587,0.3587,0.3587,0.3587,0.3587,0.3587,0.3587,0.0,0.0,0.0,0.0,0.0,0.0,0.0,0.0,0.0,0.0,0.0,0.0,0.0,0.0,0.0,0.0,-0.0396,-0.0398,-0.0397,-0.0403,-0.0703,-0.16,-0.1982,-0.2065,-0.1777,-0.0672,0.0,0.0,0.0,0.0,0.0,0.0,0.0,0.0,0.0,0.0,0.0,0.0,0.0,0.0,0.0,0.0392,0.1008,0.0336,0.0392,0.1008,0.028,0.0,0.0,0.0,0.0,0.0,0.0,0.0,0.0,0.0,0.0,0.0,0.0,0.0,0.0,0.0,0.0,0.0,0.0,0.0,0.0,0.0,0.0,0.0,0.0,0.0,0.0,0.0,0.0,0.0,0.0,0.0,0.0,0.0,0.0,0.0,0.0,0.0,0.0,0.0,0.0,0.0112,0.0505,0.0505,0.0673,0.1009,0.0729,0.0505,0.0505,0.0224,0.0,0.0,0.1121,0.2131,0.2803,0.3307,0.3587,0.3587,0.3587,0.3587,0.3587,0.3587,0.3587,0.3587,0.3587,0.3587,0.0,0.0,0.0,0.0,0.0,0.0,0.0,0.0,0.0,0.0,0.0,0.0,0.0,0.0,0.0,0.0,0.0,0.0,0.0,-0.0114,-0.0232,-0.0232,-0.0642,-0.0648,-0.006,0.0,0.0,0.0,0.0,0.0,0.0,0.0,0.0,0.0,0.0,0.0,0.0,0.0,0.0168,0.0504,0.0504,0.0953,0.1791,0.0896,0.0784,0.1232,0.0392,0.0,0.0,0.0,0.0,0.0,0.0,0.0,0.0,0.0,0.0,0.0,0.0,0.0,0.0,0.0,0.0,0.0,0.0,0.0,0.0,0.0,0.0,0.0,0.0,0.0,0.0,0.0,0.0,0.0,0.0,0.0112,0.0224,0.0224,0.0393,0.0505,0.0505,0.0224,0.0,0.0,0.0168,0.0393,0.0841,0.1065,0.129,0.1739,0.1402,0.1121,0.1121,0.0617,0.0336,0.0505,0.1458,0.2523,0.3531,0.3587,0.3587,0.3587,0.3587,0.3587,0.3587,0.3587,0.3587,0.3587,0.3587,0.3587,0.0,0.0,0.0,0.0,0.0,0.0,0.0,0.0,0.0,0.0,0.0,0.0,0.0,0.0,0.0,0.0,0.0,0.0,0.0,-0.0505,-0.0899,-0.0899,-0.0912,-0.0637,-0.0059,0.0,0.0,0.0,0.0,0.0,0.0,0.0,0.0,0.0,0.0,0.0,0.0,0.0,0.056,0.1735,0.1735,0.1735,0.1791,0.1735,0.112,0.0056,0.0,0.0,0.0,0.0,0.0,0.0,0.0,0.0,0.0,0.0,0.0,0.0,0.0,0.0,0.0,0.0,0.0,0.0,0.0,0.0,0.0,0.0,0.0,0.0,0.0,0.0,0.0,0.0,0.0,0.0,0.0,0.0449,0.0897,0.0897,0.1346,0.1739,0.1739,0.0785,0.0,0.0,0.0505,0.0897,0.0897,0.1402,0.1795,0.1795,0.1795,0.1795,0.1795,0.1234,0.1121,0.1683,0.23,0.2973,0.3587,0.3587,0.3587,0.3587,0.3587,0.3587,0.3587,0.3587,0.3587,0.3587,0.3587,0.3587,0.0,0.0,0.0,0.0,0.0,0.0,0.0,0.0,0.0,0.0,0.0,0.0,0.0,0.0,0.0,0.0,0.0,0.0,0.0,-0.0168,-0.028,-0.028,-0.0285,-0.023,0.0,0.0,0.0,0.0,0.0,0.0,0.0,0.0,0.0,0.0,0.0,0.0,0.0,0.0,0.0616,0.1791,0.1791,0.2225,0.2971,0.2172,0.1558,0.1157,0.0335,0.0,0.0,0.0,0.0,0.0,0.0,0.0,0.0,0.0,0.0,0.0,0.0,0.0,0.0,0.0,0.0,0.0,0.0,0.0,0.0,0.0,0.0,0.0,0.0,0.0,0.0,0.0,0.0,0.0112,0.0505,0.0729,0.1009,0.1402,0.1683,0.1795,0.1795,0.1458,0.1177,0.1177,0.1346,0.1627,0.202,0.2244,0.2524,0.2971,0.2636,0.2413,0.2413,0.1851,0.1739,0.2356,0.2581,0.2974,0.3587,0.3587,0.3587,0.3587,0.3587,0.3587,0.3587,0.3587,0.3587,0.3587,0.3587,0.3587,0.0,0.0,0.0,0.0,0.0,0.0,0.0,0.0,0.0,0.0,0.0,0.0,0.0,0.0,0.0,0.0,0.0,0.0,0.0,0.0,0.0,0.0,0.0,0.0,0.0,0.0,0.0,0.0,0.0,0.0,0.0,0.0,0.0,0.0,0.0,0.0,0.0,0.0,0.0616,0.1791,0.217,0.2591,0.2945,0.2577,0.1912,0.1138,0.0331,0.0,0.0,0.0,0.0,0.0,0.0,0.0,0.0,0.0,0.0,0.0,0.0,0.0,0.0,0.0,0.0,0.0,0.0,0.0,0.0,0.0,0.0,0.0,0.0,0.0,0.0056,0.028,0.0336,0.0505,0.1065,0.1402,0.1683,0.202,0.2299,0.2467,0.2467,0.2467,0.2299,0.1851,0.1964,0.2244,0.2637,0.2862,0.3197,0.3531,0.3253,0.2917,0.2693,0.2524,0.2523,0.2693,0.2918,0.3197,0.3587,0.3587,0.3587,0.3587,0.3587,0.3587,0.3587,0.3587,0.3587,0.3587,0.3587,0.3587]}]]